<?xml version='1.0' encoding='UTF-8'?>
<gpx version="1.1" creator="https://www.komoot.de" xmlns="http://www.topografix.com/GPX/1/1" xmlns:xsi="http://www.w3.org/2001/XMLSchema-instance" xsi:schemaLocation="http://www.topografix.com/GPX/1/1 http://www.topografix.com/GPX/1/1/gpx.xsd">
  <metadata>
    <name>78_1000WittnauEtzgen</name>
    <author>
      <link href="https://www.komoot.de">
        <text>komoot</text>
        <type>text/html</type>
      </link>
    </author>
  </metadata>
  <trk>
    <name>78_1000WittnauEtzgen</name>
    <trkseg>
      <trkpt lat="47.541354" lon="7.870837">
        <ele>342.503841</ele>
        <time>2021-11-21T21:11:28.446Z</time>
      </trkpt>
      <trkpt lat="47.541217" lon="7.870951">
        <ele>342.503841</ele>
        <time>2021-11-21T21:11:31.968Z</time>
      </trkpt>
      <trkpt lat="47.540933" lon="7.871187">
        <ele>342.503841</ele>
        <time>2021-11-21T21:11:39.386Z</time>
      </trkpt>
      <trkpt lat="47.540894" lon="7.871220">
        <ele>342.503841</ele>
        <time>2021-11-21T21:11:40.516Z</time>
      </trkpt>
      <trkpt lat="47.540693" lon="7.871390">
        <ele>342.503841</ele>
        <time>2021-11-21T21:11:45.916Z</time>
      </trkpt>
      <trkpt lat="47.540463" lon="7.871584">
        <ele>342.733648</ele>
        <time>2021-11-21T21:11:52.096Z</time>
      </trkpt>
      <trkpt lat="47.540265" lon="7.871808">
        <ele>343.193566</ele>
        <time>2021-11-21T21:11:57.572Z</time>
      </trkpt>
      <trkpt lat="47.540216" lon="7.871851">
        <ele>343.298703</ele>
        <time>2021-11-21T21:11:59.036Z</time>
      </trkpt>
      <trkpt lat="47.540034" lon="7.871970">
        <ele>343.665954</ele>
        <time>2021-11-21T21:12:03.602Z</time>
      </trkpt>
      <trkpt lat="47.539930" lon="7.872041">
        <ele>343.877349</ele>
        <time>2021-11-21T21:12:06.175Z</time>
      </trkpt>
      <trkpt lat="47.539841" lon="7.872151">
        <ele>344.091324</ele>
        <time>2021-11-21T21:12:09.201Z</time>
      </trkpt>
      <trkpt lat="47.539678" lon="7.872430">
        <ele>344.551144</ele>
        <time>2021-11-21T21:12:14.718Z</time>
      </trkpt>
      <trkpt lat="47.539222" lon="7.873416">
        <ele>345.943539</ele>
        <time>2021-11-21T21:12:32.260Z</time>
      </trkpt>
      <trkpt lat="47.538278" lon="7.874319">
        <ele>347.087534</ele>
        <time>2021-11-21T21:12:51.914Z</time>
      </trkpt>
      <trkpt lat="47.537716" lon="7.874966">
        <ele>347.945509</ele>
        <time>2021-11-21T21:13:05.889Z</time>
      </trkpt>
      <trkpt lat="47.537261" lon="7.875237">
        <ele>348.869170</ele>
        <time>2021-11-21T21:13:15.406Z</time>
      </trkpt>
      <trkpt lat="47.537182" lon="7.875293">
        <ele>349.034125</ele>
        <time>2021-11-21T21:13:17.394Z</time>
      </trkpt>
      <trkpt lat="47.536921" lon="7.875537">
        <ele>349.615430</ele>
        <time>2021-11-21T21:13:23.361Z</time>
      </trkpt>
      <trkpt lat="47.536757" lon="7.875759">
        <ele>350.033876</ele>
        <time>2021-11-21T21:13:27.963Z</time>
      </trkpt>
      <trkpt lat="47.536632" lon="7.875912">
        <ele>350.339290</ele>
        <time>2021-11-21T21:13:31.131Z</time>
      </trkpt>
      <trkpt lat="47.536444" lon="7.876177">
        <ele>350.828091</ele>
        <time>2021-11-21T21:13:38.092Z</time>
      </trkpt>
      <trkpt lat="47.535851" lon="7.877319">
        <ele>355.138302</ele>
        <time>2021-11-21T21:14:09.407Z</time>
      </trkpt>
      <trkpt lat="47.535770" lon="7.877432">
        <ele>355.669048</ele>
        <time>2021-11-21T21:14:13.586Z</time>
      </trkpt>
      <trkpt lat="47.535635" lon="7.877484">
        <ele>356.334400</ele>
        <time>2021-11-21T21:14:19.454Z</time>
      </trkpt>
      <trkpt lat="47.535551" lon="7.877487">
        <ele>356.735186</ele>
        <time>2021-11-21T21:14:21.362Z</time>
      </trkpt>
      <trkpt lat="47.535322" lon="7.877590">
        <ele>357.876740</ele>
        <time>2021-11-21T21:14:31.414Z</time>
      </trkpt>
      <trkpt lat="47.535088" lon="7.877742">
        <ele>359.095508</ele>
        <time>2021-11-21T21:14:39.246Z</time>
      </trkpt>
      <trkpt lat="47.534855" lon="7.878090">
        <ele>360.737311</ele>
        <time>2021-11-21T21:14:51.229Z</time>
      </trkpt>
      <trkpt lat="47.534778" lon="7.878270">
        <ele>361.464964</ele>
        <time>2021-11-21T21:14:58.536Z</time>
      </trkpt>
      <trkpt lat="47.534825" lon="7.878414">
        <ele>362.011137</ele>
        <time>2021-11-21T21:15:01.162Z</time>
      </trkpt>
      <trkpt lat="47.534946" lon="7.878790">
        <ele>363.433485</ele>
        <time>2021-11-21T21:15:13.210Z</time>
      </trkpt>
      <trkpt lat="47.534908" lon="7.878975">
        <ele>364.093806</ele>
        <time>2021-11-21T21:15:17.268Z</time>
      </trkpt>
      <trkpt lat="47.534616" lon="7.879490">
        <ele>366.390305</ele>
        <time>2021-11-21T21:15:34.215Z</time>
      </trkpt>
      <trkpt lat="47.533892" lon="7.880353">
        <ele>369.824059</ele>
        <time>2021-11-21T21:16:01.954Z</time>
      </trkpt>
      <trkpt lat="47.533606" lon="7.880961">
        <ele>371.002760</ele>
        <time>2021-11-21T21:16:14.263Z</time>
      </trkpt>
      <trkpt lat="47.533374" lon="7.881639">
        <ele>372.211830</ele>
        <time>2021-11-21T21:16:25.308Z</time>
      </trkpt>
      <trkpt lat="47.533014" lon="7.882949">
        <ele>372.925231</ele>
        <time>2021-11-21T21:16:43.223Z</time>
      </trkpt>
      <trkpt lat="47.532859" lon="7.883508">
        <ele>372.904864</ele>
        <time>2021-11-21T21:16:49.101Z</time>
      </trkpt>
      <trkpt lat="47.532713" lon="7.884122">
        <ele>372.882925</ele>
        <time>2021-11-21T21:16:54.799Z</time>
      </trkpt>
      <trkpt lat="47.532699" lon="7.884224">
        <ele>372.879417</ele>
        <time>2021-11-21T21:16:55.753Z</time>
      </trkpt>
      <trkpt lat="47.532670" lon="7.884773">
        <ele>372.667728</ele>
        <time>2021-11-21T21:17:00.246Z</time>
      </trkpt>
      <trkpt lat="47.532658" lon="7.884989">
        <ele>372.442260</ele>
        <time>2021-11-21T21:17:01.858Z</time>
      </trkpt>
      <trkpt lat="47.532650" lon="7.885569">
        <ele>371.838751</ele>
        <time>2021-11-21T21:17:06.361Z</time>
      </trkpt>
      <trkpt lat="47.532505" lon="7.887120">
        <ele>370.209824</ele>
        <time>2021-11-21T21:17:18.312Z</time>
      </trkpt>
      <trkpt lat="47.532288" lon="7.887728">
        <ele>369.466870</ele>
        <time>2021-11-21T21:17:23.489Z</time>
      </trkpt>
      <trkpt lat="47.532011" lon="7.888896">
        <ele>368.120111</ele>
        <time>2021-11-21T21:17:32.718Z</time>
      </trkpt>
      <trkpt lat="47.531843" lon="7.889349">
        <ele>367.557847</ele>
        <time>2021-11-21T21:17:36.755Z</time>
      </trkpt>
      <trkpt lat="47.531560" lon="7.889776">
        <ele>367.190639</ele>
        <time>2021-11-21T21:17:41.695Z</time>
      </trkpt>
      <trkpt lat="47.531265" lon="7.889937">
        <ele>367.178089</ele>
        <time>2021-11-21T21:17:45.663Z</time>
      </trkpt>
      <trkpt lat="47.531076" lon="7.890029">
        <ele>367.170148</ele>
        <time>2021-11-21T21:17:48.505Z</time>
      </trkpt>
      <trkpt lat="47.530606" lon="7.890373">
        <ele>367.149220</ele>
        <time>2021-11-21T21:17:56.353Z</time>
      </trkpt>
      <trkpt lat="47.530322" lon="7.890690">
        <ele>367.135024</ele>
        <time>2021-11-21T21:18:02.347Z</time>
      </trkpt>
      <trkpt lat="47.529972" lon="7.891210">
        <ele>367.408279</ele>
        <time>2021-11-21T21:18:11.509Z</time>
      </trkpt>
      <trkpt lat="47.529714" lon="7.891609">
        <ele>367.796907</ele>
        <time>2021-11-21T21:18:18.842Z</time>
      </trkpt>
      <trkpt lat="47.529695" lon="7.891638">
        <ele>367.825333</ele>
        <time>2021-11-21T21:18:19.829Z</time>
      </trkpt>
      <trkpt lat="47.529235" lon="7.892158">
        <ele>368.428232</ele>
        <time>2021-11-21T21:18:30.762Z</time>
      </trkpt>
      <trkpt lat="47.528331" lon="7.892682">
        <ele>369.606124</ele>
        <time>2021-11-21T21:18:49.465Z</time>
      </trkpt>
      <trkpt lat="47.528003" lon="7.892732">
        <ele>370.079745</ele>
        <time>2021-11-21T21:18:55.171Z</time>
      </trkpt>
      <trkpt lat="47.527498" lon="7.892650">
        <ele>370.809462</ele>
        <time>2021-11-21T21:19:04.644Z</time>
      </trkpt>
      <trkpt lat="47.527011" lon="7.893061">
        <ele>371.643607</ele>
        <time>2021-11-21T21:19:17.836Z</time>
      </trkpt>
      <trkpt lat="47.526709" lon="7.893617">
        <ele>372.981294</ele>
        <time>2021-11-21T21:19:30.368Z</time>
      </trkpt>
      <trkpt lat="47.526504" lon="7.894030">
        <ele>373.942216</ele>
        <time>2021-11-21T21:19:40.549Z</time>
      </trkpt>
      <trkpt lat="47.526451" lon="7.893983">
        <ele>374.113723</ele>
        <time>2021-11-21T21:19:41.938Z</time>
      </trkpt>
      <trkpt lat="47.526401" lon="7.893964">
        <ele>374.257034</ele>
        <time>2021-11-21T21:19:42.756Z</time>
      </trkpt>
      <trkpt lat="47.526335" lon="7.893960">
        <ele>374.440423</ele>
        <time>2021-11-21T21:19:44.830Z</time>
      </trkpt>
      <trkpt lat="47.526257" lon="7.894278">
        <ele>375.074687</ele>
        <time>2021-11-21T21:19:51.041Z</time>
      </trkpt>
      <trkpt lat="47.525725" lon="7.895110">
        <ele>376.953936</ele>
        <time>2021-11-21T21:20:10.124Z</time>
      </trkpt>
      <trkpt lat="47.525603" lon="7.895265">
        <ele>377.214413</ele>
        <time>2021-11-21T21:20:15.740Z</time>
      </trkpt>
      <trkpt lat="47.525631" lon="7.895442">
        <ele>377.413334</ele>
        <time>2021-11-21T21:20:18.589Z</time>
      </trkpt>
      <trkpt lat="47.525631" lon="7.895583">
        <ele>377.567619</ele>
        <time>2021-11-21T21:20:19.781Z</time>
      </trkpt>
      <trkpt lat="47.525622" lon="7.895944">
        <ele>377.962901</ele>
        <time>2021-11-21T21:20:27.216Z</time>
      </trkpt>
      <trkpt lat="47.525590" lon="7.896117">
        <ele>378.159175</ele>
        <time>2021-11-21T21:20:28.769Z</time>
      </trkpt>
      <trkpt lat="47.525518" lon="7.896336">
        <ele>378.425703</ele>
        <time>2021-11-21T21:20:33.576Z</time>
      </trkpt>
      <trkpt lat="47.524834" lon="7.897636">
        <ele>379.481849</ele>
        <time>2021-11-21T21:20:50.500Z</time>
      </trkpt>
      <trkpt lat="47.524617" lon="7.898216">
        <ele>379.472234</ele>
        <time>2021-11-21T21:20:56.673Z</time>
      </trkpt>
      <trkpt lat="47.524360" lon="7.898951">
        <ele>379.460232</ele>
        <time>2021-11-21T21:21:04.214Z</time>
      </trkpt>
      <trkpt lat="47.524309" lon="7.899115">
        <ele>379.457614</ele>
        <time>2021-11-21T21:21:06.128Z</time>
      </trkpt>
      <trkpt lat="47.523896" lon="7.900001">
        <ele>380.258199</ele>
        <time>2021-11-21T21:21:18.051Z</time>
      </trkpt>
      <trkpt lat="47.523861" lon="7.900049">
        <ele>380.333217</ele>
        <time>2021-11-21T21:21:19.030Z</time>
      </trkpt>
      <trkpt lat="47.523890" lon="7.900131">
        <ele>380.431515</ele>
        <time>2021-11-21T21:21:19.985Z</time>
      </trkpt>
      <trkpt lat="47.523945" lon="7.900256">
        <ele>380.589949</ele>
        <time>2021-11-21T21:21:21.576Z</time>
      </trkpt>
      <trkpt lat="47.523989" lon="7.900340">
        <ele>380.702842</ele>
        <time>2021-11-21T21:21:22.626Z</time>
      </trkpt>
      <trkpt lat="47.523957" lon="7.900371">
        <ele>380.762976</ele>
        <time>2021-11-21T21:21:23.331Z</time>
      </trkpt>
      <trkpt lat="47.523878" lon="7.900445">
        <ele>380.909978</ele>
        <time>2021-11-21T21:21:25.447Z</time>
      </trkpt>
      <trkpt lat="47.523739" lon="7.900557">
        <ele>381.158829</ele>
        <time>2021-11-21T21:21:28.379Z</time>
      </trkpt>
      <trkpt lat="47.523648" lon="7.900606">
        <ele>381.311101</ele>
        <time>2021-11-21T21:21:30.558Z</time>
      </trkpt>
      <trkpt lat="47.523620" lon="7.900698">
        <ele>381.418264</ele>
        <time>2021-11-21T21:21:32.521Z</time>
      </trkpt>
      <trkpt lat="47.523567" lon="7.900820">
        <ele>381.572315</ele>
        <time>2021-11-21T21:21:34.618Z</time>
      </trkpt>
      <trkpt lat="47.523433" lon="7.901043">
        <ele>381.889310</ele>
        <time>2021-11-21T21:21:39.862Z</time>
      </trkpt>
      <trkpt lat="47.523340" lon="7.901197">
        <ele>382.108706</ele>
        <time>2021-11-21T21:21:43.905Z</time>
      </trkpt>
      <trkpt lat="47.523036" lon="7.901580">
        <ele>383.464646</ele>
        <time>2021-11-21T21:21:55.600Z</time>
      </trkpt>
      <trkpt lat="47.522688" lon="7.901843">
        <ele>385.062753</ele>
        <time>2021-11-21T21:22:07.918Z</time>
      </trkpt>
      <trkpt lat="47.522554" lon="7.901999">
        <ele>385.759964</ele>
        <time>2021-11-21T21:22:14.239Z</time>
      </trkpt>
      <trkpt lat="47.522260" lon="7.902356">
        <ele>387.315147</ele>
        <time>2021-11-21T21:22:26.613Z</time>
      </trkpt>
      <trkpt lat="47.522132" lon="7.902476">
        <ele>387.934820</ele>
        <time>2021-11-21T21:22:31.170Z</time>
      </trkpt>
      <trkpt lat="47.522065" lon="7.902526">
        <ele>388.241709</ele>
        <time>2021-11-21T21:22:33.365Z</time>
      </trkpt>
      <trkpt lat="47.522038" lon="7.902562">
        <ele>388.390321</ele>
        <time>2021-11-21T21:22:34.869Z</time>
      </trkpt>
      <trkpt lat="47.522013" lon="7.902637">
        <ele>388.621353</ele>
        <time>2021-11-21T21:22:37.002Z</time>
      </trkpt>
      <trkpt lat="47.521792" lon="7.903347">
        <ele>390.489088</ele>
        <time>2021-11-21T21:22:53.071Z</time>
      </trkpt>
      <trkpt lat="47.521297" lon="7.904312">
        <ele>392.981413</ele>
        <time>2021-11-21T21:23:17.073Z</time>
      </trkpt>
      <trkpt lat="47.520989" lon="7.905130">
        <ele>394.907621</ele>
        <time>2021-11-21T21:23:32.487Z</time>
      </trkpt>
      <trkpt lat="47.520678" lon="7.906050">
        <ele>395.518306</ele>
        <time>2021-11-21T21:23:45.958Z</time>
      </trkpt>
      <trkpt lat="47.520566" lon="7.906668">
        <ele>395.795615</ele>
        <time>2021-11-21T21:23:52.977Z</time>
      </trkpt>
      <trkpt lat="47.520528" lon="7.906930">
        <ele>395.911751</ele>
        <time>2021-11-21T21:23:56.237Z</time>
      </trkpt>
      <trkpt lat="47.520515" lon="7.907103">
        <ele>395.987190</ele>
        <time>2021-11-21T21:23:58.035Z</time>
      </trkpt>
      <trkpt lat="47.520506" lon="7.907236">
        <ele>396.045119</ele>
        <time>2021-11-21T21:23:59.111Z</time>
      </trkpt>
      <trkpt lat="47.520551" lon="7.907422">
        <ele>396.130745</ele>
        <time>2021-11-21T21:24:01.521Z</time>
      </trkpt>
      <trkpt lat="47.520733" lon="7.907655">
        <ele>396.274639</ele>
        <time>2021-11-21T21:24:04.708Z</time>
      </trkpt>
      <trkpt lat="47.520738" lon="7.907839">
        <ele>396.296413</ele>
        <time>2021-11-21T21:24:06.851Z</time>
      </trkpt>
      <trkpt lat="47.520493" lon="7.908683">
        <ele>396.405040</ele>
        <time>2021-11-21T21:24:15.030Z</time>
      </trkpt>
      <trkpt lat="47.519997" lon="7.910833">
        <ele>397.083458</ele>
        <time>2021-11-21T21:24:40.977Z</time>
      </trkpt>
      <trkpt lat="47.519891" lon="7.911129">
        <ele>397.307413</ele>
        <time>2021-11-21T21:24:45.567Z</time>
      </trkpt>
      <trkpt lat="47.519720" lon="7.911522">
        <ele>397.619916</ele>
        <time>2021-11-21T21:24:51.651Z</time>
      </trkpt>
      <trkpt lat="47.519421" lon="7.912098">
        <ele>398.105539</ele>
        <time>2021-11-21T21:25:01.217Z</time>
      </trkpt>
      <trkpt lat="47.517688" lon="7.914418">
        <ele>400.562846</ele>
        <time>2021-11-21T21:25:45.796Z</time>
      </trkpt>
      <trkpt lat="47.517281" lon="7.915238">
        <ele>401.219256</ele>
        <time>2021-11-21T21:25:58.810Z</time>
      </trkpt>
      <trkpt lat="47.517140" lon="7.915259">
        <ele>401.354603</ele>
        <time>2021-11-21T21:26:01.310Z</time>
      </trkpt>
      <trkpt lat="47.516806" lon="7.914896">
        <ele>401.750316</ele>
        <time>2021-11-21T21:26:08.885Z</time>
      </trkpt>
      <trkpt lat="47.516748" lon="7.914873">
        <ele>401.807664</ele>
        <time>2021-11-21T21:26:10.056Z</time>
      </trkpt>
      <trkpt lat="47.516662" lon="7.914835">
        <ele>401.893381</ele>
        <time>2021-11-21T21:26:11.848Z</time>
      </trkpt>
      <trkpt lat="47.516626" lon="7.914830">
        <ele>401.927915</ele>
        <time>2021-11-21T21:26:12.543Z</time>
      </trkpt>
      <trkpt lat="47.516590" lon="7.914840">
        <ele>401.962899</ele>
        <time>2021-11-21T21:26:13.138Z</time>
      </trkpt>
      <trkpt lat="47.516569" lon="7.914864">
        <ele>401.988235</ele>
        <time>2021-11-21T21:26:13.673Z</time>
      </trkpt>
      <trkpt lat="47.516544" lon="7.914936">
        <ele>402.039205</ele>
        <time>2021-11-21T21:26:14.520Z</time>
      </trkpt>
      <trkpt lat="47.516391" lon="7.915243">
        <ele>402.271293</ele>
        <time>2021-11-21T21:26:19.312Z</time>
      </trkpt>
      <trkpt lat="47.515014" lon="7.917030">
        <ele>404.060389</ele>
        <time>2021-11-21T21:26:53.089Z</time>
      </trkpt>
      <trkpt lat="47.514635" lon="7.917349">
        <ele>404.647830</ele>
        <time>2021-11-21T21:27:01.208Z</time>
      </trkpt>
      <trkpt lat="47.514561" lon="7.917409">
        <ele>404.761515</ele>
        <time>2021-11-21T21:27:03.099Z</time>
      </trkpt>
      <trkpt lat="47.514255" lon="7.917714">
        <ele>405.258566</ele>
        <time>2021-11-21T21:27:10.568Z</time>
      </trkpt>
      <trkpt lat="47.513378" lon="7.918393">
        <ele>407.025816</ele>
        <time>2021-11-21T21:27:32.295Z</time>
      </trkpt>
      <trkpt lat="47.513160" lon="7.918764">
        <ele>407.839568</ele>
        <time>2021-11-21T21:27:39.796Z</time>
      </trkpt>
      <trkpt lat="47.513058" lon="7.918896">
        <ele>408.171483</ele>
        <time>2021-11-21T21:27:42.952Z</time>
      </trkpt>
      <trkpt lat="47.512938" lon="7.919052">
        <ele>408.562740</ele>
        <time>2021-11-21T21:27:46.731Z</time>
      </trkpt>
      <trkpt lat="47.512664" lon="7.919306">
        <ele>409.354787</ele>
        <time>2021-11-21T21:27:54.954Z</time>
      </trkpt>
      <trkpt lat="47.512255" lon="7.919538">
        <ele>410.427888</ele>
        <time>2021-11-21T21:28:06.880Z</time>
      </trkpt>
      <trkpt lat="47.512085" lon="7.919732">
        <ele>411.145148</ele>
        <time>2021-11-21T21:28:13.088Z</time>
      </trkpt>
      <trkpt lat="47.511964" lon="7.919989">
        <ele>411.868185</ele>
        <time>2021-11-21T21:28:19.568Z</time>
      </trkpt>
      <trkpt lat="47.511883" lon="7.920133">
        <ele>412.300695</ele>
        <time>2021-11-21T21:28:23.582Z</time>
      </trkpt>
      <trkpt lat="47.511632" lon="7.920105">
        <ele>413.160805</ele>
        <time>2021-11-21T21:28:32.563Z</time>
      </trkpt>
      <trkpt lat="47.511375" lon="7.920079">
        <ele>414.041033</ele>
        <time>2021-11-21T21:28:41.059Z</time>
      </trkpt>
      <trkpt lat="47.510704" lon="7.919944">
        <ele>416.354944</ele>
        <time>2021-11-21T21:29:03.567Z</time>
      </trkpt>
      <trkpt lat="47.510627" lon="7.919935">
        <ele>416.619287</ele>
        <time>2021-11-21T21:29:05.904Z</time>
      </trkpt>
      <trkpt lat="47.510551" lon="7.919925">
        <ele>416.907072</ele>
        <time>2021-11-21T21:29:09.013Z</time>
      </trkpt>
      <trkpt lat="47.509902" lon="7.920009">
        <ele>419.364289</ele>
        <time>2021-11-21T21:29:29.610Z</time>
      </trkpt>
      <trkpt lat="47.509811" lon="7.920040">
        <ele>419.716489</ele>
        <time>2021-11-21T21:29:33.595Z</time>
      </trkpt>
      <trkpt lat="47.509809" lon="7.920155">
        <ele>420.009571</ele>
        <time>2021-11-21T21:29:35.189Z</time>
      </trkpt>
      <trkpt lat="47.509746" lon="7.920320">
        <ele>420.492453</ele>
        <time>2021-11-21T21:29:38.428Z</time>
      </trkpt>
      <trkpt lat="47.509586" lon="7.920497">
        <ele>421.245807</ele>
        <time>2021-11-21T21:29:46.806Z</time>
      </trkpt>
      <trkpt lat="47.509370" lon="7.920707">
        <ele>422.220480</ele>
        <time>2021-11-21T21:29:55.114Z</time>
      </trkpt>
      <trkpt lat="47.509138" lon="7.920939">
        <ele>423.276453</ele>
        <time>2021-11-21T21:30:04.076Z</time>
      </trkpt>
      <trkpt lat="47.508613" lon="7.921495">
        <ele>426.170825</ele>
        <time>2021-11-21T21:30:23.656Z</time>
      </trkpt>
      <trkpt lat="47.508585" lon="7.921587">
        <ele>426.479023</ele>
        <time>2021-11-21T21:30:24.588Z</time>
      </trkpt>
      <trkpt lat="47.508464" lon="7.921688">
        <ele>427.107116</ele>
        <time>2021-11-21T21:30:30.895Z</time>
      </trkpt>
      <trkpt lat="47.508248" lon="7.921916">
        <ele>428.306630</ele>
        <time>2021-11-21T21:30:38.480Z</time>
      </trkpt>
      <trkpt lat="47.508175" lon="7.922172">
        <ele>429.155347</ele>
        <time>2021-11-21T21:30:45.040Z</time>
      </trkpt>
      <trkpt lat="47.508171" lon="7.922196">
        <ele>429.230848</ele>
        <time>2021-11-21T21:30:46.879Z</time>
      </trkpt>
      <trkpt lat="47.508141" lon="7.922350">
        <ele>429.720380</ele>
        <time>2021-11-21T21:30:49.452Z</time>
      </trkpt>
      <trkpt lat="47.508128" lon="7.922441">
        <ele>430.004469</ele>
        <time>2021-11-21T21:30:52.248Z</time>
      </trkpt>
      <trkpt lat="47.508064" lon="7.922687">
        <ele>430.809630</ele>
        <time>2021-11-21T21:30:58.757Z</time>
      </trkpt>
      <trkpt lat="47.507981" lon="7.923001">
        <ele>431.643166</ele>
        <time>2021-11-21T21:31:07.071Z</time>
      </trkpt>
      <trkpt lat="47.507956" lon="7.923075">
        <ele>431.734635</ele>
        <time>2021-11-21T21:31:09.062Z</time>
      </trkpt>
      <trkpt lat="47.507876" lon="7.923234">
        <ele>431.953813</ele>
        <time>2021-11-21T21:31:13.387Z</time>
      </trkpt>
      <trkpt lat="47.507823" lon="7.923307">
        <ele>432.072289</ele>
        <time>2021-11-21T21:31:15.120Z</time>
      </trkpt>
      <trkpt lat="47.507715" lon="7.923412">
        <ele>432.283750</ele>
        <time>2021-11-21T21:31:19.836Z</time>
      </trkpt>
      <trkpt lat="47.507337" lon="7.923777">
        <ele>433.022350</ele>
        <time>2021-11-21T21:31:28.210Z</time>
      </trkpt>
      <trkpt lat="47.507226" lon="7.923898">
        <ele>433.247949</ele>
        <time>2021-11-21T21:31:31.802Z</time>
      </trkpt>
      <trkpt lat="47.507191" lon="7.924066">
        <ele>433.442309</ele>
        <time>2021-11-21T21:31:33.350Z</time>
      </trkpt>
      <trkpt lat="47.506562" lon="7.924949">
        <ele>434.106837</ele>
        <time>2021-11-21T21:31:46.249Z</time>
      </trkpt>
      <trkpt lat="47.506019" lon="7.926055">
        <ele>432.661611</ele>
        <time>2021-11-21T21:31:55.948Z</time>
      </trkpt>
      <trkpt lat="47.505768" lon="7.926636">
        <ele>431.932622</ele>
        <time>2021-11-21T21:32:01.035Z</time>
      </trkpt>
      <trkpt lat="47.505699" lon="7.926906">
        <ele>431.672959</ele>
        <time>2021-11-21T21:32:03.749Z</time>
      </trkpt>
      <trkpt lat="47.505690" lon="7.927200">
        <ele>431.784421</ele>
        <time>2021-11-21T21:32:05.935Z</time>
      </trkpt>
      <trkpt lat="47.505748" lon="7.927310">
        <ele>431.837271</ele>
        <time>2021-11-21T21:32:07.694Z</time>
      </trkpt>
      <trkpt lat="47.505858" lon="7.927551">
        <ele>431.947429</ele>
        <time>2021-11-21T21:32:10.795Z</time>
      </trkpt>
      <trkpt lat="47.505881" lon="7.927601">
        <ele>431.970339</ele>
        <time>2021-11-21T21:32:11.938Z</time>
      </trkpt>
      <trkpt lat="47.505868" lon="7.927611">
        <ele>431.978553</ele>
        <time>2021-11-21T21:32:12.203Z</time>
      </trkpt>
      <trkpt lat="47.505814" lon="7.927657">
        <ele>432.013483</ele>
        <time>2021-11-21T21:32:13.473Z</time>
      </trkpt>
      <trkpt lat="47.505253" lon="7.928170">
        <ele>432.383185</ele>
        <time>2021-11-21T21:32:25.860Z</time>
      </trkpt>
      <trkpt lat="47.504799" lon="7.928777">
        <ele>432.799885</ele>
        <time>2021-11-21T21:32:36.175Z</time>
      </trkpt>
      <trkpt lat="47.504724" lon="7.928871">
        <ele>432.926502</ele>
        <time>2021-11-21T21:32:40.170Z</time>
      </trkpt>
      <trkpt lat="47.504650" lon="7.928941">
        <ele>433.039651</ele>
        <time>2021-11-21T21:32:42.142Z</time>
      </trkpt>
      <trkpt lat="47.504005" lon="7.929312">
        <ele>433.931229</ele>
        <time>2021-11-21T21:32:57.481Z</time>
      </trkpt>
      <trkpt lat="47.503815" lon="7.929426">
        <ele>434.195378</ele>
        <time>2021-11-21T21:33:00.350Z</time>
      </trkpt>
      <trkpt lat="47.503598" lon="7.929585">
        <ele>434.507346</ele>
        <time>2021-11-21T21:33:05.761Z</time>
      </trkpt>
      <trkpt lat="47.503528" lon="7.929650">
        <ele>434.613814</ele>
        <time>2021-11-21T21:33:06.820Z</time>
      </trkpt>
      <trkpt lat="47.503485" lon="7.929688">
        <ele>434.678339</ele>
        <time>2021-11-21T21:33:08.364Z</time>
      </trkpt>
      <trkpt lat="47.503014" lon="7.930220">
        <ele>435.282187</ele>
        <time>2021-11-21T21:33:18.449Z</time>
      </trkpt>
      <trkpt lat="47.502761" lon="7.930610">
        <ele>435.587786</ele>
        <time>2021-11-21T21:33:24.802Z</time>
      </trkpt>
      <trkpt lat="47.502613" lon="7.930856">
        <ele>435.773967</ele>
        <time>2021-11-21T21:33:28.600Z</time>
      </trkpt>
      <trkpt lat="47.502400" lon="7.931256">
        <ele>436.061834</ele>
        <time>2021-11-21T21:33:35.404Z</time>
      </trkpt>
      <trkpt lat="47.502023" lon="7.932158">
        <ele>436.609036</ele>
        <time>2021-11-21T21:33:48.421Z</time>
      </trkpt>
      <trkpt lat="47.501901" lon="7.932351">
        <ele>436.712389</ele>
        <time>2021-11-21T21:33:52.273Z</time>
      </trkpt>
      <trkpt lat="47.501794" lon="7.932466">
        <ele>436.788925</ele>
        <time>2021-11-21T21:33:54.093Z</time>
      </trkpt>
      <trkpt lat="47.501463" lon="7.932668">
        <ele>436.996155</ele>
        <time>2021-11-21T21:34:00.233Z</time>
      </trkpt>
      <trkpt lat="47.501075" lon="7.932885">
        <ele>437.236229</ele>
        <time>2021-11-21T21:34:07.766Z</time>
      </trkpt>
      <trkpt lat="47.500990" lon="7.932950">
        <ele>437.291605</ele>
        <time>2021-11-21T21:34:09.729Z</time>
      </trkpt>
      <trkpt lat="47.500843" lon="7.933102">
        <ele>437.395395</ele>
        <time>2021-11-21T21:34:12.472Z</time>
      </trkpt>
      <trkpt lat="47.500435" lon="7.933872">
        <ele>437.823400</ele>
        <time>2021-11-21T21:34:22.346Z</time>
      </trkpt>
      <trkpt lat="47.500386" lon="7.933937">
        <ele>437.868524</ele>
        <time>2021-11-21T21:34:23.181Z</time>
      </trkpt>
      <trkpt lat="47.500352" lon="7.933976">
        <ele>437.898023</ele>
        <time>2021-11-21T21:34:23.939Z</time>
      </trkpt>
      <trkpt lat="47.500275" lon="7.934029">
        <ele>437.956259</ele>
        <time>2021-11-21T21:34:25.092Z</time>
      </trkpt>
      <trkpt lat="47.500208" lon="7.934071">
        <ele>438.006158</ele>
        <time>2021-11-21T21:34:26.373Z</time>
      </trkpt>
      <trkpt lat="47.500193" lon="7.934023">
        <ele>438.030661</ele>
        <time>2021-11-21T21:34:26.835Z</time>
      </trkpt>
      <trkpt lat="47.500169" lon="7.933984">
        <ele>438.055103</ele>
        <time>2021-11-21T21:34:27.258Z</time>
      </trkpt>
      <trkpt lat="47.500138" lon="7.933956">
        <ele>438.080008</ele>
        <time>2021-11-21T21:34:27.776Z</time>
      </trkpt>
      <trkpt lat="47.500067" lon="7.933946">
        <ele>438.128920</ele>
        <time>2021-11-21T21:34:28.703Z</time>
      </trkpt>
      <trkpt lat="47.500034" lon="7.933965">
        <ele>438.153203</ele>
        <time>2021-11-21T21:34:29.518Z</time>
      </trkpt>
      <trkpt lat="47.499993" lon="7.933864">
        <ele>438.207796</ele>
        <time>2021-11-21T21:34:31.146Z</time>
      </trkpt>
      <trkpt lat="47.499822" lon="7.933272">
        <ele>438.506098</ele>
        <time>2021-11-21T21:34:39.023Z</time>
      </trkpt>
      <trkpt lat="47.499538" lon="7.932868">
        <ele>438.791263</ele>
        <time>2021-11-21T21:34:46.980Z</time>
      </trkpt>
      <trkpt lat="47.499421" lon="7.932805">
        <ele>439.004939</ele>
        <time>2021-11-21T21:34:50.031Z</time>
      </trkpt>
      <trkpt lat="47.499354" lon="7.932769">
        <ele>439.127270</ele>
        <time>2021-11-21T21:34:51.759Z</time>
      </trkpt>
      <trkpt lat="47.499088" lon="7.932741">
        <ele>439.584947</ele>
        <time>2021-11-21T21:34:57.636Z</time>
      </trkpt>
      <trkpt lat="47.498997" lon="7.932758">
        <ele>439.742365</ele>
        <time>2021-11-21T21:34:59.674Z</time>
      </trkpt>
      <trkpt lat="47.498925" lon="7.932781">
        <ele>439.868781</ele>
        <time>2021-11-21T21:35:01.381Z</time>
      </trkpt>
      <trkpt lat="47.498481" lon="7.933011">
        <ele>440.676118</ele>
        <time>2021-11-21T21:35:10.634Z</time>
      </trkpt>
      <trkpt lat="47.498431" lon="7.932995">
        <ele>440.763914</ele>
        <time>2021-11-21T21:35:11.857Z</time>
      </trkpt>
      <trkpt lat="47.498391" lon="7.932972">
        <ele>440.837562</ele>
        <time>2021-11-21T21:35:12.776Z</time>
      </trkpt>
      <trkpt lat="47.498196" lon="7.932613">
        <ele>441.371682</ele>
        <time>2021-11-21T21:35:19.499Z</time>
      </trkpt>
      <trkpt lat="47.498138" lon="7.932522">
        <ele>441.516742</ele>
        <time>2021-11-21T21:35:21.500Z</time>
      </trkpt>
      <trkpt lat="47.498068" lon="7.932426">
        <ele>441.680523</ele>
        <time>2021-11-21T21:35:23.947Z</time>
      </trkpt>
      <trkpt lat="47.497907" lon="7.932254">
        <ele>442.012779</ele>
        <time>2021-11-21T21:35:28.649Z</time>
      </trkpt>
      <trkpt lat="47.497676" lon="7.932013">
        <ele>442.473251</ele>
        <time>2021-11-21T21:35:35.128Z</time>
      </trkpt>
      <trkpt lat="47.497430" lon="7.931757">
        <ele>442.963212</ele>
        <time>2021-11-21T21:35:42.719Z</time>
      </trkpt>
      <trkpt lat="47.497221" lon="7.931528">
        <ele>443.386891</ele>
        <time>2021-11-21T21:35:48.716Z</time>
      </trkpt>
      <trkpt lat="47.497104" lon="7.931414">
        <ele>443.615119</ele>
        <time>2021-11-21T21:35:51.514Z</time>
      </trkpt>
      <trkpt lat="47.496998" lon="7.931330">
        <ele>443.811021</ele>
        <time>2021-11-21T21:35:53.925Z</time>
      </trkpt>
      <trkpt lat="47.496424" lon="7.931075">
        <ele>444.788031</ele>
        <time>2021-11-21T21:36:04.674Z</time>
      </trkpt>
      <trkpt lat="47.496205" lon="7.930904">
        <ele>445.252272</ele>
        <time>2021-11-21T21:36:08.667Z</time>
      </trkpt>
      <trkpt lat="47.496162" lon="7.930842">
        <ele>445.364826</ele>
        <time>2021-11-21T21:36:10.134Z</time>
      </trkpt>
      <trkpt lat="47.496117" lon="7.930763">
        <ele>445.495720</ele>
        <time>2021-11-21T21:36:11.289Z</time>
      </trkpt>
      <trkpt lat="47.496051" lon="7.930607">
        <ele>445.728883</ele>
        <time>2021-11-21T21:36:13.901Z</time>
      </trkpt>
      <trkpt lat="47.495985" lon="7.930428">
        <ele>445.987202</ele>
        <time>2021-11-21T21:36:17.077Z</time>
      </trkpt>
      <trkpt lat="47.495801" lon="7.929891">
        <ele>446.749936</ele>
        <time>2021-11-21T21:36:26.682Z</time>
      </trkpt>
      <trkpt lat="47.495622" lon="7.929400">
        <ele>447.456691</ele>
        <time>2021-11-21T21:36:35.267Z</time>
      </trkpt>
      <trkpt lat="47.495562" lon="7.929221">
        <ele>447.709816</ele>
        <time>2021-11-21T21:36:38.011Z</time>
      </trkpt>
      <trkpt lat="47.495530" lon="7.929063">
        <ele>447.918767</ele>
        <time>2021-11-21T21:36:40.881Z</time>
      </trkpt>
      <trkpt lat="47.495468" lon="7.928678">
        <ele>448.661280</ele>
        <time>2021-11-21T21:36:47.901Z</time>
      </trkpt>
      <trkpt lat="47.495455" lon="7.928595">
        <ele>448.867746</ele>
        <time>2021-11-21T21:36:49.707Z</time>
      </trkpt>
      <trkpt lat="47.495374" lon="7.928224">
        <ele>449.812558</ele>
        <time>2021-11-21T21:36:56.560Z</time>
      </trkpt>
      <trkpt lat="47.495268" lon="7.927740">
        <ele>451.045507</ele>
        <time>2021-11-21T21:37:06.379Z</time>
      </trkpt>
      <trkpt lat="47.495031" lon="7.927006">
        <ele>453.016881</ele>
        <time>2021-11-21T21:37:23.552Z</time>
      </trkpt>
      <trkpt lat="47.494945" lon="7.926765">
        <ele>453.677347</ele>
        <time>2021-11-21T21:37:29.904Z</time>
      </trkpt>
      <trkpt lat="47.494515" lon="7.925509">
        <ele>457.115526</ele>
        <time>2021-11-21T21:37:58.646Z</time>
      </trkpt>
      <trkpt lat="47.494438" lon="7.925289">
        <ele>457.722245</ele>
        <time>2021-11-21T21:38:04.079Z</time>
      </trkpt>
      <trkpt lat="47.494034" lon="7.924101">
        <ele>460.979095</ele>
        <time>2021-11-21T21:38:29.143Z</time>
      </trkpt>
      <trkpt lat="47.493708" lon="7.923049">
        <ele>463.734841</ele>
        <time>2021-11-21T21:38:50.715Z</time>
      </trkpt>
      <trkpt lat="47.493397" lon="7.921760">
        <ele>466.988778</ele>
        <time>2021-11-21T21:39:17.694Z</time>
      </trkpt>
      <trkpt lat="47.493307" lon="7.921373">
        <ele>468.113187</ele>
        <time>2021-11-21T21:39:26.188Z</time>
      </trkpt>
      <trkpt lat="47.493236" lon="7.921091">
        <ele>469.042081</ele>
        <time>2021-11-21T21:39:32.569Z</time>
      </trkpt>
      <trkpt lat="47.493132" lon="7.920716">
        <ele>470.293276</ele>
        <time>2021-11-21T21:39:41.619Z</time>
      </trkpt>
      <trkpt lat="47.492813" lon="7.919900">
        <ele>473.203164</ele>
        <time>2021-11-21T21:40:03.102Z</time>
      </trkpt>
      <trkpt lat="47.492584" lon="7.919482">
        <ele>474.864199</ele>
        <time>2021-11-21T21:40:15.875Z</time>
      </trkpt>
      <trkpt lat="47.492227" lon="7.918989">
        <ele>477.024306</ele>
        <time>2021-11-21T21:40:32.776Z</time>
      </trkpt>
      <trkpt lat="47.491324" lon="7.917985">
        <ele>481.928573</ele>
        <time>2021-11-21T21:41:09.561Z</time>
      </trkpt>
      <trkpt lat="47.490822" lon="7.917158">
        <ele>484.602466</ele>
        <time>2021-11-21T21:41:31.721Z</time>
      </trkpt>
      <trkpt lat="47.490607" lon="7.916690">
        <ele>485.691855</ele>
        <time>2021-11-21T21:41:41.919Z</time>
      </trkpt>
      <trkpt lat="47.490429" lon="7.916164">
        <ele>486.824285</ele>
        <time>2021-11-21T21:41:51.788Z</time>
      </trkpt>
      <trkpt lat="47.490283" lon="7.915612">
        <ele>487.965390</ele>
        <time>2021-11-21T21:42:01.616Z</time>
      </trkpt>
      <trkpt lat="47.489987" lon="7.914083">
        <ele>490.656409</ele>
        <time>2021-11-21T21:42:27.397Z</time>
      </trkpt>
      <trkpt lat="47.489951" lon="7.913893">
        <ele>490.978127</ele>
        <time>2021-11-21T21:42:30.391Z</time>
      </trkpt>
      <trkpt lat="47.489922" lon="7.913738">
        <ele>491.240343</ele>
        <time>2021-11-21T21:42:32.896Z</time>
      </trkpt>
      <trkpt lat="47.489843" lon="7.913398">
        <ele>491.826525</ele>
        <time>2021-11-21T21:42:38.243Z</time>
      </trkpt>
      <trkpt lat="47.489607" lon="7.912646">
        <ele>493.315474</ele>
        <time>2021-11-21T21:42:52.471Z</time>
      </trkpt>
      <trkpt lat="47.489216" lon="7.911685">
        <ele>496.218108</ele>
        <time>2021-11-21T21:43:14.785Z</time>
      </trkpt>
      <trkpt lat="47.489040" lon="7.911300">
        <ele>497.420889</ele>
        <time>2021-11-21T21:43:24.252Z</time>
      </trkpt>
      <trkpt lat="47.488908" lon="7.911009">
        <ele>498.327804</ele>
        <time>2021-11-21T21:43:32.813Z</time>
      </trkpt>
      <trkpt lat="47.488699" lon="7.910498">
        <ele>499.870416</ele>
        <time>2021-11-21T21:43:46.476Z</time>
      </trkpt>
      <trkpt lat="47.488366" lon="7.909318">
        <ele>502.937563</ele>
        <time>2021-11-21T21:44:12.349Z</time>
      </trkpt>
      <trkpt lat="47.488241" lon="7.908835">
        <ele>504.178109</ele>
        <time>2021-11-21T21:44:21.535Z</time>
      </trkpt>
      <trkpt lat="47.488185" lon="7.908663">
        <ele>504.636045</ele>
        <time>2021-11-21T21:44:25.587Z</time>
      </trkpt>
      <trkpt lat="47.488080" lon="7.908344">
        <ele>505.487121</ele>
        <time>2021-11-21T21:44:31.548Z</time>
      </trkpt>
      <trkpt lat="47.487763" lon="7.907711">
        <ele>507.359003</ele>
        <time>2021-11-21T21:44:46.605Z</time>
      </trkpt>
      <trkpt lat="47.487587" lon="7.907459">
        <ele>508.214861</ele>
        <time>2021-11-21T21:44:53.065Z</time>
      </trkpt>
      <trkpt lat="47.487378" lon="7.907191">
        <ele>509.181332</ele>
        <time>2021-11-21T21:45:00.264Z</time>
      </trkpt>
      <trkpt lat="47.487197" lon="7.906946">
        <ele>510.038593</ele>
        <time>2021-11-21T21:45:06.405Z</time>
      </trkpt>
      <trkpt lat="47.486969" lon="7.906583">
        <ele>511.208981</ele>
        <time>2021-11-21T21:45:14.714Z</time>
      </trkpt>
      <trkpt lat="47.486769" lon="7.905976">
        <ele>513.013223</ele>
        <time>2021-11-21T21:45:30.743Z</time>
      </trkpt>
      <trkpt lat="47.486724" lon="7.905485">
        <ele>514.996585</ele>
        <time>2021-11-21T21:45:43.415Z</time>
      </trkpt>
      <trkpt lat="47.486755" lon="7.904487">
        <ele>518.995586</ele>
        <time>2021-11-21T21:46:10.281Z</time>
      </trkpt>
      <trkpt lat="47.486721" lon="7.904326">
        <ele>519.670771</ele>
        <time>2021-11-21T21:46:15.297Z</time>
      </trkpt>
      <trkpt lat="47.486688" lon="7.904238">
        <ele>520.073618</ele>
        <time>2021-11-21T21:46:18.451Z</time>
      </trkpt>
      <trkpt lat="47.486480" lon="7.904016">
        <ele>521.592706</ele>
        <time>2021-11-21T21:46:27.555Z</time>
      </trkpt>
      <trkpt lat="47.486247" lon="7.904043">
        <ele>522.977079</ele>
        <time>2021-11-21T21:46:36.223Z</time>
      </trkpt>
      <trkpt lat="47.486049" lon="7.904262">
        <ele>524.121423</ele>
        <time>2021-11-21T21:46:47.618Z</time>
      </trkpt>
      <trkpt lat="47.485593" lon="7.905145">
        <ele>527.462281</ele>
        <time>2021-11-21T21:47:17.385Z</time>
      </trkpt>
      <trkpt lat="47.485331" lon="7.905337">
        <ele>528.762898</ele>
        <time>2021-11-21T21:47:25.969Z</time>
      </trkpt>
      <trkpt lat="47.485073" lon="7.905345">
        <ele>529.910880</ele>
        <time>2021-11-21T21:47:32.581Z</time>
      </trkpt>
      <trkpt lat="47.485049" lon="7.905336">
        <ele>530.021021</ele>
        <time>2021-11-21T21:47:34.178Z</time>
      </trkpt>
      <trkpt lat="47.484936" lon="7.905289">
        <ele>530.543189</ele>
        <time>2021-11-21T21:47:36.807Z</time>
      </trkpt>
      <trkpt lat="47.484713" lon="7.905133">
        <ele>530.905968</ele>
        <time>2021-11-21T21:47:42.427Z</time>
      </trkpt>
      <trkpt lat="47.484481" lon="7.904947">
        <ele>530.293208</ele>
        <time>2021-11-21T21:47:45.804Z</time>
      </trkpt>
      <trkpt lat="47.484248" lon="7.904856">
        <ele>529.733590</ele>
        <time>2021-11-21T21:47:48.832Z</time>
      </trkpt>
      <trkpt lat="47.484124" lon="7.904824">
        <ele>529.441283</ele>
        <time>2021-11-21T21:47:50.309Z</time>
      </trkpt>
      <trkpt lat="47.484064" lon="7.904808">
        <ele>529.299702</ele>
        <time>2021-11-21T21:47:50.978Z</time>
      </trkpt>
      <trkpt lat="47.484005" lon="7.904793">
        <ele>529.160681</ele>
        <time>2021-11-21T21:47:51.710Z</time>
      </trkpt>
      <trkpt lat="47.483385" lon="7.904708">
        <ele>527.714709</ele>
        <time>2021-11-21T21:47:58.164Z</time>
      </trkpt>
      <trkpt lat="47.483329" lon="7.904705">
        <ele>527.584577</ele>
        <time>2021-11-21T21:47:58.671Z</time>
      </trkpt>
      <trkpt lat="47.483101" lon="7.904680">
        <ele>527.053649</ele>
        <time>2021-11-21T21:48:00.800Z</time>
      </trkpt>
      <trkpt lat="47.482433" lon="7.904538">
        <ele>522.536084</ele>
        <time>2021-11-21T21:48:06.771Z</time>
      </trkpt>
      <trkpt lat="47.482157" lon="7.904346">
        <ele>520.429674</ele>
        <time>2021-11-21T21:48:09.485Z</time>
      </trkpt>
      <trkpt lat="47.481709" lon="7.903892">
        <ele>516.679357</ele>
        <time>2021-11-21T21:48:14.324Z</time>
      </trkpt>
      <trkpt lat="47.481588" lon="7.903776">
        <ele>515.683570</ele>
        <time>2021-11-21T21:48:15.610Z</time>
      </trkpt>
      <trkpt lat="47.481478" lon="7.903693">
        <ele>514.830751</ele>
        <time>2021-11-21T21:48:16.742Z</time>
      </trkpt>
      <trkpt lat="47.480980" lon="7.903461">
        <ele>511.931919</ele>
        <time>2021-11-21T21:48:21.573Z</time>
      </trkpt>
      <trkpt lat="47.478367" lon="7.903166">
        <ele>497.552340</ele>
        <time>2021-11-21T21:48:46.205Z</time>
      </trkpt>
      <trkpt lat="47.478182" lon="7.903109">
        <ele>496.506749</ele>
        <time>2021-11-21T21:48:47.949Z</time>
      </trkpt>
      <trkpt lat="47.478118" lon="7.903075">
        <ele>496.130493</ele>
        <time>2021-11-21T21:48:48.547Z</time>
      </trkpt>
      <trkpt lat="47.476982" lon="7.902234">
        <ele>488.263289</ele>
        <time>2021-11-21T21:49:00.041Z</time>
      </trkpt>
      <trkpt lat="47.476536" lon="7.901977">
        <ele>485.226459</ele>
        <time>2021-11-21T21:49:04.408Z</time>
      </trkpt>
      <trkpt lat="47.476364" lon="7.901870">
        <ele>484.042608</ele>
        <time>2021-11-21T21:49:06.103Z</time>
      </trkpt>
      <trkpt lat="47.475300" lon="7.901112">
        <ele>477.315268</ele>
        <time>2021-11-21T21:49:17.012Z</time>
      </trkpt>
      <trkpt lat="47.475163" lon="7.901034">
        <ele>476.487854</ele>
        <time>2021-11-21T21:49:18.338Z</time>
      </trkpt>
      <trkpt lat="47.474888" lon="7.900841">
        <ele>474.772241</ele>
        <time>2021-11-21T21:49:21.191Z</time>
      </trkpt>
      <trkpt lat="47.474617" lon="7.900560">
        <ele>472.959676</ele>
        <time>2021-11-21T21:49:24.320Z</time>
      </trkpt>
      <trkpt lat="47.474336" lon="7.900125">
        <ele>471.001669</ele>
        <time>2021-11-21T21:49:28.162Z</time>
      </trkpt>
      <trkpt lat="47.474186" lon="7.899915">
        <ele>470.007454</ele>
        <time>2021-11-21T21:49:30.097Z</time>
      </trkpt>
      <trkpt lat="47.474087" lon="7.899774">
        <ele>469.345879</ele>
        <time>2021-11-21T21:49:31.408Z</time>
      </trkpt>
      <trkpt lat="47.473931" lon="7.899567">
        <ele>468.337031</ele>
        <time>2021-11-21T21:49:33.368Z</time>
      </trkpt>
      <trkpt lat="47.473317" lon="7.898945">
        <ele>464.754495</ele>
        <time>2021-11-21T21:49:40.608Z</time>
      </trkpt>
      <trkpt lat="47.471910" lon="7.898392">
        <ele>457.202546</ele>
        <time>2021-11-21T21:49:54.202Z</time>
      </trkpt>
      <trkpt lat="47.471825" lon="7.898370">
        <ele>456.754233</ele>
        <time>2021-11-21T21:49:54.989Z</time>
      </trkpt>
      <trkpt lat="47.471597" lon="7.898344">
        <ele>455.566177</ele>
        <time>2021-11-21T21:49:57.142Z</time>
      </trkpt>
      <trkpt lat="47.471002" lon="7.898222">
        <ele>452.760965</ele>
        <time>2021-11-21T21:50:02.736Z</time>
      </trkpt>
      <trkpt lat="47.469999" lon="7.897879">
        <ele>448.011260</ele>
        <time>2021-11-21T21:50:12.488Z</time>
      </trkpt>
      <trkpt lat="47.469806" lon="7.897795">
        <ele>447.083052</ele>
        <time>2021-11-21T21:50:14.517Z</time>
      </trkpt>
      <trkpt lat="47.469534" lon="7.897638">
        <ele>446.437655</ele>
        <time>2021-11-21T21:50:17.602Z</time>
      </trkpt>
      <trkpt lat="47.469598" lon="7.897405">
        <ele>446.100696</ele>
        <time>2021-11-21T21:50:19.393Z</time>
      </trkpt>
      <trkpt lat="47.469652" lon="7.897139">
        <ele>445.728588</ele>
        <time>2021-11-21T21:50:21.418Z</time>
      </trkpt>
      <trkpt lat="47.469678" lon="7.896938">
        <ele>445.454405</ele>
        <time>2021-11-21T21:50:22.880Z</time>
      </trkpt>
      <trkpt lat="47.469692" lon="7.896826">
        <ele>445.301805</ele>
        <time>2021-11-21T21:50:23.777Z</time>
      </trkpt>
      <trkpt lat="47.469738" lon="7.896220">
        <ele>444.484791</ele>
        <time>2021-11-21T21:50:28.376Z</time>
      </trkpt>
      <trkpt lat="47.469747" lon="7.895922">
        <ele>444.085137</ele>
        <time>2021-11-21T21:50:30.615Z</time>
      </trkpt>
      <trkpt lat="47.469734" lon="7.895575">
        <ele>443.619518</ele>
        <time>2021-11-21T21:50:33.654Z</time>
      </trkpt>
      <trkpt lat="47.469728" lon="7.895384">
        <ele>443.388021</ele>
        <time>2021-11-21T21:50:35.250Z</time>
      </trkpt>
      <trkpt lat="47.469714" lon="7.895204">
        <ele>443.303499</ele>
        <time>2021-11-21T21:50:36.922Z</time>
      </trkpt>
      <trkpt lat="47.469691" lon="7.894970">
        <ele>443.193193</ele>
        <time>2021-11-21T21:50:39.058Z</time>
      </trkpt>
      <trkpt lat="47.469658" lon="7.894567">
        <ele>443.003824</ele>
        <time>2021-11-21T21:50:42.725Z</time>
      </trkpt>
      <trkpt lat="47.469496" lon="7.893085">
        <ele>442.303505</ele>
        <time>2021-11-21T21:50:55.940Z</time>
      </trkpt>
      <trkpt lat="47.469288" lon="7.891996">
        <ele>441.586938</ele>
        <time>2021-11-21T21:51:05.451Z</time>
      </trkpt>
      <trkpt lat="47.468951" lon="7.890216">
        <ele>440.303881</ele>
        <time>2021-11-21T21:51:20.454Z</time>
      </trkpt>
      <trkpt lat="47.468718" lon="7.888938">
        <ele>439.669498</ele>
        <time>2021-11-21T21:51:31.333Z</time>
      </trkpt>
      <trkpt lat="47.468546" lon="7.888014">
        <ele>439.210174</ele>
        <time>2021-11-21T21:51:39.659Z</time>
      </trkpt>
      <trkpt lat="47.468250" lon="7.886308">
        <ele>440.115440</ele>
        <time>2021-11-21T21:51:57.930Z</time>
      </trkpt>
      <trkpt lat="47.468174" lon="7.885724">
        <ele>440.576602</ele>
        <time>2021-11-21T21:52:06.801Z</time>
      </trkpt>
      <trkpt lat="47.468160" lon="7.885412">
        <ele>440.819066</ele>
        <time>2021-11-21T21:52:11.884Z</time>
      </trkpt>
      <trkpt lat="47.468160" lon="7.885208">
        <ele>440.977252</ele>
        <time>2021-11-21T21:52:15.082Z</time>
      </trkpt>
      <trkpt lat="47.468160" lon="7.885131">
        <ele>441.036960</ele>
        <time>2021-11-21T21:52:16.529Z</time>
      </trkpt>
      <trkpt lat="47.468170" lon="7.884753">
        <ele>441.730561</ele>
        <time>2021-11-21T21:52:22.632Z</time>
      </trkpt>
      <trkpt lat="47.468175" lon="7.884477">
        <ele>442.312705</ele>
        <time>2021-11-21T21:52:28.368Z</time>
      </trkpt>
      <trkpt lat="47.468085" lon="7.883534">
        <ele>444.320703</ele>
        <time>2021-11-21T21:52:47.854Z</time>
      </trkpt>
      <trkpt lat="47.467832" lon="7.882502">
        <ele>446.635311</ele>
        <time>2021-11-21T21:53:09.439Z</time>
      </trkpt>
      <trkpt lat="47.467789" lon="7.882188">
        <ele>446.277121</ele>
        <time>2021-11-21T21:53:15.076Z</time>
      </trkpt>
      <trkpt lat="47.467755" lon="7.881902">
        <ele>445.840400</ele>
        <time>2021-11-21T21:53:19.199Z</time>
      </trkpt>
      <trkpt lat="47.467712" lon="7.880819">
        <ele>444.208845</ele>
        <time>2021-11-21T21:53:27.951Z</time>
      </trkpt>
      <trkpt lat="47.467695" lon="7.879712">
        <ele>442.145658</ele>
        <time>2021-11-21T21:53:34.820Z</time>
      </trkpt>
      <trkpt lat="47.467758" lon="7.879308">
        <ele>439.994532</ele>
        <time>2021-11-21T21:53:37.306Z</time>
      </trkpt>
      <trkpt lat="47.467814" lon="7.879126">
        <ele>438.957047</ele>
        <time>2021-11-21T21:53:38.475Z</time>
      </trkpt>
      <trkpt lat="47.467908" lon="7.878819">
        <ele>437.208469</ele>
        <time>2021-11-21T21:53:40.503Z</time>
      </trkpt>
      <trkpt lat="47.468067" lon="7.878427">
        <ele>434.836643</ele>
        <time>2021-11-21T21:53:43.280Z</time>
      </trkpt>
      <trkpt lat="47.468104" lon="7.878354">
        <ele>434.363263</ele>
        <time>2021-11-21T21:53:43.790Z</time>
      </trkpt>
      <trkpt lat="47.468268" lon="7.878083">
        <ele>432.476147</ele>
        <time>2021-11-21T21:53:45.995Z</time>
      </trkpt>
      <trkpt lat="47.468308" lon="7.877998">
        <ele>431.938810</ele>
        <time>2021-11-21T21:53:46.634Z</time>
      </trkpt>
      <trkpt lat="47.468327" lon="7.877957">
        <ele>431.680908</ele>
        <time>2021-11-21T21:53:46.912Z</time>
      </trkpt>
      <trkpt lat="47.468377" lon="7.877826">
        <ele>430.900394</ele>
        <time>2021-11-21T21:53:47.789Z</time>
      </trkpt>
      <trkpt lat="47.468557" lon="7.876917">
        <ele>427.277267</ele>
        <time>2021-11-21T21:53:53.458Z</time>
      </trkpt>
      <trkpt lat="47.468639" lon="7.876439">
        <ele>425.851830</ele>
        <time>2021-11-21T21:53:56.654Z</time>
      </trkpt>
      <trkpt lat="47.468698" lon="7.876140">
        <ele>424.951515</ele>
        <time>2021-11-21T21:53:58.754Z</time>
      </trkpt>
      <trkpt lat="47.468806" lon="7.875696">
        <ele>423.587597</ele>
        <time>2021-11-21T21:54:02.033Z</time>
      </trkpt>
      <trkpt lat="47.468925" lon="7.875205">
        <ele>422.079928</ele>
        <time>2021-11-21T21:54:05.963Z</time>
      </trkpt>
      <trkpt lat="47.468989" lon="7.874967">
        <ele>421.339571</ele>
        <time>2021-11-21T21:54:07.755Z</time>
      </trkpt>
      <trkpt lat="47.469050" lon="7.874738">
        <ele>420.948073</ele>
        <time>2021-11-21T21:54:09.639Z</time>
      </trkpt>
      <trkpt lat="47.469068" lon="7.874689">
        <ele>420.875405</ele>
        <time>2021-11-21T21:54:10.072Z</time>
      </trkpt>
      <trkpt lat="47.469097" lon="7.874606">
        <ele>420.753659</ele>
        <time>2021-11-21T21:54:10.707Z</time>
      </trkpt>
      <trkpt lat="47.469136" lon="7.874516">
        <ele>420.614357</ele>
        <time>2021-11-21T21:54:11.462Z</time>
      </trkpt>
      <trkpt lat="47.469173" lon="7.874432">
        <ele>420.483715</ele>
        <time>2021-11-21T21:54:12.214Z</time>
      </trkpt>
      <trkpt lat="47.469224" lon="7.874328">
        <ele>420.316295</ele>
        <time>2021-11-21T21:54:13.257Z</time>
      </trkpt>
      <trkpt lat="47.469422" lon="7.873965">
        <ele>419.708507</ele>
        <time>2021-11-21T21:54:16.705Z</time>
      </trkpt>
      <trkpt lat="47.469489" lon="7.873809">
        <ele>419.467674</ele>
        <time>2021-11-21T21:54:18.146Z</time>
      </trkpt>
      <trkpt lat="47.469626" lon="7.873477">
        <ele>418.960830</ele>
        <time>2021-11-21T21:54:21.022Z</time>
      </trkpt>
      <trkpt lat="47.469682" lon="7.873326">
        <ele>418.736405</ele>
        <time>2021-11-21T21:54:22.362Z</time>
      </trkpt>
      <trkpt lat="47.469710" lon="7.873249">
        <ele>418.622475</ele>
        <time>2021-11-21T21:54:22.944Z</time>
      </trkpt>
      <trkpt lat="47.469969" lon="7.872276">
        <ele>417.341804</ele>
        <time>2021-11-21T21:54:30.929Z</time>
      </trkpt>
      <trkpt lat="47.470156" lon="7.871491">
        <ele>416.440973</ele>
        <time>2021-11-21T21:54:37.230Z</time>
      </trkpt>
      <trkpt lat="47.470217" lon="7.871214">
        <ele>416.125665</ele>
        <time>2021-11-21T21:54:39.392Z</time>
      </trkpt>
      <trkpt lat="47.470245" lon="7.871088">
        <ele>415.982113</ele>
        <time>2021-11-21T21:54:40.390Z</time>
      </trkpt>
      <trkpt lat="47.470316" lon="7.870753">
        <ele>415.602135</ele>
        <time>2021-11-21T21:54:43.266Z</time>
      </trkpt>
      <trkpt lat="47.470333" lon="7.870669">
        <ele>415.507234</ele>
        <time>2021-11-21T21:54:43.882Z</time>
      </trkpt>
      <trkpt lat="47.470350" lon="7.870570">
        <ele>415.396682</ele>
        <time>2021-11-21T21:54:44.676Z</time>
      </trkpt>
      <trkpt lat="47.470379" lon="7.870338">
        <ele>415.141329</ele>
        <time>2021-11-21T21:54:46.678Z</time>
      </trkpt>
      <trkpt lat="47.470379" lon="7.870338">
        <ele>415.141329</ele>
        <time>2021-11-21T21:54:46.679Z</time>
      </trkpt>
      <trkpt lat="47.470397" lon="7.870147">
        <ele>414.932609</ele>
        <time>2021-11-21T21:54:48.772Z</time>
      </trkpt>
      <trkpt lat="47.470384" lon="7.869803">
        <ele>414.721301</ele>
        <time>2021-11-21T21:54:52.837Z</time>
      </trkpt>
      <trkpt lat="47.470378" lon="7.869626">
        <ele>414.631429</ele>
        <time>2021-11-21T21:54:54.802Z</time>
      </trkpt>
      <trkpt lat="47.470309" lon="7.869201">
        <ele>414.409776</ele>
        <time>2021-11-21T21:55:00.165Z</time>
      </trkpt>
      <trkpt lat="47.470234" lon="7.868884">
        <ele>414.239458</ele>
        <time>2021-11-21T21:55:04.183Z</time>
      </trkpt>
      <trkpt lat="47.470127" lon="7.868484">
        <ele>414.021306</ele>
        <time>2021-11-21T21:55:09.587Z</time>
      </trkpt>
      <trkpt lat="47.469915" lon="7.867494">
        <ele>413.484133</ele>
        <time>2021-11-21T21:55:22.750Z</time>
      </trkpt>
      <trkpt lat="47.469808" lon="7.866690">
        <ele>412.846893</ele>
        <time>2021-11-21T21:55:32.473Z</time>
      </trkpt>
      <trkpt lat="47.469764" lon="7.866452">
        <ele>412.655013</ele>
        <time>2021-11-21T21:55:35.484Z</time>
      </trkpt>
      <trkpt lat="47.469710" lon="7.866208">
        <ele>412.455354</ele>
        <time>2021-11-21T21:55:38.451Z</time>
      </trkpt>
      <trkpt lat="47.469629" lon="7.865918">
        <ele>412.211338</ele>
        <time>2021-11-21T21:55:42.206Z</time>
      </trkpt>
      <trkpt lat="47.469305" lon="7.864692">
        <ele>411.042417</ele>
        <time>2021-11-21T21:55:56.605Z</time>
      </trkpt>
      <trkpt lat="47.469011" lon="7.863405">
        <ele>409.390256</ele>
        <time>2021-11-21T21:56:11.316Z</time>
      </trkpt>
      <trkpt lat="47.468986" lon="7.863323">
        <ele>409.280857</ele>
        <time>2021-11-21T21:56:12.172Z</time>
      </trkpt>
      <trkpt lat="47.468943" lon="7.863195">
        <ele>409.107024</ele>
        <time>2021-11-21T21:56:13.720Z</time>
      </trkpt>
      <trkpt lat="47.468859" lon="7.862978">
        <ele>408.802908</ele>
        <time>2021-11-21T21:56:16.483Z</time>
      </trkpt>
      <trkpt lat="47.468825" lon="7.862900">
        <ele>408.690035</ele>
        <time>2021-11-21T21:56:17.460Z</time>
      </trkpt>
      <trkpt lat="47.468543" lon="7.862357">
        <ele>407.965955</ele>
        <time>2021-11-21T21:56:24.870Z</time>
      </trkpt>
      <trkpt lat="47.468224" lon="7.861805">
        <ele>407.355441</ele>
        <time>2021-11-21T21:56:33.032Z</time>
      </trkpt>
      <trkpt lat="47.467944" lon="7.861300">
        <ele>406.806359</ele>
        <time>2021-11-21T21:56:40.405Z</time>
      </trkpt>
      <trkpt lat="47.467266" lon="7.860107">
        <ele>405.626252</ele>
        <time>2021-11-21T21:56:59.116Z</time>
      </trkpt>
      <trkpt lat="47.467047" lon="7.859682">
        <ele>405.299749</ele>
        <time>2021-11-21T21:57:05.318Z</time>
      </trkpt>
      <trkpt lat="47.466922" lon="7.859398">
        <ele>405.092692</ele>
        <time>2021-11-21T21:57:09.282Z</time>
      </trkpt>
      <trkpt lat="47.466824" lon="7.859137">
        <ele>404.910278</ele>
        <time>2021-11-21T21:57:12.980Z</time>
      </trkpt>
      <trkpt lat="47.466673" lon="7.858620">
        <ele>404.566177</ele>
        <time>2021-11-21T21:57:19.535Z</time>
      </trkpt>
      <trkpt lat="47.466576" lon="7.858236">
        <ele>404.335363</ele>
        <time>2021-11-21T21:57:24.333Z</time>
      </trkpt>
      <trkpt lat="47.466518" lon="7.858022">
        <ele>404.283371</ele>
        <time>2021-11-21T21:57:26.327Z</time>
      </trkpt>
      <trkpt lat="47.466347" lon="7.856973">
        <ele>404.040040</ele>
        <time>2021-11-21T21:57:36.004Z</time>
      </trkpt>
      <trkpt lat="47.466344" lon="7.856945">
        <ele>404.033647</ele>
        <time>2021-11-21T21:57:36.195Z</time>
      </trkpt>
      <trkpt lat="47.466322" lon="7.856655">
        <ele>403.967840</ele>
        <time>2021-11-21T21:57:39.101Z</time>
      </trkpt>
      <trkpt lat="47.466310" lon="7.856541">
        <ele>403.941823</ele>
        <time>2021-11-21T21:57:40.215Z</time>
      </trkpt>
      <trkpt lat="47.466334" lon="7.856525">
        <ele>403.933042</ele>
        <time>2021-11-21T21:57:40.594Z</time>
      </trkpt>
      <trkpt lat="47.466353" lon="7.856496">
        <ele>403.923935</ele>
        <time>2021-11-21T21:57:41.062Z</time>
      </trkpt>
      <trkpt lat="47.466361" lon="7.856459">
        <ele>403.915175</ele>
        <time>2021-11-21T21:57:41.373Z</time>
      </trkpt>
      <trkpt lat="47.466359" lon="7.856420">
        <ele>403.906355</ele>
        <time>2021-11-21T21:57:41.680Z</time>
      </trkpt>
      <trkpt lat="47.466324" lon="7.856362">
        <ele>403.888823</ele>
        <time>2021-11-21T21:57:42.654Z</time>
      </trkpt>
      <trkpt lat="47.466298" lon="7.856354">
        <ele>403.879965</ele>
        <time>2021-11-21T21:57:43.008Z</time>
      </trkpt>
      <trkpt lat="47.466271" lon="7.856363">
        <ele>403.870733</ele>
        <time>2021-11-21T21:57:43.416Z</time>
      </trkpt>
      <trkpt lat="47.466237" lon="7.856421">
        <ele>403.853421</ele>
        <time>2021-11-21T21:57:44.161Z</time>
      </trkpt>
      <trkpt lat="47.466235" lon="7.856461">
        <ele>403.844376</ele>
        <time>2021-11-21T21:57:44.513Z</time>
      </trkpt>
      <trkpt lat="47.466156" lon="7.856481">
        <ele>403.817641</ele>
        <time>2021-11-21T21:57:45.711Z</time>
      </trkpt>
      <trkpt lat="47.465801" lon="7.856657">
        <ele>403.839482</ele>
        <time>2021-11-21T21:57:51.610Z</time>
      </trkpt>
      <trkpt lat="47.465748" lon="7.856649">
        <ele>403.869883</ele>
        <time>2021-11-21T21:57:52.451Z</time>
      </trkpt>
      <trkpt lat="47.465709" lon="7.856610">
        <ele>403.896747</ele>
        <time>2021-11-21T21:57:53.043Z</time>
      </trkpt>
      <trkpt lat="47.465647" lon="7.856405">
        <ele>403.983384</ele>
        <time>2021-11-21T21:57:55.736Z</time>
      </trkpt>
      <trkpt lat="47.465583" lon="7.856194">
        <ele>404.072601</ele>
        <time>2021-11-21T21:57:58.404Z</time>
      </trkpt>
      <trkpt lat="47.465550" lon="7.856132">
        <ele>404.103043</ele>
        <time>2021-11-21T21:57:59.056Z</time>
      </trkpt>
      <trkpt lat="47.465527" lon="7.856111">
        <ele>404.118467</ele>
        <time>2021-11-21T21:57:59.708Z</time>
      </trkpt>
      <trkpt lat="47.465400" lon="7.856122">
        <ele>404.191063</ele>
        <time>2021-11-21T21:58:01.829Z</time>
      </trkpt>
      <trkpt lat="47.464855" lon="7.856521">
        <ele>404.538074</ele>
        <time>2021-11-21T21:58:12.946Z</time>
      </trkpt>
      <trkpt lat="47.464813" lon="7.856540">
        <ele>404.563137</ele>
        <time>2021-11-21T21:58:13.843Z</time>
      </trkpt>
      <trkpt lat="47.464805" lon="7.856519">
        <ele>404.572436</ele>
        <time>2021-11-21T21:58:14.119Z</time>
      </trkpt>
      <trkpt lat="47.464741" lon="7.856458">
        <ele>404.615883</ele>
        <time>2021-11-21T21:58:15.334Z</time>
      </trkpt>
      <trkpt lat="47.464713" lon="7.856451">
        <ele>404.632087</ele>
        <time>2021-11-21T21:58:15.781Z</time>
      </trkpt>
      <trkpt lat="47.464688" lon="7.856453">
        <ele>404.646375</ele>
        <time>2021-11-21T21:58:16.201Z</time>
      </trkpt>
      <trkpt lat="47.464650" lon="7.856478">
        <ele>404.670107</ele>
        <time>2021-11-21T21:58:16.936Z</time>
      </trkpt>
      <trkpt lat="47.464638" lon="7.856496">
        <ele>404.679860</ele>
        <time>2021-11-21T21:58:17.323Z</time>
      </trkpt>
      <trkpt lat="47.464622" lon="7.856523">
        <ele>404.693711</ele>
        <time>2021-11-21T21:58:17.812Z</time>
      </trkpt>
      <trkpt lat="47.464610" lon="7.856554">
        <ele>404.707492</ele>
        <time>2021-11-21T21:58:18.156Z</time>
      </trkpt>
      <trkpt lat="47.464600" lon="7.856587">
        <ele>404.721444</ele>
        <time>2021-11-21T21:58:18.586Z</time>
      </trkpt>
      <trkpt lat="47.464530" lon="7.856598">
        <ele>404.761614</ele>
        <time>2021-11-21T21:58:19.977Z</time>
      </trkpt>
      <trkpt lat="47.463900" lon="7.856772">
        <ele>405.164872</ele>
        <time>2021-11-21T21:58:30.907Z</time>
      </trkpt>
      <trkpt lat="47.463826" lon="7.856840">
        <ele>405.219856</ele>
        <time>2021-11-21T21:58:32.429Z</time>
      </trkpt>
      <trkpt lat="47.463762" lon="7.856925">
        <ele>405.274143</ele>
        <time>2021-11-21T21:58:33.959Z</time>
      </trkpt>
      <trkpt lat="47.463161" lon="7.858061">
        <ele>405.889643</ele>
        <time>2021-11-21T21:58:50.488Z</time>
      </trkpt>
      <trkpt lat="47.463081" lon="7.858188">
        <ele>406.020186</ele>
        <time>2021-11-21T21:58:52.786Z</time>
      </trkpt>
      <trkpt lat="47.462979" lon="7.858360">
        <ele>406.217640</ele>
        <time>2021-11-21T21:58:55.527Z</time>
      </trkpt>
      <trkpt lat="47.462764" lon="7.858828">
        <ele>406.705961</ele>
        <time>2021-11-21T21:59:02.676Z</time>
      </trkpt>
      <trkpt lat="47.462720" lon="7.858959">
        <ele>406.832201</ele>
        <time>2021-11-21T21:59:04.650Z</time>
      </trkpt>
      <trkpt lat="47.462691" lon="7.859060">
        <ele>406.926903</ele>
        <time>2021-11-21T21:59:06.128Z</time>
      </trkpt>
      <trkpt lat="47.462623" lon="7.859309">
        <ele>407.158666</ele>
        <time>2021-11-21T21:59:09.664Z</time>
      </trkpt>
      <trkpt lat="47.462535" lon="7.859721">
        <ele>407.531558</ele>
        <time>2021-11-21T21:59:15.444Z</time>
      </trkpt>
      <trkpt lat="47.462471" lon="7.860097">
        <ele>407.866184</ele>
        <time>2021-11-21T21:59:21.109Z</time>
      </trkpt>
      <trkpt lat="47.462442" lon="7.860255">
        <ele>408.007479</ele>
        <time>2021-11-21T21:59:23.359Z</time>
      </trkpt>
      <trkpt lat="47.462327" lon="7.860669">
        <ele>408.511086</ele>
        <time>2021-11-21T21:59:30.103Z</time>
      </trkpt>
      <trkpt lat="47.462285" lon="7.860769">
        <ele>408.675679</ele>
        <time>2021-11-21T21:59:32.002Z</time>
      </trkpt>
      <trkpt lat="47.462231" lon="7.860873">
        <ele>408.859016</ele>
        <time>2021-11-21T21:59:34.361Z</time>
      </trkpt>
      <trkpt lat="47.461855" lon="7.861499">
        <ele>410.029746</ele>
        <time>2021-11-21T21:59:47.457Z</time>
      </trkpt>
      <trkpt lat="47.461541" lon="7.862217">
        <ele>411.225308</ele>
        <time>2021-11-21T22:00:01.129Z</time>
      </trkpt>
      <trkpt lat="47.461527" lon="7.862242">
        <ele>411.270695</ele>
        <time>2021-11-21T22:00:01.592Z</time>
      </trkpt>
      <trkpt lat="47.461353" lon="7.862539">
        <ele>411.820153</ele>
        <time>2021-11-21T22:00:07.935Z</time>
      </trkpt>
      <trkpt lat="47.461098" lon="7.862848">
        <ele>412.339128</ele>
        <time>2021-11-21T22:00:15.447Z</time>
      </trkpt>
      <trkpt lat="47.460786" lon="7.863164">
        <ele>412.900867</ele>
        <time>2021-11-21T22:00:23.835Z</time>
      </trkpt>
      <trkpt lat="47.460527" lon="7.863440">
        <ele>413.375082</ele>
        <time>2021-11-21T22:00:30.597Z</time>
      </trkpt>
      <trkpt lat="47.460398" lon="7.863603">
        <ele>413.627125</ele>
        <time>2021-11-21T22:00:34.012Z</time>
      </trkpt>
      <trkpt lat="47.460271" lon="7.863810">
        <ele>413.907872</ele>
        <time>2021-11-21T22:00:37.540Z</time>
      </trkpt>
      <trkpt lat="47.460115" lon="7.864146">
        <ele>414.317252</ele>
        <time>2021-11-21T22:00:42.304Z</time>
      </trkpt>
      <trkpt lat="47.460001" lon="7.864512">
        <ele>414.704832</ele>
        <time>2021-11-21T22:00:47.090Z</time>
      </trkpt>
      <trkpt lat="47.459616" lon="7.865526">
        <ele>415.713787</ele>
        <time>2021-11-21T22:01:03.323Z</time>
      </trkpt>
      <trkpt lat="47.459563" lon="7.865651">
        <ele>415.841796</ele>
        <time>2021-11-21T22:01:05.191Z</time>
      </trkpt>
      <trkpt lat="47.459497" lon="7.865844">
        <ele>416.029439</ele>
        <time>2021-11-21T22:01:08.131Z</time>
      </trkpt>
      <trkpt lat="47.459383" lon="7.866214">
        <ele>416.382207</ele>
        <time>2021-11-21T22:01:13.733Z</time>
      </trkpt>
      <trkpt lat="47.459231" lon="7.866811">
        <ele>416.946285</ele>
        <time>2021-11-21T22:01:22.419Z</time>
      </trkpt>
      <trkpt lat="47.459152" lon="7.867074">
        <ele>417.279820</ele>
        <time>2021-11-21T22:01:26.472Z</time>
      </trkpt>
      <trkpt lat="47.459058" lon="7.867339">
        <ele>417.626647</ele>
        <time>2021-11-21T22:01:30.547Z</time>
      </trkpt>
      <trkpt lat="47.458844" lon="7.867795">
        <ele>418.269970</ele>
        <time>2021-11-21T22:01:38.497Z</time>
      </trkpt>
      <trkpt lat="47.458680" lon="7.868173">
        <ele>418.790501</ele>
        <time>2021-11-21T22:01:45.753Z</time>
      </trkpt>
      <trkpt lat="47.458252" lon="7.869378">
        <ele>420.487957</ele>
        <time>2021-11-21T22:02:06.145Z</time>
      </trkpt>
      <trkpt lat="47.458055" lon="7.870048">
        <ele>421.601317</ele>
        <time>2021-11-21T22:02:16.912Z</time>
      </trkpt>
      <trkpt lat="47.457897" lon="7.870571">
        <ele>422.474244</ele>
        <time>2021-11-21T22:02:25.689Z</time>
      </trkpt>
      <trkpt lat="47.457834" lon="7.870782">
        <ele>422.825739</ele>
        <time>2021-11-21T22:02:29.668Z</time>
      </trkpt>
      <trkpt lat="47.457598" lon="7.871461">
        <ele>423.989166</ele>
        <time>2021-11-21T22:02:41.805Z</time>
      </trkpt>
      <trkpt lat="47.457107" lon="7.872555">
        <ele>426.982590</ele>
        <time>2021-11-21T22:03:08.730Z</time>
      </trkpt>
      <trkpt lat="47.456956" lon="7.873025">
        <ele>428.179321</ele>
        <time>2021-11-21T22:03:19.653Z</time>
      </trkpt>
      <trkpt lat="47.456839" lon="7.873690">
        <ele>429.759632</ele>
        <time>2021-11-21T22:03:32.634Z</time>
      </trkpt>
      <trkpt lat="47.456816" lon="7.873911">
        <ele>430.214134</ele>
        <time>2021-11-21T22:03:37.050Z</time>
      </trkpt>
      <trkpt lat="47.456788" lon="7.874217">
        <ele>430.555365</ele>
        <time>2021-11-21T22:03:42.282Z</time>
      </trkpt>
      <trkpt lat="47.456714" lon="7.874531">
        <ele>430.922829</ele>
        <time>2021-11-21T22:03:47.844Z</time>
      </trkpt>
      <trkpt lat="47.456658" lon="7.874665">
        <ele>431.096909</ele>
        <time>2021-11-21T22:03:49.697Z</time>
      </trkpt>
      <trkpt lat="47.456403" lon="7.875046">
        <ele>431.689325</ele>
        <time>2021-11-21T22:03:57.554Z</time>
      </trkpt>
      <trkpt lat="47.455780" lon="7.875652">
        <ele>432.908016</ele>
        <time>2021-11-21T22:04:13.047Z</time>
      </trkpt>
      <trkpt lat="47.455446" lon="7.875966">
        <ele>433.164325</ele>
        <time>2021-11-21T22:04:18.738Z</time>
      </trkpt>
      <trkpt lat="47.455123" lon="7.876253">
        <ele>433.253159</ele>
        <time>2021-11-21T22:04:23.713Z</time>
      </trkpt>
      <trkpt lat="47.454502" lon="7.876895">
        <ele>433.431783</ele>
        <time>2021-11-21T22:04:34.822Z</time>
      </trkpt>
      <trkpt lat="47.454362" lon="7.877045">
        <ele>433.472539</ele>
        <time>2021-11-21T22:04:37.750Z</time>
      </trkpt>
      <trkpt lat="47.453945" lon="7.877554">
        <ele>433.770768</ele>
        <time>2021-11-21T22:04:47.890Z</time>
      </trkpt>
      <trkpt lat="47.453517" lon="7.878069">
        <ele>434.187544</ele>
        <time>2021-11-21T22:04:58.025Z</time>
      </trkpt>
      <trkpt lat="47.453302" lon="7.878355">
        <ele>434.405973</ele>
        <time>2021-11-21T22:05:03.357Z</time>
      </trkpt>
      <trkpt lat="47.453057" lon="7.878652">
        <ele>434.645259</ele>
        <time>2021-11-21T22:05:08.957Z</time>
      </trkpt>
      <trkpt lat="47.452813" lon="7.878981">
        <ele>434.896250</ele>
        <time>2021-11-21T22:05:14.639Z</time>
      </trkpt>
      <trkpt lat="47.452655" lon="7.879223">
        <ele>435.088118</ele>
        <time>2021-11-21T22:05:18.499Z</time>
      </trkpt>
      <trkpt lat="47.452247" lon="7.879980">
        <ele>435.640263</ele>
        <time>2021-11-21T22:05:30.053Z</time>
      </trkpt>
      <trkpt lat="47.451953" lon="7.880518">
        <ele>436.034803</ele>
        <time>2021-11-21T22:05:38.394Z</time>
      </trkpt>
      <trkpt lat="47.451581" lon="7.881111">
        <ele>436.541852</ele>
        <time>2021-11-21T22:05:48.958Z</time>
      </trkpt>
      <trkpt lat="47.451351" lon="7.881477">
        <ele>436.959806</ele>
        <time>2021-11-21T22:05:55.509Z</time>
      </trkpt>
      <trkpt lat="47.451309" lon="7.881545">
        <ele>437.036845</ele>
        <time>2021-11-21T22:05:56.755Z</time>
      </trkpt>
      <trkpt lat="47.451241" lon="7.881654">
        <ele>437.160900</ele>
        <time>2021-11-21T22:05:58.713Z</time>
      </trkpt>
      <trkpt lat="47.451051" lon="7.881948">
        <ele>437.501086</ele>
        <time>2021-11-21T22:06:04.297Z</time>
      </trkpt>
      <trkpt lat="47.450772" lon="7.882435">
        <ele>438.035012</ele>
        <time>2021-11-21T22:06:13.077Z</time>
      </trkpt>
      <trkpt lat="47.450733" lon="7.882508">
        <ele>438.112836</ele>
        <time>2021-11-21T22:06:14.342Z</time>
      </trkpt>
      <trkpt lat="47.450650" lon="7.882664">
        <ele>438.278882</ele>
        <time>2021-11-21T22:06:17.064Z</time>
      </trkpt>
      <trkpt lat="47.450548" lon="7.882846">
        <ele>438.476619</ele>
        <time>2021-11-21T22:06:20.292Z</time>
      </trkpt>
      <trkpt lat="47.450472" lon="7.882973">
        <ele>438.618483</ele>
        <time>2021-11-21T22:06:22.518Z</time>
      </trkpt>
      <trkpt lat="47.450274" lon="7.883264">
        <ele>438.988090</ele>
        <time>2021-11-21T22:06:28.123Z</time>
      </trkpt>
      <trkpt lat="47.449712" lon="7.884119">
        <ele>440.056645</ele>
        <time>2021-11-21T22:06:43.844Z</time>
      </trkpt>
      <trkpt lat="47.449068" lon="7.885121">
        <ele>441.934251</ele>
        <time>2021-11-21T22:07:02.439Z</time>
      </trkpt>
      <trkpt lat="47.449022" lon="7.885187">
        <ele>442.207188</ele>
        <time>2021-11-21T22:07:04.070Z</time>
      </trkpt>
      <trkpt lat="47.448867" lon="7.885429">
        <ele>443.167047</ele>
        <time>2021-11-21T22:07:09.311Z</time>
      </trkpt>
      <trkpt lat="47.448801" lon="7.885554">
        <ele>443.623739</ele>
        <time>2021-11-21T22:07:11.964Z</time>
      </trkpt>
      <trkpt lat="47.448759" lon="7.885611">
        <ele>443.866498</ele>
        <time>2021-11-21T22:07:13.290Z</time>
      </trkpt>
      <trkpt lat="47.448727" lon="7.885648">
        <ele>444.039478</ele>
        <time>2021-11-21T22:07:14.323Z</time>
      </trkpt>
      <trkpt lat="47.448623" lon="7.885730">
        <ele>444.541372</ele>
        <time>2021-11-21T22:07:17.247Z</time>
      </trkpt>
      <trkpt lat="47.448497" lon="7.885784">
        <ele>445.100011</ele>
        <time>2021-11-21T22:07:20.771Z</time>
      </trkpt>
      <trkpt lat="47.448503" lon="7.885850">
        <ele>445.291784</ele>
        <time>2021-11-21T22:07:21.965Z</time>
      </trkpt>
      <trkpt lat="47.448510" lon="7.885941">
        <ele>445.555531</ele>
        <time>2021-11-21T22:07:23.525Z</time>
      </trkpt>
      <trkpt lat="47.448509" lon="7.886022">
        <ele>445.788830</ele>
        <time>2021-11-21T22:07:24.976Z</time>
      </trkpt>
      <trkpt lat="47.448479" lon="7.886216">
        <ele>446.361922</ele>
        <time>2021-11-21T22:07:29.392Z</time>
      </trkpt>
      <trkpt lat="47.448449" lon="7.886310">
        <ele>446.661250</ele>
        <time>2021-11-21T22:07:31.810Z</time>
      </trkpt>
      <trkpt lat="47.448327" lon="7.886693">
        <ele>447.880430</ele>
        <time>2021-11-21T22:07:43.437Z</time>
      </trkpt>
      <trkpt lat="47.448252" lon="7.886934">
        <ele>448.644414</ele>
        <time>2021-11-21T22:07:53.867Z</time>
      </trkpt>
      <trkpt lat="47.448187" lon="7.887164">
        <ele>450.423806</ele>
        <time>2021-11-21T22:08:01.805Z</time>
      </trkpt>
      <trkpt lat="47.448053" lon="7.887573">
        <ele>453.728597</ele>
        <time>2021-11-21T22:08:18.828Z</time>
      </trkpt>
      <trkpt lat="47.447994" lon="7.887745">
        <ele>455.131037</ele>
        <time>2021-11-21T22:08:26.761Z</time>
      </trkpt>
      <trkpt lat="47.447924" lon="7.887980">
        <ele>456.998325</ele>
        <time>2021-11-21T22:08:36.525Z</time>
      </trkpt>
      <trkpt lat="47.447918" lon="7.888002">
        <ele>457.170823</ele>
        <time>2021-11-21T22:08:37.582Z</time>
      </trkpt>
      <trkpt lat="47.447781" lon="7.888460">
        <ele>460.812549</ele>
        <time>2021-11-21T22:08:58.049Z</time>
      </trkpt>
      <trkpt lat="47.447728" lon="7.888631">
        <ele>462.180400</ele>
        <time>2021-11-21T22:09:06.827Z</time>
      </trkpt>
      <trkpt lat="47.447650" lon="7.888831">
        <ele>463.859273</ele>
        <time>2021-11-21T22:09:17.964Z</time>
      </trkpt>
      <trkpt lat="47.447622" lon="7.888881">
        <ele>464.331340</ele>
        <time>2021-11-21T22:09:19.985Z</time>
      </trkpt>
      <trkpt lat="47.447509" lon="7.889081">
        <ele>466.226486</ele>
        <time>2021-11-21T22:09:30.999Z</time>
      </trkpt>
      <trkpt lat="47.447331" lon="7.889272">
        <ele>468.512378</ele>
        <time>2021-11-21T22:09:43.940Z</time>
      </trkpt>
      <trkpt lat="47.446668" lon="7.889866">
        <ele>475.721904</ele>
        <time>2021-11-21T22:10:30.636Z</time>
      </trkpt>
      <trkpt lat="47.446569" lon="7.889962">
        <ele>476.822945</ele>
        <time>2021-11-21T22:10:38.783Z</time>
      </trkpt>
      <trkpt lat="47.446400" lon="7.890153">
        <ele>478.801195</ele>
        <time>2021-11-21T22:10:48.759Z</time>
      </trkpt>
      <trkpt lat="47.445742" lon="7.891213">
        <ele>486.704243</ele>
        <time>2021-11-21T22:11:27.321Z</time>
      </trkpt>
      <trkpt lat="47.445595" lon="7.891655">
        <ele>488.662321</ele>
        <time>2021-11-21T22:11:40.414Z</time>
      </trkpt>
      <trkpt lat="47.445231" lon="7.893511">
        <ele>496.263925</ele>
        <time>2021-11-21T22:12:29.341Z</time>
      </trkpt>
      <trkpt lat="47.444611" lon="7.894568">
        <ele>501.393672</ele>
        <time>2021-11-21T22:13:05.041Z</time>
      </trkpt>
      <trkpt lat="47.444374" lon="7.895190">
        <ele>504.011131</ele>
        <time>2021-11-21T22:13:21.800Z</time>
      </trkpt>
      <trkpt lat="47.444269" lon="7.895507">
        <ele>505.319060</ele>
        <time>2021-11-21T22:13:30.141Z</time>
      </trkpt>
      <trkpt lat="47.444186" lon="7.895774">
        <ele>506.456553</ele>
        <time>2021-11-21T22:13:36.967Z</time>
      </trkpt>
      <trkpt lat="47.444057" lon="7.896377">
        <ele>508.904729</ele>
        <time>2021-11-21T22:13:51.772Z</time>
      </trkpt>
      <trkpt lat="47.443973" lon="7.897319">
        <ele>512.582730</ele>
        <time>2021-11-21T22:14:14.632Z</time>
      </trkpt>
      <trkpt lat="47.443656" lon="7.899062">
        <ele>522.175102</ele>
        <time>2021-11-21T22:15:08.567Z</time>
      </trkpt>
      <trkpt lat="47.443601" lon="7.899993">
        <ele>528.028028</ele>
        <time>2021-11-21T22:15:43.513Z</time>
      </trkpt>
      <trkpt lat="47.443701" lon="7.901256">
        <ele>536.841287</ele>
        <time>2021-11-21T22:16:35.497Z</time>
      </trkpt>
      <trkpt lat="47.443979" lon="7.902634">
        <ele>547.767292</ele>
        <time>2021-11-21T22:17:36.475Z</time>
      </trkpt>
      <trkpt lat="47.444039" lon="7.903160">
        <ele>551.820300</ele>
        <time>2021-11-21T22:17:57.490Z</time>
      </trkpt>
      <trkpt lat="47.443987" lon="7.903658">
        <ele>554.292083</ele>
        <time>2021-11-21T22:18:15.743Z</time>
      </trkpt>
      <trkpt lat="47.443774" lon="7.904468">
        <ele>558.285775</ele>
        <time>2021-11-21T22:18:43.824Z</time>
      </trkpt>
      <trkpt lat="47.443812" lon="7.904620">
        <ele>559.030463</ele>
        <time>2021-11-21T22:18:47.920Z</time>
      </trkpt>
      <trkpt lat="47.444103" lon="7.905127">
        <ele>562.086226</ele>
        <time>2021-11-21T22:19:03.724Z</time>
      </trkpt>
      <trkpt lat="47.444124" lon="7.905848">
        <ele>564.738635</ele>
        <time>2021-11-21T22:19:18.477Z</time>
      </trkpt>
      <trkpt lat="47.444095" lon="7.905911">
        <ele>564.848093</ele>
        <time>2021-11-21T22:19:20.782Z</time>
      </trkpt>
      <trkpt lat="47.444060" lon="7.905957">
        <ele>564.947542</ele>
        <time>2021-11-21T22:19:22.080Z</time>
      </trkpt>
      <trkpt lat="47.444021" lon="7.905974">
        <ele>565.033892</ele>
        <time>2021-11-21T22:19:22.576Z</time>
      </trkpt>
      <trkpt lat="47.443887" lon="7.905861">
        <ele>565.361502</ele>
        <time>2021-11-21T22:19:26.132Z</time>
      </trkpt>
      <trkpt lat="47.443715" lon="7.905422">
        <ele>566.090207</ele>
        <time>2021-11-21T22:19:34.300Z</time>
      </trkpt>
      <trkpt lat="47.443616" lon="7.905326">
        <ele>566.341637</ele>
        <time>2021-11-21T22:19:37.655Z</time>
      </trkpt>
      <trkpt lat="47.443478" lon="7.905315">
        <ele>566.635138</ele>
        <time>2021-11-21T22:19:40.782Z</time>
      </trkpt>
      <trkpt lat="47.443437" lon="7.905338">
        <ele>566.728267</ele>
        <time>2021-11-21T22:19:41.341Z</time>
      </trkpt>
      <trkpt lat="47.443060" lon="7.905749">
        <ele>567.723015</ele>
        <time>2021-11-21T22:19:51.164Z</time>
      </trkpt>
      <trkpt lat="47.442586" lon="7.906135">
        <ele>568.270723</ele>
        <time>2021-11-21T22:20:01.210Z</time>
      </trkpt>
      <trkpt lat="47.442338" lon="7.906317">
        <ele>568.284189</ele>
        <time>2021-11-21T22:20:05.073Z</time>
      </trkpt>
      <trkpt lat="47.442196" lon="7.906411">
        <ele>568.291756</ele>
        <time>2021-11-21T22:20:07.723Z</time>
      </trkpt>
      <trkpt lat="47.441977" lon="7.906511">
        <ele>568.302904</ele>
        <time>2021-11-21T22:20:10.798Z</time>
      </trkpt>
      <trkpt lat="47.441743" lon="7.906608">
        <ele>568.314724</ele>
        <time>2021-11-21T22:20:14.652Z</time>
      </trkpt>
      <trkpt lat="47.441622" lon="7.906657">
        <ele>568.320826</ele>
        <time>2021-11-21T22:20:16.374Z</time>
      </trkpt>
      <trkpt lat="47.441570" lon="7.906678">
        <ele>568.323448</ele>
        <time>2021-11-21T22:20:17.633Z</time>
      </trkpt>
      <trkpt lat="47.441463" lon="7.906711">
        <ele>568.328764</ele>
        <time>2021-11-21T22:20:19.336Z</time>
      </trkpt>
      <trkpt lat="47.441212" lon="7.906790">
        <ele>568.341245</ele>
        <time>2021-11-21T22:20:22.764Z</time>
      </trkpt>
      <trkpt lat="47.440946" lon="7.906861">
        <ele>568.051177</ele>
        <time>2021-11-21T22:20:25.839Z</time>
      </trkpt>
      <trkpt lat="47.440759" lon="7.906942">
        <ele>567.781295</ele>
        <time>2021-11-21T22:20:28.796Z</time>
      </trkpt>
      <trkpt lat="47.440689" lon="7.906996">
        <ele>567.671941</ele>
        <time>2021-11-21T22:20:29.599Z</time>
      </trkpt>
      <trkpt lat="47.440645" lon="7.907088">
        <ele>567.566390</ele>
        <time>2021-11-21T22:20:30.439Z</time>
      </trkpt>
      <trkpt lat="47.440578" lon="7.907274">
        <ele>567.368984</ele>
        <time>2021-11-21T22:20:32.220Z</time>
      </trkpt>
      <trkpt lat="47.440484" lon="7.907616">
        <ele>567.023171</ele>
        <time>2021-11-21T22:20:34.870Z</time>
      </trkpt>
      <trkpt lat="47.440348" lon="7.908111">
        <ele>566.522678</ele>
        <time>2021-11-21T22:20:38.858Z</time>
      </trkpt>
      <trkpt lat="47.440306" lon="7.908217">
        <ele>566.407597</ele>
        <time>2021-11-21T22:20:39.932Z</time>
      </trkpt>
      <trkpt lat="47.440124" lon="7.908395">
        <ele>566.105366</ele>
        <time>2021-11-21T22:20:42.298Z</time>
      </trkpt>
      <trkpt lat="47.439774" lon="7.908833">
        <ele>565.714261</ele>
        <time>2021-11-21T22:20:47.876Z</time>
      </trkpt>
      <trkpt lat="47.439615" lon="7.909100">
        <ele>565.593471</ele>
        <time>2021-11-21T22:20:50.881Z</time>
      </trkpt>
      <trkpt lat="47.439518" lon="7.909224">
        <ele>565.529097</ele>
        <time>2021-11-21T22:20:52.695Z</time>
      </trkpt>
      <trkpt lat="47.439483" lon="7.909286">
        <ele>565.501676</ele>
        <time>2021-11-21T22:20:53.401Z</time>
      </trkpt>
      <trkpt lat="47.439145" lon="7.909911">
        <ele>565.229963</ele>
        <time>2021-11-21T22:21:00.514Z</time>
      </trkpt>
      <trkpt lat="47.439047" lon="7.910071">
        <ele>565.156669</ele>
        <time>2021-11-21T22:21:02.613Z</time>
      </trkpt>
      <trkpt lat="47.438918" lon="7.910246">
        <ele>565.068779</ele>
        <time>2021-11-21T22:21:05.004Z</time>
      </trkpt>
      <trkpt lat="47.438881" lon="7.910291">
        <ele>565.044727</ele>
        <time>2021-11-21T22:21:05.684Z</time>
      </trkpt>
      <trkpt lat="47.438659" lon="7.910501">
        <ele>565.022839</ele>
        <time>2021-11-21T22:21:09.510Z</time>
      </trkpt>
      <trkpt lat="47.438339" lon="7.910703">
        <ele>565.361038</ele>
        <time>2021-11-21T22:21:15.617Z</time>
      </trkpt>
      <trkpt lat="47.437939" lon="7.911215">
        <ele>565.875299</ele>
        <time>2021-11-21T22:21:25.594Z</time>
      </trkpt>
      <trkpt lat="47.437281" lon="7.911740">
        <ele>566.602057</ele>
        <time>2021-11-21T22:21:40.474Z</time>
      </trkpt>
      <trkpt lat="47.437154" lon="7.911831">
        <ele>566.788953</ele>
        <time>2021-11-21T22:21:43.513Z</time>
      </trkpt>
      <trkpt lat="47.436962" lon="7.911943">
        <ele>567.233129</ele>
        <time>2021-11-21T22:21:47.606Z</time>
      </trkpt>
      <trkpt lat="47.436670" lon="7.912144">
        <ele>567.926277</ele>
        <time>2021-11-21T22:21:54.495Z</time>
      </trkpt>
      <trkpt lat="47.436616" lon="7.912213">
        <ele>568.079871</ele>
        <time>2021-11-21T22:21:56.446Z</time>
      </trkpt>
      <trkpt lat="47.436578" lon="7.912267">
        <ele>568.193297</ele>
        <time>2021-11-21T22:21:57.829Z</time>
      </trkpt>
      <trkpt lat="47.436515" lon="7.912405">
        <ele>568.435641</ele>
        <time>2021-11-21T22:22:00.153Z</time>
      </trkpt>
      <trkpt lat="47.436476" lon="7.912706">
        <ele>568.881743</ele>
        <time>2021-11-21T22:22:04.853Z</time>
      </trkpt>
      <trkpt lat="47.436408" lon="7.913110">
        <ele>569.487741</ele>
        <time>2021-11-21T22:22:10.831Z</time>
      </trkpt>
      <trkpt lat="47.436396" lon="7.913182">
        <ele>569.595679</ele>
        <time>2021-11-21T22:22:12.194Z</time>
      </trkpt>
      <trkpt lat="47.436377" lon="7.913305">
        <ele>569.779328</ele>
        <time>2021-11-21T22:22:15.669Z</time>
      </trkpt>
      <trkpt lat="47.436332" lon="7.913599">
        <ele>570.218097</ele>
        <time>2021-11-21T22:22:20.178Z</time>
      </trkpt>
      <trkpt lat="47.436328" lon="7.913781">
        <ele>570.483157</ele>
        <time>2021-11-21T22:22:24.030Z</time>
      </trkpt>
      <trkpt lat="47.436426" lon="7.914382">
        <ele>571.856409</ele>
        <time>2021-11-21T22:22:35.425Z</time>
      </trkpt>
      <trkpt lat="47.436779" lon="7.915143">
        <ele>573.980532</ele>
        <time>2021-11-21T22:22:50.478Z</time>
      </trkpt>
      <trkpt lat="47.436788" lon="7.915208">
        <ele>574.133260</ele>
        <time>2021-11-21T22:22:52.443Z</time>
      </trkpt>
      <trkpt lat="47.436789" lon="7.915276">
        <ele>574.289828</ele>
        <time>2021-11-21T22:22:54.323Z</time>
      </trkpt>
      <trkpt lat="47.436405" lon="7.916185">
        <ele>576.786602</ele>
        <time>2021-11-21T22:23:16.331Z</time>
      </trkpt>
      <trkpt lat="47.436153" lon="7.916928">
        <ele>579.551787</ele>
        <time>2021-11-21T22:23:34.315Z</time>
      </trkpt>
      <trkpt lat="47.436025" lon="7.917438">
        <ele>581.361519</ele>
        <time>2021-11-21T22:23:47.718Z</time>
      </trkpt>
      <trkpt lat="47.435776" lon="7.918311">
        <ele>584.513528</ele>
        <time>2021-11-21T22:24:10.489Z</time>
      </trkpt>
      <trkpt lat="47.435658" lon="7.918713">
        <ele>586.025709</ele>
        <time>2021-11-21T22:24:21.322Z</time>
      </trkpt>
      <trkpt lat="47.435475" lon="7.919362">
        <ele>588.656840</ele>
        <time>2021-11-21T22:24:38.897Z</time>
      </trkpt>
      <trkpt lat="47.435403" lon="7.919605">
        <ele>589.649564</ele>
        <time>2021-11-21T22:24:45.053Z</time>
      </trkpt>
      <trkpt lat="47.435333" lon="7.919826">
        <ele>590.562729</ele>
        <time>2021-11-21T22:24:51.184Z</time>
      </trkpt>
      <trkpt lat="47.435252" lon="7.920039">
        <ele>591.477108</ele>
        <time>2021-11-21T22:24:57.250Z</time>
      </trkpt>
      <trkpt lat="47.434702" lon="7.921025">
        <ele>596.294513</ele>
        <time>2021-11-21T22:25:30.371Z</time>
      </trkpt>
      <trkpt lat="47.434524" lon="7.921435">
        <ele>598.200150</ele>
        <time>2021-11-21T22:25:42.229Z</time>
      </trkpt>
      <trkpt lat="47.434378" lon="7.921753">
        <ele>599.703486</ele>
        <time>2021-11-21T22:25:51.859Z</time>
      </trkpt>
      <trkpt lat="47.434253" lon="7.922015">
        <ele>600.957586</ele>
        <time>2021-11-21T22:25:59.481Z</time>
      </trkpt>
      <trkpt lat="47.433914" lon="7.922971">
        <ele>605.179739</ele>
        <time>2021-11-21T22:26:28.303Z</time>
      </trkpt>
      <trkpt lat="47.433902" lon="7.923204">
        <ele>606.046818</ele>
        <time>2021-11-21T22:26:34.584Z</time>
      </trkpt>
      <trkpt lat="47.434035" lon="7.924100">
        <ele>608.817550</ele>
        <time>2021-11-21T22:26:58.863Z</time>
      </trkpt>
      <trkpt lat="47.434048" lon="7.924524">
        <ele>610.099541</ele>
        <time>2021-11-21T22:27:08.640Z</time>
      </trkpt>
      <trkpt lat="47.434048" lon="7.924731">
        <ele>610.724777</ele>
        <time>2021-11-21T22:27:13.546Z</time>
      </trkpt>
      <trkpt lat="47.433985" lon="7.925315">
        <ele>612.511019</ele>
        <time>2021-11-21T22:27:25.330Z</time>
      </trkpt>
      <trkpt lat="47.433569" lon="7.926574">
        <ele>614.034630</ele>
        <time>2021-11-21T22:27:47.564Z</time>
      </trkpt>
      <trkpt lat="47.433455" lon="7.926970">
        <ele>614.087845</ele>
        <time>2021-11-21T22:27:52.089Z</time>
      </trkpt>
      <trkpt lat="47.433388" lon="7.927259">
        <ele>614.125621</ele>
        <time>2021-11-21T22:27:54.811Z</time>
      </trkpt>
      <trkpt lat="47.433296" lon="7.927408">
        <ele>614.150566</ele>
        <time>2021-11-21T22:27:56.711Z</time>
      </trkpt>
      <trkpt lat="47.432918" lon="7.927850">
        <ele>614.238664</ele>
        <time>2021-11-21T22:28:02.738Z</time>
      </trkpt>
      <trkpt lat="47.432392" lon="7.928678">
        <ele>611.461665</ele>
        <time>2021-11-21T22:28:10.432Z</time>
      </trkpt>
      <trkpt lat="47.432343" lon="7.928929">
        <ele>610.776312</ele>
        <time>2021-11-21T22:28:12.092Z</time>
      </trkpt>
      <trkpt lat="47.432332" lon="7.929564">
        <ele>609.109885</ele>
        <time>2021-11-21T22:28:16.281Z</time>
      </trkpt>
      <trkpt lat="47.432320" lon="7.929632">
        <ele>608.925522</ele>
        <time>2021-11-21T22:28:16.847Z</time>
      </trkpt>
      <trkpt lat="47.432376" lon="7.929666">
        <ele>608.690740</ele>
        <time>2021-11-21T22:28:17.378Z</time>
      </trkpt>
      <trkpt lat="47.432548" lon="7.929945">
        <ele>607.700446</ele>
        <time>2021-11-21T22:28:19.792Z</time>
      </trkpt>
      <trkpt lat="47.432626" lon="7.930198">
        <ele>606.809622</ele>
        <time>2021-11-21T22:28:21.555Z</time>
      </trkpt>
      <trkpt lat="47.432655" lon="7.930328">
        <ele>606.258124</ele>
        <time>2021-11-21T22:28:22.465Z</time>
      </trkpt>
      <trkpt lat="47.432655" lon="7.930328">
        <ele>606.258124</ele>
        <time>2021-11-21T22:28:22.481Z</time>
      </trkpt>
      <trkpt lat="47.432664" lon="7.930471">
        <ele>605.679508</ele>
        <time>2021-11-21T22:28:23.492Z</time>
      </trkpt>
      <trkpt lat="47.432628" lon="7.930753">
        <ele>604.523313</ele>
        <time>2021-11-21T22:28:25.313Z</time>
      </trkpt>
      <trkpt lat="47.432518" lon="7.931622">
        <ele>600.961452</ele>
        <time>2021-11-21T22:28:30.861Z</time>
      </trkpt>
      <trkpt lat="47.432491" lon="7.931730">
        <ele>600.497569</ele>
        <time>2021-11-21T22:28:31.537Z</time>
      </trkpt>
      <trkpt lat="47.432474" lon="7.931798">
        <ele>600.205495</ele>
        <time>2021-11-21T22:28:31.990Z</time>
      </trkpt>
      <trkpt lat="47.432246" lon="7.932289">
        <ele>597.806079</ele>
        <time>2021-11-21T22:28:35.606Z</time>
      </trkpt>
      <trkpt lat="47.431940" lon="7.932715">
        <ele>595.242678</ele>
        <time>2021-11-21T22:28:39.374Z</time>
      </trkpt>
      <trkpt lat="47.431916" lon="7.932769">
        <ele>594.969946</ele>
        <time>2021-11-21T22:28:39.924Z</time>
      </trkpt>
      <trkpt lat="47.431934" lon="7.932867">
        <ele>594.541303</ele>
        <time>2021-11-21T22:28:40.524Z</time>
      </trkpt>
      <trkpt lat="47.432257" lon="7.933273">
        <ele>591.895716</ele>
        <time>2021-11-21T22:28:44.407Z</time>
      </trkpt>
      <trkpt lat="47.432362" lon="7.933398">
        <ele>591.054487</ele>
        <time>2021-11-21T22:28:45.602Z</time>
      </trkpt>
      <trkpt lat="47.432488" lon="7.933576">
        <ele>589.966980</ele>
        <time>2021-11-21T22:28:47.220Z</time>
      </trkpt>
      <trkpt lat="47.432554" lon="7.933755">
        <ele>589.106467</ele>
        <time>2021-11-21T22:28:48.506Z</time>
      </trkpt>
      <trkpt lat="47.432569" lon="7.933827">
        <ele>588.788466</ele>
        <time>2021-11-21T22:28:48.952Z</time>
      </trkpt>
      <trkpt lat="47.432578" lon="7.933907">
        <ele>588.446147</ele>
        <time>2021-11-21T22:28:49.500Z</time>
      </trkpt>
      <trkpt lat="47.432647" lon="7.934240">
        <ele>586.976083</ele>
        <time>2021-11-21T22:28:51.636Z</time>
      </trkpt>
      <trkpt lat="47.432802" lon="7.934732">
        <ele>585.056043</ele>
        <time>2021-11-21T22:28:54.993Z</time>
      </trkpt>
      <trkpt lat="47.432965" lon="7.935043">
        <ele>584.340899</ele>
        <time>2021-11-21T22:28:57.496Z</time>
      </trkpt>
      <trkpt lat="47.433050" lon="7.935392">
        <ele>583.666644</ele>
        <time>2021-11-21T22:28:59.797Z</time>
      </trkpt>
      <trkpt lat="47.433187" lon="7.935304">
        <ele>583.265254</ele>
        <time>2021-11-21T22:29:01.250Z</time>
      </trkpt>
      <trkpt lat="47.433385" lon="7.935078">
        <ele>582.593059</ele>
        <time>2021-11-21T22:29:03.948Z</time>
      </trkpt>
      <trkpt lat="47.433512" lon="7.934950">
        <ele>582.180023</ele>
        <time>2021-11-21T22:29:05.517Z</time>
      </trkpt>
      <trkpt lat="47.433620" lon="7.934930">
        <ele>581.887542</ele>
        <time>2021-11-21T22:29:08.029Z</time>
      </trkpt>
      <trkpt lat="47.434298" lon="7.934609">
        <ele>580.441404</ele>
        <time>2021-11-21T22:29:19.960Z</time>
      </trkpt>
      <trkpt lat="47.434567" lon="7.934576">
        <ele>580.356478</ele>
        <time>2021-11-21T22:29:24.475Z</time>
      </trkpt>
      <trkpt lat="47.434614" lon="7.934590">
        <ele>580.341393</ele>
        <time>2021-11-21T22:29:25.635Z</time>
      </trkpt>
      <trkpt lat="47.434668" lon="7.934617">
        <ele>580.323458</ele>
        <time>2021-11-21T22:29:27.155Z</time>
      </trkpt>
      <trkpt lat="47.434806" lon="7.934720">
        <ele>580.274819</ele>
        <time>2021-11-21T22:29:28.745Z</time>
      </trkpt>
      <trkpt lat="47.434953" lon="7.934914">
        <ele>580.212821</ele>
        <time>2021-11-21T22:29:33.062Z</time>
      </trkpt>
      <trkpt lat="47.435021" lon="7.934988">
        <ele>580.186255</ele>
        <time>2021-11-21T22:29:33.859Z</time>
      </trkpt>
      <trkpt lat="47.435108" lon="7.935067">
        <ele>580.154131</ele>
        <time>2021-11-21T22:29:35.283Z</time>
      </trkpt>
      <trkpt lat="47.435139" lon="7.935085">
        <ele>580.143652</ele>
        <time>2021-11-21T22:29:36.299Z</time>
      </trkpt>
      <trkpt lat="47.435218" lon="7.935133">
        <ele>580.116779</ele>
        <time>2021-11-21T22:29:37.734Z</time>
      </trkpt>
      <trkpt lat="47.435945" lon="7.935453">
        <ele>579.799763</ele>
        <time>2021-11-21T22:29:47.141Z</time>
      </trkpt>
      <trkpt lat="47.435987" lon="7.935459">
        <ele>579.768943</ele>
        <time>2021-11-21T22:29:47.698Z</time>
      </trkpt>
      <trkpt lat="47.436041" lon="7.935466">
        <ele>579.729350</ele>
        <time>2021-11-21T22:29:48.183Z</time>
      </trkpt>
      <trkpt lat="47.436379" lon="7.935508">
        <ele>579.481605</ele>
        <time>2021-11-21T22:29:52.426Z</time>
      </trkpt>
      <trkpt lat="47.436645" lon="7.935783">
        <ele>579.244528</ele>
        <time>2021-11-21T22:29:56.429Z</time>
      </trkpt>
      <trkpt lat="47.436754" lon="7.935830">
        <ele>579.161598</ele>
        <time>2021-11-21T22:29:57.581Z</time>
      </trkpt>
      <trkpt lat="47.436817" lon="7.935819">
        <ele>579.115263</ele>
        <time>2021-11-21T22:29:58.168Z</time>
      </trkpt>
      <trkpt lat="47.436959" lon="7.935813">
        <ele>579.011504</ele>
        <time>2021-11-21T22:30:01.635Z</time>
      </trkpt>
      <trkpt lat="47.437163" lon="7.935805">
        <ele>578.862451</ele>
        <time>2021-11-21T22:30:03.715Z</time>
      </trkpt>
      <trkpt lat="47.437455" lon="7.935929">
        <ele>578.640551</ele>
        <time>2021-11-21T22:30:08.592Z</time>
      </trkpt>
      <trkpt lat="47.438097" lon="7.936295">
        <ele>580.009989</ele>
        <time>2021-11-21T22:30:24.457Z</time>
      </trkpt>
      <trkpt lat="47.438488" lon="7.936601">
        <ele>580.932252</ele>
        <time>2021-11-21T22:30:36.021Z</time>
      </trkpt>
      <trkpt lat="47.438795" lon="7.937030">
        <ele>581.812877</ele>
        <time>2021-11-21T22:30:47.414Z</time>
      </trkpt>
      <trkpt lat="47.439053" lon="7.937594">
        <ele>582.826224</ele>
        <time>2021-11-21T22:30:58.388Z</time>
      </trkpt>
      <trkpt lat="47.439305" lon="7.937977">
        <ele>583.680093</ele>
        <time>2021-11-21T22:31:05.739Z</time>
      </trkpt>
      <trkpt lat="47.439513" lon="7.938183">
        <ele>584.271595</ele>
        <time>2021-11-21T22:31:10.868Z</time>
      </trkpt>
      <trkpt lat="47.439973" lon="7.938391">
        <ele>585.408110</ele>
        <time>2021-11-21T22:31:22.960Z</time>
      </trkpt>
      <trkpt lat="47.440111" lon="7.938384">
        <ele>585.734348</ele>
        <time>2021-11-21T22:31:25.623Z</time>
      </trkpt>
      <trkpt lat="47.440276" lon="7.938174">
        <ele>586.248730</ele>
        <time>2021-11-21T22:31:31.965Z</time>
      </trkpt>
      <trkpt lat="47.440493" lon="7.937497">
        <ele>588.272339</ele>
        <time>2021-11-21T22:31:45.361Z</time>
      </trkpt>
      <trkpt lat="47.440535" lon="7.937445">
        <ele>588.531726</ele>
        <time>2021-11-21T22:31:45.910Z</time>
      </trkpt>
      <trkpt lat="47.440583" lon="7.937384">
        <ele>588.831424</ele>
        <time>2021-11-21T22:31:50.511Z</time>
      </trkpt>
      <trkpt lat="47.440806" lon="7.937210">
        <ele>590.025341</ele>
        <time>2021-11-21T22:31:57.377Z</time>
      </trkpt>
      <trkpt lat="47.441000" lon="7.937143">
        <ele>590.968653</ele>
        <time>2021-11-21T22:32:05.370Z</time>
      </trkpt>
      <trkpt lat="47.441541" lon="7.937289">
        <ele>593.572596</ele>
        <time>2021-11-21T22:32:24.285Z</time>
      </trkpt>
      <trkpt lat="47.442638" lon="7.937187">
        <ele>598.265422</ele>
        <time>2021-11-21T22:33:08.560Z</time>
      </trkpt>
      <trkpt lat="47.443543" lon="7.937251">
        <ele>601.952014</ele>
        <time>2021-11-21T22:33:33.571Z</time>
      </trkpt>
      <trkpt lat="47.443821" lon="7.937284">
        <ele>602.166270</ele>
        <time>2021-11-21T22:33:39.158Z</time>
      </trkpt>
      <trkpt lat="47.444030" lon="7.937346">
        <ele>601.763998</ele>
        <time>2021-11-21T22:33:42.708Z</time>
      </trkpt>
      <trkpt lat="47.444304" lon="7.937471">
        <ele>601.222870</ele>
        <time>2021-11-21T22:33:46.579Z</time>
      </trkpt>
      <trkpt lat="47.444544" lon="7.937668">
        <ele>600.704848</ele>
        <time>2021-11-21T22:33:49.921Z</time>
      </trkpt>
      <trkpt lat="47.444935" lon="7.938269">
        <ele>599.640513</ele>
        <time>2021-11-21T22:33:55.634Z</time>
      </trkpt>
      <trkpt lat="47.445088" lon="7.938426">
        <ele>599.289064</ele>
        <time>2021-11-21T22:33:57.404Z</time>
      </trkpt>
      <trkpt lat="47.445739" lon="7.938730">
        <ele>595.357505</ele>
        <time>2021-11-21T22:34:03.672Z</time>
      </trkpt>
      <trkpt lat="47.445987" lon="7.938989">
        <ele>593.359692</ele>
        <time>2021-11-21T22:34:06.355Z</time>
      </trkpt>
      <trkpt lat="47.446136" lon="7.939210">
        <ele>591.971032</ele>
        <time>2021-11-21T22:34:08.248Z</time>
      </trkpt>
      <trkpt lat="47.446200" lon="7.939305">
        <ele>591.374328</ele>
        <time>2021-11-21T22:34:09.020Z</time>
      </trkpt>
      <trkpt lat="47.446350" lon="7.939484">
        <ele>590.106006</ele>
        <time>2021-11-21T22:34:10.853Z</time>
      </trkpt>
      <trkpt lat="47.446714" lon="7.939663">
        <ele>587.581907</ele>
        <time>2021-11-21T22:34:14.295Z</time>
      </trkpt>
      <trkpt lat="47.446911" lon="7.939640">
        <ele>586.693905</ele>
        <time>2021-11-21T22:34:16.043Z</time>
      </trkpt>
      <trkpt lat="47.447023" lon="7.939500">
        <ele>586.149057</ele>
        <time>2021-11-21T22:34:17.444Z</time>
      </trkpt>
      <trkpt lat="47.447088" lon="7.939400">
        <ele>585.800576</ele>
        <time>2021-11-21T22:34:18.249Z</time>
      </trkpt>
      <trkpt lat="47.447148" lon="7.939307">
        <ele>585.477645</ele>
        <time>2021-11-21T22:34:19.046Z</time>
      </trkpt>
      <trkpt lat="47.447375" lon="7.938987">
        <ele>584.312482</ele>
        <time>2021-11-21T22:34:21.936Z</time>
      </trkpt>
      <trkpt lat="47.447514" lon="7.938816">
        <ele>583.640728</ele>
        <time>2021-11-21T22:34:23.939Z</time>
      </trkpt>
      <trkpt lat="47.447579" lon="7.938758">
        <ele>583.358683</ele>
        <time>2021-11-21T22:34:24.668Z</time>
      </trkpt>
      <trkpt lat="47.447622" lon="7.938729">
        <ele>583.183101</ele>
        <time>2021-11-21T22:34:25.103Z</time>
      </trkpt>
      <trkpt lat="47.447884" lon="7.938706">
        <ele>582.208018</ele>
        <time>2021-11-21T22:34:28.351Z</time>
      </trkpt>
      <trkpt lat="47.448076" lon="7.938764">
        <ele>581.479977</ele>
        <time>2021-11-21T22:34:30.410Z</time>
      </trkpt>
      <trkpt lat="47.448323" lon="7.938940">
        <ele>580.588240</ele>
        <time>2021-11-21T22:34:33.572Z</time>
      </trkpt>
      <trkpt lat="47.448504" lon="7.939113">
        <ele>580.983022</ele>
        <time>2021-11-21T22:34:37.016Z</time>
      </trkpt>
      <trkpt lat="47.448566" lon="7.939145">
        <ele>581.103311</ele>
        <time>2021-11-21T22:34:38.678Z</time>
      </trkpt>
      <trkpt lat="47.448632" lon="7.939166">
        <ele>581.226975</ele>
        <time>2021-11-21T22:34:40.140Z</time>
      </trkpt>
      <trkpt lat="47.448737" lon="7.939187">
        <ele>581.421063</ele>
        <time>2021-11-21T22:34:41.955Z</time>
      </trkpt>
      <trkpt lat="47.448995" lon="7.939236">
        <ele>581.897544</ele>
        <time>2021-11-21T22:34:47.612Z</time>
      </trkpt>
      <trkpt lat="47.449095" lon="7.939194">
        <ele>582.087967</ele>
        <time>2021-11-21T22:34:49.431Z</time>
      </trkpt>
      <trkpt lat="47.449121" lon="7.939164">
        <ele>582.148376</ele>
        <time>2021-11-21T22:34:49.844Z</time>
      </trkpt>
      <trkpt lat="47.449215" lon="7.939276">
        <ele>582.369502</ele>
        <time>2021-11-21T22:34:52.865Z</time>
      </trkpt>
      <trkpt lat="47.449278" lon="7.939333">
        <ele>582.504790</ele>
        <time>2021-11-21T22:34:54.704Z</time>
      </trkpt>
      <trkpt lat="47.449351" lon="7.939383">
        <ele>582.652157</ele>
        <time>2021-11-21T22:34:56.763Z</time>
      </trkpt>
      <trkpt lat="47.449443" lon="7.939446">
        <ele>582.837873</ele>
        <time>2021-11-21T22:34:58.016Z</time>
      </trkpt>
      <trkpt lat="47.449589" lon="7.939535">
        <ele>583.127145</ele>
        <time>2021-11-21T22:35:03.421Z</time>
      </trkpt>
      <trkpt lat="47.449814" lon="7.939672">
        <ele>583.572866</ele>
        <time>2021-11-21T22:35:08.978Z</time>
      </trkpt>
      <trkpt lat="47.449913" lon="7.939726">
        <ele>583.766155</ele>
        <time>2021-11-21T22:35:13.348Z</time>
      </trkpt>
      <trkpt lat="47.450248" lon="7.939948">
        <ele>585.714418</ele>
        <time>2021-11-21T22:35:25.586Z</time>
      </trkpt>
      <trkpt lat="47.450383" lon="7.940114">
        <ele>586.722700</ele>
        <time>2021-11-21T22:35:31.161Z</time>
      </trkpt>
      <trkpt lat="47.450538" lon="7.940621">
        <ele>588.883466</ele>
        <time>2021-11-21T22:35:44.914Z</time>
      </trkpt>
      <trkpt lat="47.450568" lon="7.940770">
        <ele>589.487201</ele>
        <time>2021-11-21T22:35:49.596Z</time>
      </trkpt>
      <trkpt lat="47.450647" lon="7.940719">
        <ele>589.982228</ele>
        <time>2021-11-21T22:35:53.815Z</time>
      </trkpt>
      <trkpt lat="47.450818" lon="7.940534">
        <ele>591.198987</ele>
        <time>2021-11-21T22:36:01.323Z</time>
      </trkpt>
      <trkpt lat="47.450926" lon="7.940417">
        <ele>591.967829</ele>
        <time>2021-11-21T22:36:07.571Z</time>
      </trkpt>
      <trkpt lat="47.451066" lon="7.940265">
        <ele>592.965239</ele>
        <time>2021-11-21T22:36:14.499Z</time>
      </trkpt>
      <trkpt lat="47.451687" lon="7.939736">
        <ele>597.354608</ele>
        <time>2021-11-21T22:36:45.661Z</time>
      </trkpt>
      <trkpt lat="47.451870" lon="7.939623">
        <ele>598.600582</ele>
        <time>2021-11-21T22:36:54.200Z</time>
      </trkpt>
      <trkpt lat="47.452527" lon="7.939169">
        <ele>603.156849</ele>
        <time>2021-11-21T22:37:24.005Z</time>
      </trkpt>
      <trkpt lat="47.452569" lon="7.939136">
        <ele>603.455663</ele>
        <time>2021-11-21T22:37:25.802Z</time>
      </trkpt>
      <trkpt lat="47.452671" lon="7.939085">
        <ele>604.132155</ele>
        <time>2021-11-21T22:37:29.923Z</time>
      </trkpt>
      <trkpt lat="47.453247" lon="7.938949">
        <ele>606.879462</ele>
        <time>2021-11-21T22:37:49.403Z</time>
      </trkpt>
      <trkpt lat="47.453399" lon="7.938926">
        <ele>607.460784</ele>
        <time>2021-11-21T22:37:54.619Z</time>
      </trkpt>
      <trkpt lat="47.453527" lon="7.938907">
        <ele>607.950223</ele>
        <time>2021-11-21T22:37:58.090Z</time>
      </trkpt>
      <trkpt lat="47.453896" lon="7.938837">
        <ele>609.365633</ele>
        <time>2021-11-21T22:38:09.059Z</time>
      </trkpt>
      <trkpt lat="47.453952" lon="7.938831">
        <ele>609.579250</ele>
        <time>2021-11-21T22:38:10.575Z</time>
      </trkpt>
      <trkpt lat="47.454186" lon="7.938810">
        <ele>610.471170</ele>
        <time>2021-11-21T22:38:17.477Z</time>
      </trkpt>
      <trkpt lat="47.454409" lon="7.938779">
        <ele>611.323342</ele>
        <time>2021-11-21T22:38:23.586Z</time>
      </trkpt>
      <trkpt lat="47.454590" lon="7.938738">
        <ele>612.020010</ele>
        <time>2021-11-21T22:38:28.243Z</time>
      </trkpt>
      <trkpt lat="47.455114" lon="7.938524">
        <ele>613.303514</ele>
        <time>2021-11-21T22:38:42.453Z</time>
      </trkpt>
      <trkpt lat="47.455980" lon="7.938143">
        <ele>615.220528</ele>
        <time>2021-11-21T22:39:03.803Z</time>
      </trkpt>
      <trkpt lat="47.456527" lon="7.937909">
        <ele>616.231304</ele>
        <time>2021-11-21T22:39:15.346Z</time>
      </trkpt>
      <trkpt lat="47.456612" lon="7.937840">
        <ele>616.300896</ele>
        <time>2021-11-21T22:39:17.462Z</time>
      </trkpt>
      <trkpt lat="47.456885" lon="7.937800">
        <ele>616.497793</ele>
        <time>2021-11-21T22:39:23.738Z</time>
      </trkpt>
      <trkpt lat="47.457759" lon="7.938112">
        <ele>617.143094</ele>
        <time>2021-11-21T22:39:43.935Z</time>
      </trkpt>
      <trkpt lat="47.458684" lon="7.938601">
        <ele>617.993816</ele>
        <time>2021-11-21T22:40:05.109Z</time>
      </trkpt>
      <trkpt lat="47.459661" lon="7.938631">
        <ele>618.934603</ele>
        <time>2021-11-21T22:40:29.021Z</time>
      </trkpt>
      <trkpt lat="47.460344" lon="7.938606">
        <ele>620.637765</ele>
        <time>2021-11-21T22:40:47.324Z</time>
      </trkpt>
      <trkpt lat="47.460640" lon="7.938599">
        <ele>621.600812</ele>
        <time>2021-11-21T22:40:55.612Z</time>
      </trkpt>
      <trkpt lat="47.461076" lon="7.938696">
        <ele>623.035128</ele>
        <time>2021-11-21T22:41:09.420Z</time>
      </trkpt>
      <trkpt lat="47.461309" lon="7.938844">
        <ele>623.860045</ele>
        <time>2021-11-21T22:41:18.587Z</time>
      </trkpt>
      <trkpt lat="47.461855" lon="7.939515">
        <ele>627.629424</ele>
        <time>2021-11-21T22:41:49.628Z</time>
      </trkpt>
      <trkpt lat="47.462056" lon="7.939688">
        <ele>629.333920</ele>
        <time>2021-11-21T22:42:01.110Z</time>
      </trkpt>
      <trkpt lat="47.462207" lon="7.939778">
        <ele>630.527149</ele>
        <time>2021-11-21T22:42:09.791Z</time>
      </trkpt>
      <trkpt lat="47.462671" lon="7.939972">
        <ele>634.061286</ele>
        <time>2021-11-21T22:42:34.418Z</time>
      </trkpt>
      <trkpt lat="47.462895" lon="7.940071">
        <ele>635.774814</ele>
        <time>2021-11-21T22:42:46.577Z</time>
      </trkpt>
      <trkpt lat="47.463169" lon="7.940192">
        <ele>637.870686</ele>
        <time>2021-11-21T22:43:02.193Z</time>
      </trkpt>
      <trkpt lat="47.463351" lon="7.940342">
        <ele>639.066141</ele>
        <time>2021-11-21T22:43:14.429Z</time>
      </trkpt>
      <trkpt lat="47.463757" lon="7.940617">
        <ele>641.442466</ele>
        <time>2021-11-21T22:43:37.474Z</time>
      </trkpt>
      <trkpt lat="47.464307" lon="7.940722">
        <ele>644.393625</ele>
        <time>2021-11-21T22:44:01.271Z</time>
      </trkpt>
      <trkpt lat="47.464341" lon="7.940728">
        <ele>644.575842</ele>
        <time>2021-11-21T22:44:03.616Z</time>
      </trkpt>
      <trkpt lat="47.464912" lon="7.940831">
        <ele>647.636989</ele>
        <time>2021-11-21T22:44:20.062Z</time>
      </trkpt>
      <trkpt lat="47.465246" lon="7.940877">
        <ele>648.040334</ele>
        <time>2021-11-21T22:44:27.848Z</time>
      </trkpt>
      <trkpt lat="47.465632" lon="7.940899">
        <ele>648.388161</ele>
        <time>2021-11-21T22:44:37.830Z</time>
      </trkpt>
      <trkpt lat="47.465949" lon="7.940958">
        <ele>648.675850</ele>
        <time>2021-11-21T22:44:45.824Z</time>
      </trkpt>
      <trkpt lat="47.466346" lon="7.941118">
        <ele>649.046354</ele>
        <time>2021-11-21T22:44:55.232Z</time>
      </trkpt>
      <trkpt lat="47.466651" lon="7.941234">
        <ele>649.329920</ele>
        <time>2021-11-21T22:45:01.601Z</time>
      </trkpt>
      <trkpt lat="47.466822" lon="7.941310">
        <ele>647.762131</ele>
        <time>2021-11-21T22:45:06.099Z</time>
      </trkpt>
      <trkpt lat="47.467100" lon="7.941411">
        <ele>644.049165</ele>
        <time>2021-11-21T22:45:12.435Z</time>
      </trkpt>
      <trkpt lat="47.467399" lon="7.941540">
        <ele>640.009397</ele>
        <time>2021-11-21T22:45:19.371Z</time>
      </trkpt>
      <trkpt lat="47.467899" lon="7.941853">
        <ele>632.967342</ele>
        <time>2021-11-21T22:45:25.691Z</time>
      </trkpt>
      <trkpt lat="47.468006" lon="7.941992">
        <ele>631.120314</ele>
        <time>2021-11-21T22:45:41.735Z</time>
      </trkpt>
      <trkpt lat="47.468260" lon="7.942246">
        <ele>627.143663</ele>
        <time>2021-11-21T22:45:45.280Z</time>
      </trkpt>
      <trkpt lat="47.468737" lon="7.942334">
        <ele>623.180991</ele>
        <time>2021-11-21T22:45:50.884Z</time>
      </trkpt>
      <trkpt lat="47.468954" lon="7.942332">
        <ele>621.610502</ele>
        <time>2021-11-21T22:45:53.407Z</time>
      </trkpt>
      <trkpt lat="47.469044" lon="7.942317">
        <ele>620.955039</ele>
        <time>2021-11-21T22:46:04.060Z</time>
      </trkpt>
      <trkpt lat="47.469058" lon="7.942569">
        <ele>619.718043</ele>
        <time>2021-11-21T22:46:05.673Z</time>
      </trkpt>
      <trkpt lat="47.469215" lon="7.943133">
        <ele>616.734045</ele>
        <time>2021-11-21T22:46:26.280Z</time>
      </trkpt>
      <trkpt lat="47.469517" lon="7.943834">
        <ele>613.814770</ele>
        <time>2021-11-21T22:46:44.469Z</time>
      </trkpt>
      <trkpt lat="47.469843" lon="7.944430">
        <ele>621.862953</ele>
        <time>2021-11-21T22:46:49.309Z</time>
      </trkpt>
      <trkpt lat="47.470096" lon="7.944809">
        <ele>627.454466</ele>
        <time>2021-11-21T22:47:30.431Z</time>
      </trkpt>
      <trkpt lat="47.470904" lon="7.946018">
        <ele>641.218434</ele>
        <time>2021-11-21T22:48:59.519Z</time>
      </trkpt>
      <trkpt lat="47.471580" lon="7.947013">
        <ele>642.087895</ele>
        <time>2021-11-21T22:49:10.356Z</time>
      </trkpt>
      <trkpt lat="47.471655" lon="7.947281">
        <ele>642.266664</ele>
        <time>2021-11-21T22:49:12.205Z</time>
      </trkpt>
      <trkpt lat="47.471588" lon="7.947530">
        <ele>642.431839</ele>
        <time>2021-11-21T22:49:14.108Z</time>
      </trkpt>
      <trkpt lat="47.471526" lon="7.947625">
        <ele>642.513226</ele>
        <time>2021-11-21T22:49:14.929Z</time>
      </trkpt>
      <trkpt lat="47.471433" lon="7.947675">
        <ele>642.603446</ele>
        <time>2021-11-21T22:49:15.834Z</time>
      </trkpt>
      <trkpt lat="47.470644" lon="7.947609">
        <ele>636.492620</ele>
        <time>2021-11-21T22:49:23.072Z</time>
      </trkpt>
      <trkpt lat="47.470424" lon="7.947722">
        <ele>634.691063</ele>
        <time>2021-11-21T22:49:25.124Z</time>
      </trkpt>
      <trkpt lat="47.470368" lon="7.947828">
        <ele>633.987560</ele>
        <time>2021-11-21T22:49:25.920Z</time>
      </trkpt>
      <trkpt lat="47.470333" lon="7.948107">
        <ele>632.503692</ele>
        <time>2021-11-21T22:49:27.607Z</time>
      </trkpt>
      <trkpt lat="47.470426" lon="7.948527">
        <ele>630.192583</ele>
        <time>2021-11-21T22:49:30.185Z</time>
      </trkpt>
      <trkpt lat="47.470338" lon="7.948724">
        <ele>628.957813</ele>
        <time>2021-11-21T22:49:31.570Z</time>
      </trkpt>
      <trkpt lat="47.470241" lon="7.948800">
        <ele>627.668437</ele>
        <time>2021-11-21T22:49:32.516Z</time>
      </trkpt>
      <trkpt lat="47.470079" lon="7.948808">
        <ele>625.464284</ele>
        <time>2021-11-21T22:49:33.905Z</time>
      </trkpt>
      <trkpt lat="47.469762" lon="7.948654">
        <ele>620.927134</ele>
        <time>2021-11-21T22:49:36.720Z</time>
      </trkpt>
      <trkpt lat="47.469469" lon="7.948624">
        <ele>616.933296</ele>
        <time>2021-11-21T22:49:39.172Z</time>
      </trkpt>
      <trkpt lat="47.469180" lon="7.948713">
        <ele>612.919132</ele>
        <time>2021-11-21T22:49:41.627Z</time>
      </trkpt>
      <trkpt lat="47.468810" lon="7.949041">
        <ele>607.053517</ele>
        <time>2021-11-21T22:49:45.199Z</time>
      </trkpt>
      <trkpt lat="47.468558" lon="7.949650">
        <ele>600.497683</ele>
        <time>2021-11-21T22:49:49.204Z</time>
      </trkpt>
      <trkpt lat="47.468441" lon="7.950143">
        <ele>595.704756</ele>
        <time>2021-11-21T22:49:52.136Z</time>
      </trkpt>
      <trkpt lat="47.468300" lon="7.950849">
        <ele>588.951816</ele>
        <time>2021-11-21T22:49:56.286Z</time>
      </trkpt>
      <trkpt lat="47.468208" lon="7.951691">
        <ele>581.127799</ele>
        <time>2021-11-21T22:50:01.146Z</time>
      </trkpt>
      <trkpt lat="47.468258" lon="7.952349">
        <ele>576.893162</ele>
        <time>2021-11-21T22:50:04.992Z</time>
      </trkpt>
      <trkpt lat="47.468338" lon="7.952658">
        <ele>575.028256</ele>
        <time>2021-11-21T22:50:06.944Z</time>
      </trkpt>
      <trkpt lat="47.468688" lon="7.953623">
        <ele>568.856078</ele>
        <time>2021-11-21T22:50:13.499Z</time>
      </trkpt>
      <trkpt lat="47.468825" lon="7.953883">
        <ele>566.998126</ele>
        <time>2021-11-21T22:50:15.513Z</time>
      </trkpt>
      <trkpt lat="47.469129" lon="7.954175">
        <ele>564.123475</ele>
        <time>2021-11-21T22:50:18.809Z</time>
      </trkpt>
      <trkpt lat="47.469948" lon="7.954438">
        <ele>558.344757</ele>
        <time>2021-11-21T22:50:26.440Z</time>
      </trkpt>
      <trkpt lat="47.470173" lon="7.954771">
        <ele>556.150219</ele>
        <time>2021-11-21T22:50:29.296Z</time>
      </trkpt>
      <trkpt lat="47.470344" lon="7.955464">
        <ele>552.711676</ele>
        <time>2021-11-21T22:50:33.731Z</time>
      </trkpt>
      <trkpt lat="47.470551" lon="7.956984">
        <ele>544.879796</ele>
        <time>2021-11-21T22:50:43.087Z</time>
      </trkpt>
      <trkpt lat="47.470611" lon="7.957558">
        <ele>541.936703</ele>
        <time>2021-11-21T22:50:46.581Z</time>
      </trkpt>
      <trkpt lat="47.470622" lon="7.958630">
        <ele>536.441865</ele>
        <time>2021-11-21T22:50:53.014Z</time>
      </trkpt>
      <trkpt lat="47.470999" lon="7.960100">
        <ele>528.271760</ele>
        <time>2021-11-21T22:51:02.426Z</time>
      </trkpt>
      <trkpt lat="47.471231" lon="7.960809">
        <ele>524.368626</ele>
        <time>2021-11-21T22:51:07.160Z</time>
      </trkpt>
      <trkpt lat="47.471575" lon="7.961333">
        <ele>521.342557</ele>
        <time>2021-11-21T22:51:11.621Z</time>
      </trkpt>
      <trkpt lat="47.471579" lon="7.961404">
        <ele>521.047405</ele>
        <time>2021-11-21T22:51:12.020Z</time>
      </trkpt>
      <trkpt lat="47.471568" lon="7.961446">
        <ele>520.860807</ele>
        <time>2021-11-21T22:51:12.277Z</time>
      </trkpt>
      <trkpt lat="47.471484" lon="7.961507">
        <ele>520.287320</ele>
        <time>2021-11-21T22:51:13.181Z</time>
      </trkpt>
      <trkpt lat="47.471375" lon="7.961461">
        <ele>519.592645</ele>
        <time>2021-11-21T22:51:14.293Z</time>
      </trkpt>
      <trkpt lat="47.470924" lon="7.960881">
        <ele>515.930231</ele>
        <time>2021-11-21T22:51:19.732Z</time>
      </trkpt>
      <trkpt lat="47.470268" lon="7.959615">
        <ele>511.391116</ele>
        <time>2021-11-21T22:51:30.431Z</time>
      </trkpt>
      <trkpt lat="47.469974" lon="7.958722">
        <ele>509.060905</ele>
        <time>2021-11-21T22:51:37.354Z</time>
      </trkpt>
      <trkpt lat="47.469781" lon="7.958087">
        <ele>507.278612</ele>
        <time>2021-11-21T22:51:42.148Z</time>
      </trkpt>
      <trkpt lat="47.469604" lon="7.957623">
        <ele>505.588675</ele>
        <time>2021-11-21T22:51:45.698Z</time>
      </trkpt>
      <trkpt lat="47.469296" lon="7.957034">
        <ele>503.226663</ele>
        <time>2021-11-21T22:51:50.581Z</time>
      </trkpt>
      <trkpt lat="47.469049" lon="7.956742">
        <ele>501.743039</ele>
        <time>2021-11-21T22:51:53.656Z</time>
      </trkpt>
      <trkpt lat="47.468875" lon="7.956583">
        <ele>500.783367</ele>
        <time>2021-11-21T22:51:55.509Z</time>
      </trkpt>
      <trkpt lat="47.468475" lon="7.956375">
        <ele>498.287877</ele>
        <time>2021-11-21T22:51:59.316Z</time>
      </trkpt>
      <trkpt lat="47.468322" lon="7.956470">
        <ele>496.870727</ele>
        <time>2021-11-21T22:52:00.910Z</time>
      </trkpt>
      <trkpt lat="47.468267" lon="7.956746">
        <ele>495.209471</ele>
        <time>2021-11-21T22:52:02.661Z</time>
      </trkpt>
      <trkpt lat="47.468479" lon="7.957453">
        <ele>490.744118</ele>
        <time>2021-11-21T22:52:07.260Z</time>
      </trkpt>
      <trkpt lat="47.468507" lon="7.957558">
        <ele>490.092449</ele>
        <time>2021-11-21T22:52:07.927Z</time>
      </trkpt>
      <trkpt lat="47.468524" lon="7.957646">
        <ele>489.564052</ele>
        <time>2021-11-21T22:52:08.444Z</time>
      </trkpt>
      <trkpt lat="47.468536" lon="7.958296">
        <ele>485.809949</ele>
        <time>2021-11-21T22:52:12.283Z</time>
      </trkpt>
      <trkpt lat="47.468627" lon="7.958965">
        <ele>481.251716</ele>
        <time>2021-11-21T22:52:16.217Z</time>
      </trkpt>
      <trkpt lat="47.468637" lon="7.959076">
        <ele>480.421738</ele>
        <time>2021-11-21T22:52:16.841Z</time>
      </trkpt>
      <trkpt lat="47.468641" lon="7.959158">
        <ele>479.812395</ele>
        <time>2021-11-21T22:52:17.334Z</time>
      </trkpt>
      <trkpt lat="47.468645" lon="7.959223">
        <ele>479.328639</ele>
        <time>2021-11-21T22:52:17.704Z</time>
      </trkpt>
      <trkpt lat="47.468655" lon="7.959428">
        <ele>477.805280</ele>
        <time>2021-11-21T22:52:18.894Z</time>
      </trkpt>
      <trkpt lat="47.468634" lon="7.959800">
        <ele>475.038513</ele>
        <time>2021-11-21T22:52:21.021Z</time>
      </trkpt>
      <trkpt lat="47.468516" lon="7.960416">
        <ele>470.293099</ele>
        <time>2021-11-21T22:52:24.722Z</time>
      </trkpt>
      <trkpt lat="47.468503" lon="7.960562">
        <ele>469.201634</ele>
        <time>2021-11-21T22:52:25.547Z</time>
      </trkpt>
      <trkpt lat="47.468498" lon="7.960883">
        <ele>466.821825</ele>
        <time>2021-11-21T22:52:27.424Z</time>
      </trkpt>
      <trkpt lat="47.468509" lon="7.961184">
        <ele>464.587625</ele>
        <time>2021-11-21T22:52:29.126Z</time>
      </trkpt>
      <trkpt lat="47.468616" lon="7.962000">
        <ele>460.259100</ele>
        <time>2021-11-21T22:52:34.059Z</time>
      </trkpt>
      <trkpt lat="47.469373" lon="7.963006">
        <ele>452.565674</ele>
        <time>2021-11-21T22:52:43.134Z</time>
      </trkpt>
      <trkpt lat="47.469749" lon="7.963424">
        <ele>449.831708</ele>
        <time>2021-11-21T22:52:47.598Z</time>
      </trkpt>
      <trkpt lat="47.470318" lon="7.964176">
        <ele>446.819065</ele>
        <time>2021-11-21T22:52:55.060Z</time>
      </trkpt>
      <trkpt lat="47.470351" lon="7.964220">
        <ele>446.643654</ele>
        <time>2021-11-21T22:52:55.477Z</time>
      </trkpt>
      <trkpt lat="47.470610" lon="7.964511">
        <ele>445.359503</ele>
        <time>2021-11-21T22:52:58.734Z</time>
      </trkpt>
      <trkpt lat="47.471250" lon="7.965231">
        <ele>442.330323</ele>
        <time>2021-11-21T22:53:07.124Z</time>
      </trkpt>
      <trkpt lat="47.471503" lon="7.965463">
        <ele>441.273484</ele>
        <time>2021-11-21T22:53:10.102Z</time>
      </trkpt>
      <trkpt lat="47.471880" lon="7.965766">
        <ele>439.750177</ele>
        <time>2021-11-21T22:53:14.385Z</time>
      </trkpt>
      <trkpt lat="47.472564" lon="7.966330">
        <ele>436.901716</ele>
        <time>2021-11-21T22:53:22.121Z</time>
      </trkpt>
      <trkpt lat="47.472594" lon="7.966357">
        <ele>436.745833</ele>
        <time>2021-11-21T22:53:22.426Z</time>
      </trkpt>
      <trkpt lat="47.472859" lon="7.966644">
        <ele>435.287928</ele>
        <time>2021-11-21T22:53:25.574Z</time>
      </trkpt>
      <trkpt lat="47.473444" lon="7.967380">
        <ele>431.878953</ele>
        <time>2021-11-21T22:53:32.849Z</time>
      </trkpt>
      <trkpt lat="47.473664" lon="7.967490">
        <ele>430.848070</ele>
        <time>2021-11-21T22:53:35.107Z</time>
      </trkpt>
      <trkpt lat="47.474076" lon="7.967608">
        <ele>429.126170</ele>
        <time>2021-11-21T22:53:39.071Z</time>
      </trkpt>
      <trkpt lat="47.474238" lon="7.967666">
        <ele>428.768781</ele>
        <time>2021-11-21T22:53:40.716Z</time>
      </trkpt>
      <trkpt lat="47.474560" lon="7.967748">
        <ele>428.068192</ele>
        <time>2021-11-21T22:53:44.011Z</time>
      </trkpt>
      <trkpt lat="47.475217" lon="7.967697">
        <ele>426.657507</ele>
        <time>2021-11-21T22:53:51.296Z</time>
      </trkpt>
      <trkpt lat="47.475280" lon="7.967711">
        <ele>426.520907</ele>
        <time>2021-11-21T22:53:52.000Z</time>
      </trkpt>
      <trkpt lat="47.475359" lon="7.967770">
        <ele>426.331156</ele>
        <time>2021-11-21T22:53:53.034Z</time>
      </trkpt>
      <trkpt lat="47.475436" lon="7.967868">
        <ele>426.113367</ele>
        <time>2021-11-21T22:53:54.372Z</time>
      </trkpt>
      <trkpt lat="47.475607" lon="7.968209">
        <ele>425.497998</ele>
        <time>2021-11-21T22:53:58.151Z</time>
      </trkpt>
      <trkpt lat="47.475616" lon="7.968229">
        <ele>425.463176</ele>
        <time>2021-11-21T22:53:58.424Z</time>
      </trkpt>
      <trkpt lat="47.475616" lon="7.968229">
        <ele>425.463176</ele>
        <time>2021-11-21T22:53:58.437Z</time>
      </trkpt>
      <trkpt lat="47.475684" lon="7.968334">
        <ele>425.386789</ele>
        <time>2021-11-21T22:54:00.098Z</time>
      </trkpt>
      <trkpt lat="47.475729" lon="7.968403">
        <ele>425.373304</ele>
        <time>2021-11-21T22:54:01.140Z</time>
      </trkpt>
      <trkpt lat="47.475871" lon="7.968576">
        <ele>425.335029</ele>
        <time>2021-11-21T22:54:03.525Z</time>
      </trkpt>
      <trkpt lat="47.476103" lon="7.968806">
        <ele>425.276921</ele>
        <time>2021-11-21T22:54:07.283Z</time>
      </trkpt>
      <trkpt lat="47.476327" lon="7.969094">
        <ele>425.215172</ele>
        <time>2021-11-21T22:54:11.301Z</time>
      </trkpt>
      <trkpt lat="47.476396" lon="7.969182">
        <ele>425.196217</ele>
        <time>2021-11-21T22:54:12.515Z</time>
      </trkpt>
      <trkpt lat="47.476670" lon="7.969631">
        <ele>425.111142</ele>
        <time>2021-11-21T22:54:18.846Z</time>
      </trkpt>
      <trkpt lat="47.476944" lon="7.970103">
        <ele>424.998550</ele>
        <time>2021-11-21T22:54:25.777Z</time>
      </trkpt>
      <trkpt lat="47.477029" lon="7.970212">
        <ele>424.799232</ele>
        <time>2021-11-21T22:54:27.253Z</time>
      </trkpt>
      <trkpt lat="47.477135" lon="7.970342">
        <ele>424.555261</ele>
        <time>2021-11-21T22:54:29.678Z</time>
      </trkpt>
      <trkpt lat="47.477203" lon="7.970445">
        <ele>424.382819</ele>
        <time>2021-11-21T22:54:30.944Z</time>
      </trkpt>
      <trkpt lat="47.477262" lon="7.970548">
        <ele>424.221117</ele>
        <time>2021-11-21T22:54:32.024Z</time>
      </trkpt>
      <trkpt lat="47.477284" lon="7.970600">
        <ele>424.147644</ele>
        <time>2021-11-21T22:54:32.523Z</time>
      </trkpt>
      <trkpt lat="47.477322" lon="7.970682">
        <ele>424.028569</ele>
        <time>2021-11-21T22:54:33.577Z</time>
      </trkpt>
      <trkpt lat="47.477370" lon="7.970827">
        <ele>423.835199</ele>
        <time>2021-11-21T22:54:34.887Z</time>
      </trkpt>
      <trkpt lat="47.477522" lon="7.971381">
        <ele>423.119116</ele>
        <time>2021-11-21T22:54:39.549Z</time>
      </trkpt>
      <trkpt lat="47.477553" lon="7.971461">
        <ele>423.008674</ele>
        <time>2021-11-21T22:54:40.149Z</time>
      </trkpt>
      <trkpt lat="47.477623" lon="7.971640">
        <ele>422.760997</ele>
        <time>2021-11-21T22:54:41.600Z</time>
      </trkpt>
      <trkpt lat="47.477698" lon="7.971759">
        <ele>422.566128</ele>
        <time>2021-11-21T22:54:42.883Z</time>
      </trkpt>
      <trkpt lat="47.477778" lon="7.971876">
        <ele>422.366803</ele>
        <time>2021-11-21T22:54:43.974Z</time>
      </trkpt>
      <trkpt lat="47.478083" lon="7.972275">
        <ele>421.381285</ele>
        <time>2021-11-21T22:54:47.996Z</time>
      </trkpt>
      <trkpt lat="47.478198" lon="7.972475">
        <ele>420.639608</ele>
        <time>2021-11-21T22:54:49.898Z</time>
      </trkpt>
      <trkpt lat="47.478213" lon="7.972508">
        <ele>420.527280</ele>
        <time>2021-11-21T22:54:50.154Z</time>
      </trkpt>
      <trkpt lat="47.478295" lon="7.972689">
        <ele>419.911817</ele>
        <time>2021-11-21T22:54:51.539Z</time>
      </trkpt>
      <trkpt lat="47.478424" lon="7.973015">
        <ele>418.844821</ele>
        <time>2021-11-21T22:54:54.089Z</time>
      </trkpt>
      <trkpt lat="47.478494" lon="7.973191">
        <ele>418.268023</ele>
        <time>2021-11-21T22:54:55.345Z</time>
      </trkpt>
      <trkpt lat="47.478606" lon="7.973396">
        <ele>417.523481</ele>
        <time>2021-11-21T22:54:57.157Z</time>
      </trkpt>
      <trkpt lat="47.478952" lon="7.973850">
        <ele>415.590833</ele>
        <time>2021-11-21T22:55:01.537Z</time>
      </trkpt>
      <trkpt lat="47.479061" lon="7.974014">
        <ele>414.941169</ele>
        <time>2021-11-21T22:55:03.033Z</time>
      </trkpt>
      <trkpt lat="47.479095" lon="7.974066">
        <ele>414.736815</ele>
        <time>2021-11-21T22:55:03.558Z</time>
      </trkpt>
      <trkpt lat="47.479172" lon="7.974215">
        <ele>414.221571</ele>
        <time>2021-11-21T22:55:04.761Z</time>
      </trkpt>
      <trkpt lat="47.479198" lon="7.974266">
        <ele>414.063716</ele>
        <time>2021-11-21T22:55:05.153Z</time>
      </trkpt>
      <trkpt lat="47.479256" lon="7.974388">
        <ele>413.695137</ele>
        <time>2021-11-21T22:55:06.088Z</time>
      </trkpt>
      <trkpt lat="47.479521" lon="7.975122">
        <ele>411.638836</ele>
        <time>2021-11-21T22:55:11.502Z</time>
      </trkpt>
      <trkpt lat="47.479548" lon="7.975187">
        <ele>411.450309</ele>
        <time>2021-11-21T22:55:11.996Z</time>
      </trkpt>
      <trkpt lat="47.479650" lon="7.975428">
        <ele>410.747661</ele>
        <time>2021-11-21T22:55:13.887Z</time>
      </trkpt>
      <trkpt lat="47.479662" lon="7.975458">
        <ele>410.661520</ele>
        <time>2021-11-21T22:55:14.136Z</time>
      </trkpt>
      <trkpt lat="47.479744" lon="7.975611">
        <ele>410.179009</ele>
        <time>2021-11-21T22:55:15.427Z</time>
      </trkpt>
      <trkpt lat="47.480019" lon="7.976061">
        <ele>408.679891</ele>
        <time>2021-11-21T22:55:19.707Z</time>
      </trkpt>
      <trkpt lat="47.480172" lon="7.976321">
        <ele>407.828027</ele>
        <time>2021-11-21T22:55:22.181Z</time>
      </trkpt>
      <trkpt lat="47.480206" lon="7.976401">
        <ele>407.652223</ele>
        <time>2021-11-21T22:55:22.855Z</time>
      </trkpt>
      <trkpt lat="47.480258" lon="7.976521">
        <ele>407.433272</ele>
        <time>2021-11-21T22:55:24.016Z</time>
      </trkpt>
      <trkpt lat="47.480294" lon="7.976615">
        <ele>407.267319</ele>
        <time>2021-11-21T22:55:24.755Z</time>
      </trkpt>
      <trkpt lat="47.480540" lon="7.977249">
        <ele>406.144431</ele>
        <time>2021-11-21T22:55:30.015Z</time>
      </trkpt>
      <trkpt lat="47.481057" lon="7.978315">
        <ele>404.129124</ele>
        <time>2021-11-21T22:55:39.554Z</time>
      </trkpt>
      <trkpt lat="47.481075" lon="7.978353">
        <ele>404.057849</ele>
        <time>2021-11-21T22:55:39.850Z</time>
      </trkpt>
      <trkpt lat="47.481331" lon="7.978796">
        <ele>403.297396</ele>
        <time>2021-11-21T22:55:44.176Z</time>
      </trkpt>
      <trkpt lat="47.481417" lon="7.978989">
        <ele>403.038692</ele>
        <time>2021-11-21T22:55:45.995Z</time>
      </trkpt>
      <trkpt lat="47.481508" lon="7.979190">
        <ele>402.767949</ele>
        <time>2021-11-21T22:55:47.790Z</time>
      </trkpt>
      <trkpt lat="47.481627" lon="7.979494">
        <ele>402.374802</ele>
        <time>2021-11-21T22:55:50.599Z</time>
      </trkpt>
      <trkpt lat="47.481673" lon="7.979611">
        <ele>402.223326</ele>
        <time>2021-11-21T22:55:51.627Z</time>
      </trkpt>
      <trkpt lat="47.481757" lon="7.979824">
        <ele>401.947348</ele>
        <time>2021-11-21T22:55:53.525Z</time>
      </trkpt>
      <trkpt lat="47.481977" lon="7.980334">
        <ele>401.270267</ele>
        <time>2021-11-21T22:55:58.220Z</time>
      </trkpt>
      <trkpt lat="47.482025" lon="7.980480">
        <ele>401.088576</ele>
        <time>2021-11-21T22:55:59.446Z</time>
      </trkpt>
      <trkpt lat="47.482099" lon="7.980698">
        <ele>400.815574</ele>
        <time>2021-11-21T22:56:01.349Z</time>
      </trkpt>
      <trkpt lat="47.482159" lon="7.980898">
        <ele>400.591159</ele>
        <time>2021-11-21T22:56:03.064Z</time>
      </trkpt>
      <trkpt lat="47.482458" lon="7.981897">
        <ele>399.595347</ele>
        <time>2021-11-21T22:56:11.597Z</time>
      </trkpt>
      <trkpt lat="47.482472" lon="7.981944">
        <ele>399.548534</ele>
        <time>2021-11-21T22:56:11.991Z</time>
      </trkpt>
      <trkpt lat="47.482563" lon="7.982231">
        <ele>399.259596</ele>
        <time>2021-11-21T22:56:14.601Z</time>
      </trkpt>
      <trkpt lat="47.482594" lon="7.982339">
        <ele>399.152652</ele>
        <time>2021-11-21T22:56:15.530Z</time>
      </trkpt>
      <trkpt lat="47.482652" lon="7.982524">
        <ele>398.966779</ele>
        <time>2021-11-21T22:56:17.140Z</time>
      </trkpt>
      <trkpt lat="47.482704" lon="7.982687">
        <ele>398.802497</ele>
        <time>2021-11-21T22:56:18.661Z</time>
      </trkpt>
      <trkpt lat="47.482729" lon="7.982770">
        <ele>398.719676</ele>
        <time>2021-11-21T22:56:19.395Z</time>
      </trkpt>
      <trkpt lat="47.482840" lon="7.983205">
        <ele>398.295889</ele>
        <time>2021-11-21T22:56:23.172Z</time>
      </trkpt>
      <trkpt lat="47.482897" lon="7.983529">
        <ele>397.930391</ele>
        <time>2021-11-21T22:56:25.808Z</time>
      </trkpt>
      <trkpt lat="47.483001" lon="7.984129">
        <ele>397.237022</ele>
        <time>2021-11-21T22:56:30.603Z</time>
      </trkpt>
      <trkpt lat="47.483130" lon="7.984873">
        <ele>396.377228</ele>
        <time>2021-11-21T22:56:36.382Z</time>
      </trkpt>
      <trkpt lat="47.483153" lon="7.984996">
        <ele>396.234371</ele>
        <time>2021-11-21T22:56:37.339Z</time>
      </trkpt>
      <trkpt lat="47.483173" lon="7.985106">
        <ele>396.106861</ele>
        <time>2021-11-21T22:56:38.209Z</time>
      </trkpt>
      <trkpt lat="47.483274" lon="7.985553">
        <ele>395.579273</ele>
        <time>2021-11-21T22:56:41.770Z</time>
      </trkpt>
      <trkpt lat="47.483382" lon="7.985915">
        <ele>395.106039</ele>
        <time>2021-11-21T22:56:44.807Z</time>
      </trkpt>
      <trkpt lat="47.483462" lon="7.986151">
        <ele>394.746428</ele>
        <time>2021-11-21T22:56:46.812Z</time>
      </trkpt>
      <trkpt lat="47.483550" lon="7.986378">
        <ele>394.389988</ele>
        <time>2021-11-21T22:56:48.782Z</time>
      </trkpt>
      <trkpt lat="47.483775" lon="7.986910">
        <ele>393.535190</ele>
        <time>2021-11-21T22:56:53.442Z</time>
      </trkpt>
      <trkpt lat="47.484569" lon="7.988582">
        <ele>390.948637</ele>
        <time>2021-11-21T22:57:08.343Z</time>
      </trkpt>
      <trkpt lat="47.485480" lon="7.990116">
        <ele>388.800903</ele>
        <time>2021-11-21T22:57:24.404Z</time>
      </trkpt>
      <trkpt lat="47.485638" lon="7.990371">
        <ele>388.645099</ele>
        <time>2021-11-21T22:57:27.264Z</time>
      </trkpt>
      <trkpt lat="47.485781" lon="7.990604">
        <ele>388.503353</ele>
        <time>2021-11-21T22:57:29.890Z</time>
      </trkpt>
      <trkpt lat="47.486196" lon="7.991276">
        <ele>388.093386</ele>
        <time>2021-11-21T22:57:37.864Z</time>
      </trkpt>
      <trkpt lat="47.486319" lon="7.991471">
        <ele>387.973259</ele>
        <time>2021-11-21T22:57:40.302Z</time>
      </trkpt>
      <trkpt lat="47.486334" lon="7.991668">
        <ele>387.883980</ele>
        <time>2021-11-21T22:57:42.853Z</time>
      </trkpt>
      <trkpt lat="47.486383" lon="7.991737">
        <ele>387.838904</ele>
        <time>2021-11-21T22:57:44.137Z</time>
      </trkpt>
      <trkpt lat="47.486774" lon="7.992339">
        <ele>387.409192</ele>
        <time>2021-11-21T22:57:54.956Z</time>
      </trkpt>
      <trkpt lat="47.487213" lon="7.993014">
        <ele>386.843704</ele>
        <time>2021-11-21T22:58:06.492Z</time>
      </trkpt>
      <trkpt lat="47.487633" lon="7.993524">
        <ele>386.358408</ele>
        <time>2021-11-21T22:58:15.862Z</time>
      </trkpt>
      <trkpt lat="47.488246" lon="7.994102">
        <ele>385.434665</ele>
        <time>2021-11-21T22:58:27.914Z</time>
      </trkpt>
      <trkpt lat="47.488959" lon="7.994757">
        <ele>384.010094</ele>
        <time>2021-11-21T22:58:41.452Z</time>
      </trkpt>
      <trkpt lat="47.489284" lon="7.995053">
        <ele>383.362293</ele>
        <time>2021-11-21T22:58:47.577Z</time>
      </trkpt>
      <trkpt lat="47.490780" lon="7.996642">
        <ele>379.902837</ele>
        <time>2021-11-21T22:59:16.895Z</time>
      </trkpt>
      <trkpt lat="47.491680" lon="7.997343">
        <ele>377.721029</ele>
        <time>2021-11-21T22:59:32.705Z</time>
      </trkpt>
      <trkpt lat="47.491748" lon="7.997367">
        <ele>377.567114</ele>
        <time>2021-11-21T22:59:33.668Z</time>
      </trkpt>
      <trkpt lat="47.491854" lon="7.997405">
        <ele>377.326982</ele>
        <time>2021-11-21T22:59:35.395Z</time>
      </trkpt>
      <trkpt lat="47.491886" lon="7.997365">
        <ele>377.234760</ele>
        <time>2021-11-21T22:59:36.024Z</time>
      </trkpt>
      <trkpt lat="47.492317" lon="7.997637">
        <ele>376.203146</ele>
        <time>2021-11-21T22:59:41.099Z</time>
      </trkpt>
      <trkpt lat="47.492477" lon="7.997747">
        <ele>375.814717</ele>
        <time>2021-11-21T22:59:42.977Z</time>
      </trkpt>
      <trkpt lat="47.492617" lon="7.997908">
        <ele>375.489754</ele>
        <time>2021-11-21T22:59:44.935Z</time>
      </trkpt>
      <trkpt lat="47.492722" lon="7.998050">
        <ele>375.313837</ele>
        <time>2021-11-21T22:59:46.459Z</time>
      </trkpt>
      <trkpt lat="47.492747" lon="7.998084">
        <ele>375.271845</ele>
        <time>2021-11-21T22:59:46.853Z</time>
      </trkpt>
      <trkpt lat="47.492877" lon="7.998257">
        <ele>375.055620</ele>
        <time>2021-11-21T22:59:48.775Z</time>
      </trkpt>
      <trkpt lat="47.493144" lon="7.998645">
        <ele>374.592819</ele>
        <time>2021-11-21T22:59:52.905Z</time>
      </trkpt>
      <trkpt lat="47.493296" lon="7.998833">
        <ele>374.347820</ele>
        <time>2021-11-21T22:59:55.414Z</time>
      </trkpt>
      <trkpt lat="47.493358" lon="7.998911">
        <ele>374.247177</ele>
        <time>2021-11-21T22:59:56.345Z</time>
      </trkpt>
      <trkpt lat="47.493433" lon="7.998996">
        <ele>374.130344</ele>
        <time>2021-11-21T22:59:57.549Z</time>
      </trkpt>
      <trkpt lat="47.493502" lon="7.999071">
        <ele>374.024461</ele>
        <time>2021-11-21T22:59:58.690Z</time>
      </trkpt>
      <trkpt lat="47.493603" lon="7.999152">
        <ele>373.882383</ele>
        <time>2021-11-21T23:00:00.128Z</time>
      </trkpt>
      <trkpt lat="47.493742" lon="7.999216">
        <ele>373.702341</ele>
        <time>2021-11-21T23:00:01.951Z</time>
      </trkpt>
      <trkpt lat="47.493937" lon="7.999285">
        <ele>373.454367</ele>
        <time>2021-11-21T23:00:04.644Z</time>
      </trkpt>
      <trkpt lat="47.493961" lon="7.999292">
        <ele>373.424113</ele>
        <time>2021-11-21T23:00:04.917Z</time>
      </trkpt>
      <trkpt lat="47.494272" lon="7.999381">
        <ele>373.262519</ele>
        <time>2021-11-21T23:00:09.419Z</time>
      </trkpt>
      <trkpt lat="47.494489" lon="7.999417">
        <ele>373.188756</ele>
        <time>2021-11-21T23:00:12.690Z</time>
      </trkpt>
      <trkpt lat="47.494643" lon="7.999430">
        <ele>373.136650</ele>
        <time>2021-11-21T23:00:15.114Z</time>
      </trkpt>
      <trkpt lat="47.494812" lon="7.999457">
        <ele>373.079230</ele>
        <time>2021-11-21T23:00:17.525Z</time>
      </trkpt>
      <trkpt lat="47.495197" lon="7.999589">
        <ele>372.945732</ele>
        <time>2021-11-21T23:00:23.084Z</time>
      </trkpt>
      <trkpt lat="47.495430" lon="7.999752">
        <ele>372.858674</ele>
        <time>2021-11-21T23:00:26.594Z</time>
      </trkpt>
      <trkpt lat="47.495718" lon="8.000005">
        <ele>372.745541</ele>
        <time>2021-11-21T23:00:31.103Z</time>
      </trkpt>
      <trkpt lat="47.496011" lon="8.000286">
        <ele>372.320459</ele>
        <time>2021-11-21T23:00:35.562Z</time>
      </trkpt>
      <trkpt lat="47.496234" lon="8.000584">
        <ele>371.945090</ele>
        <time>2021-11-21T23:00:39.212Z</time>
      </trkpt>
      <trkpt lat="47.496272" lon="8.000651">
        <ele>371.871248</ele>
        <time>2021-11-21T23:00:40.099Z</time>
      </trkpt>
      <trkpt lat="47.496280" lon="8.000664">
        <ele>371.856405</ele>
        <time>2021-11-21T23:00:40.236Z</time>
      </trkpt>
      <trkpt lat="47.496429" lon="8.000925">
        <ele>371.567971</ele>
        <time>2021-11-21T23:00:42.883Z</time>
      </trkpt>
      <trkpt lat="47.496517" lon="8.001077">
        <ele>371.399002</ele>
        <time>2021-11-21T23:00:44.634Z</time>
      </trkpt>
      <trkpt lat="47.496533" lon="8.001104">
        <ele>371.368687</ele>
        <time>2021-11-21T23:00:44.868Z</time>
      </trkpt>
      <trkpt lat="47.496535" lon="8.001108">
        <ele>371.364486</ele>
        <time>2021-11-21T23:00:44.908Z</time>
      </trkpt>
      <trkpt lat="47.496585" lon="8.001187">
        <ele>371.273111</ele>
        <time>2021-11-21T23:00:45.739Z</time>
      </trkpt>
      <trkpt lat="47.496820" lon="8.001547">
        <ele>370.850562</ele>
        <time>2021-11-21T23:00:49.618Z</time>
      </trkpt>
      <trkpt lat="47.496861" lon="8.001608">
        <ele>370.777931</ele>
        <time>2021-11-21T23:00:50.258Z</time>
      </trkpt>
      <trkpt lat="47.496908" lon="8.001680">
        <ele>370.693421</ele>
        <time>2021-11-21T23:00:51.013Z</time>
      </trkpt>
      <trkpt lat="47.496932" lon="8.001715">
        <ele>370.651327</ele>
        <time>2021-11-21T23:00:51.379Z</time>
      </trkpt>
      <trkpt lat="47.497207" lon="8.002132">
        <ele>369.997849</ele>
        <time>2021-11-21T23:00:55.683Z</time>
      </trkpt>
      <trkpt lat="47.497264" lon="8.002219">
        <ele>369.846176</ele>
        <time>2021-11-21T23:00:56.642Z</time>
      </trkpt>
      <trkpt lat="47.497307" lon="8.002279">
        <ele>369.736706</ele>
        <time>2021-11-21T23:00:57.255Z</time>
      </trkpt>
      <trkpt lat="47.497390" lon="8.002409">
        <ele>369.512852</ele>
        <time>2021-11-21T23:00:58.633Z</time>
      </trkpt>
      <trkpt lat="47.497540" lon="8.002634">
        <ele>369.117246</ele>
        <time>2021-11-21T23:01:01.007Z</time>
      </trkpt>
      <trkpt lat="47.497607" lon="8.002710">
        <ele>368.960877</ele>
        <time>2021-11-21T23:01:01.956Z</time>
      </trkpt>
      <trkpt lat="47.497951" lon="8.003094">
        <ele>368.162736</ele>
        <time>2021-11-21T23:01:06.785Z</time>
      </trkpt>
      <trkpt lat="47.498072" lon="8.003250">
        <ele>367.865485</ele>
        <time>2021-11-21T23:01:08.516Z</time>
      </trkpt>
      <trkpt lat="47.498166" lon="8.003383">
        <ele>367.624597</ele>
        <time>2021-11-21T23:01:09.995Z</time>
      </trkpt>
      <trkpt lat="47.498213" lon="8.003454">
        <ele>367.500195</ele>
        <time>2021-11-21T23:01:10.762Z</time>
      </trkpt>
      <trkpt lat="47.498450" lon="8.003874">
        <ele>366.886055</ele>
        <time>2021-11-21T23:01:14.881Z</time>
      </trkpt>
      <trkpt lat="47.498698" lon="8.004313">
        <ele>366.315820</ele>
        <time>2021-11-21T23:01:19.137Z</time>
      </trkpt>
      <trkpt lat="47.498753" lon="8.004410">
        <ele>366.189631</ele>
        <time>2021-11-21T23:01:20.087Z</time>
      </trkpt>
      <trkpt lat="47.498898" lon="8.004636">
        <ele>365.879057</ele>
        <time>2021-11-21T23:01:22.479Z</time>
      </trkpt>
      <trkpt lat="47.498965" lon="8.004710">
        <ele>365.755756</ele>
        <time>2021-11-21T23:01:23.475Z</time>
      </trkpt>
      <trkpt lat="47.499012" lon="8.004762">
        <ele>365.669208</ele>
        <time>2021-11-21T23:01:24.165Z</time>
      </trkpt>
      <trkpt lat="47.499183" lon="8.004875">
        <ele>365.392998</ele>
        <time>2021-11-21T23:01:26.408Z</time>
      </trkpt>
      <trkpt lat="47.499409" lon="8.005000">
        <ele>365.037148</ele>
        <time>2021-11-21T23:01:29.346Z</time>
      </trkpt>
      <trkpt lat="47.499496" lon="8.005059">
        <ele>364.896001</ele>
        <time>2021-11-21T23:01:30.720Z</time>
      </trkpt>
      <trkpt lat="47.499523" lon="8.005078">
        <ele>364.851906</ele>
        <time>2021-11-21T23:01:30.985Z</time>
      </trkpt>
      <trkpt lat="47.499770" lon="8.005268">
        <ele>364.477203</ele>
        <time>2021-11-21T23:01:34.656Z</time>
      </trkpt>
      <trkpt lat="47.499856" lon="8.005338">
        <ele>364.408621</ele>
        <time>2021-11-21T23:01:35.645Z</time>
      </trkpt>
      <trkpt lat="47.499880" lon="8.005358">
        <ele>364.389375</ele>
        <time>2021-11-21T23:01:35.982Z</time>
      </trkpt>
      <trkpt lat="47.499991" lon="8.005468">
        <ele>364.296031</ele>
        <time>2021-11-21T23:01:37.675Z</time>
      </trkpt>
      <trkpt lat="47.500009" lon="8.005488">
        <ele>364.280303</ele>
        <time>2021-11-21T23:01:37.997Z</time>
      </trkpt>
      <trkpt lat="47.500207" lon="8.005727">
        <ele>364.101770</ele>
        <time>2021-11-21T23:01:41.066Z</time>
      </trkpt>
      <trkpt lat="47.500252" lon="8.005784">
        <ele>364.060383</ele>
        <time>2021-11-21T23:01:41.948Z</time>
      </trkpt>
      <trkpt lat="47.500310" lon="8.005852">
        <ele>364.008680</ele>
        <time>2021-11-21T23:01:42.972Z</time>
      </trkpt>
      <trkpt lat="47.500540" lon="8.006079">
        <ele>363.815509</ele>
        <time>2021-11-21T23:01:46.447Z</time>
      </trkpt>
      <trkpt lat="47.500647" lon="8.006180">
        <ele>363.726830</ele>
        <time>2021-11-21T23:01:48.603Z</time>
      </trkpt>
      <trkpt lat="47.500764" lon="8.006290">
        <ele>363.629974</ele>
        <time>2021-11-21T23:01:50.130Z</time>
      </trkpt>
      <trkpt lat="47.500997" lon="8.006551">
        <ele>363.425790</ele>
        <time>2021-11-21T23:01:54.321Z</time>
      </trkpt>
      <trkpt lat="47.501276" lon="8.006911">
        <ele>363.153423</ele>
        <time>2021-11-21T23:01:59.573Z</time>
      </trkpt>
      <trkpt lat="47.501293" lon="8.006936">
        <ele>363.133988</ele>
        <time>2021-11-21T23:01:59.898Z</time>
      </trkpt>
      <trkpt lat="47.501496" lon="8.007247">
        <ele>362.897042</ele>
        <time>2021-11-21T23:02:03.852Z</time>
      </trkpt>
      <trkpt lat="47.501537" lon="8.007308">
        <ele>362.849895</ele>
        <time>2021-11-21T23:02:04.596Z</time>
      </trkpt>
      <trkpt lat="47.501943" lon="8.008353">
        <ele>362.189395</ele>
        <time>2021-11-21T23:02:15.068Z</time>
      </trkpt>
      <trkpt lat="47.502062" lon="8.008650">
        <ele>362.000197</ele>
        <time>2021-11-21T23:02:18.008Z</time>
      </trkpt>
      <trkpt lat="47.502158" lon="8.008808">
        <ele>361.883765</ele>
        <time>2021-11-21T23:02:19.716Z</time>
      </trkpt>
      <trkpt lat="47.502267" lon="8.008979">
        <ele>361.704315</ele>
        <time>2021-11-21T23:02:21.548Z</time>
      </trkpt>
      <trkpt lat="47.502773" lon="8.009928">
        <ele>360.179894</ele>
        <time>2021-11-21T23:02:30.527Z</time>
      </trkpt>
      <trkpt lat="47.502959" lon="8.010415">
        <ele>359.474486</ele>
        <time>2021-11-21T23:02:34.661Z</time>
      </trkpt>
      <trkpt lat="47.503207" lon="8.011279">
        <ele>358.301450</ele>
        <time>2021-11-21T23:02:41.576Z</time>
      </trkpt>
      <trkpt lat="47.503268" lon="8.011479">
        <ele>358.044952</ele>
        <time>2021-11-21T23:02:43.276Z</time>
      </trkpt>
      <trkpt lat="47.503325" lon="8.011662">
        <ele>357.809407</ele>
        <time>2021-11-21T23:02:44.741Z</time>
      </trkpt>
      <trkpt lat="47.503561" lon="8.012433">
        <ele>356.820011</ele>
        <time>2021-11-21T23:02:51.033Z</time>
      </trkpt>
      <trkpt lat="47.503675" lon="8.012805">
        <ele>356.342544</ele>
        <time>2021-11-21T23:02:54.022Z</time>
      </trkpt>
      <trkpt lat="47.503759" lon="8.013139">
        <ele>355.925965</ele>
        <time>2021-11-21T23:02:56.733Z</time>
      </trkpt>
      <trkpt lat="47.503818" lon="8.013443">
        <ele>355.556257</ele>
        <time>2021-11-21T23:02:59.296Z</time>
      </trkpt>
      <trkpt lat="47.503854" lon="8.013721">
        <ele>355.278264</ele>
        <time>2021-11-21T23:03:01.663Z</time>
      </trkpt>
      <trkpt lat="47.503922" lon="8.014235">
        <ele>354.992355</ele>
        <time>2021-11-21T23:03:06.312Z</time>
      </trkpt>
      <trkpt lat="47.504106" lon="8.015484">
        <ele>354.294536</ele>
        <time>2021-11-21T23:03:16.969Z</time>
      </trkpt>
      <trkpt lat="47.504246" lon="8.016448">
        <ele>353.875102</ele>
        <time>2021-11-21T23:03:25.588Z</time>
      </trkpt>
      <trkpt lat="47.504281" lon="8.016674">
        <ele>353.879419</ele>
        <time>2021-11-21T23:03:27.634Z</time>
      </trkpt>
      <trkpt lat="47.504393" lon="8.017182">
        <ele>353.889369</ele>
        <time>2021-11-21T23:03:32.959Z</time>
      </trkpt>
      <trkpt lat="47.504413" lon="8.017267">
        <ele>353.891045</ele>
        <time>2021-11-21T23:03:33.996Z</time>
      </trkpt>
      <trkpt lat="47.504588" lon="8.017986">
        <ele>353.905274</ele>
        <time>2021-11-21T23:03:42.481Z</time>
      </trkpt>
      <trkpt lat="47.504626" lon="8.018141">
        <ele>353.908344</ele>
        <time>2021-11-21T23:03:44.159Z</time>
      </trkpt>
      <trkpt lat="47.504819" lon="8.018974">
        <ele>354.000243</ele>
        <time>2021-11-21T23:03:52.966Z</time>
      </trkpt>
      <trkpt lat="47.504877" lon="8.019222">
        <ele>354.097755</ele>
        <time>2021-11-21T23:03:55.827Z</time>
      </trkpt>
      <trkpt lat="47.504998" lon="8.019743">
        <ele>354.302455</ele>
        <time>2021-11-21T23:04:01.783Z</time>
      </trkpt>
      <trkpt lat="47.505207" lon="8.020615">
        <ele>354.646237</ele>
        <time>2021-11-21T23:04:13.231Z</time>
      </trkpt>
      <trkpt lat="47.505291" lon="8.020961">
        <ele>354.782844</ele>
        <time>2021-11-21T23:04:18.527Z</time>
      </trkpt>
      <trkpt lat="47.505529" lon="8.021539">
        <ele>354.909189</ele>
        <time>2021-11-21T23:04:26.286Z</time>
      </trkpt>
      <trkpt lat="47.505600" lon="8.021664">
        <ele>354.908769</ele>
        <time>2021-11-21T23:04:27.546Z</time>
      </trkpt>
      <trkpt lat="47.505653" lon="8.021731">
        <ele>354.908504</ele>
        <time>2021-11-21T23:04:28.508Z</time>
      </trkpt>
      <trkpt lat="47.505626" lon="8.021792">
        <ele>354.908316</ele>
        <time>2021-11-21T23:04:30.127Z</time>
      </trkpt>
      <trkpt lat="47.505164" lon="8.022351">
        <ele>354.906046</ele>
        <time>2021-11-21T23:04:37.945Z</time>
      </trkpt>
      <trkpt lat="47.505091" lon="8.022464">
        <ele>354.905644</ele>
        <time>2021-11-21T23:04:40.172Z</time>
      </trkpt>
      <trkpt lat="47.505041" lon="8.022652">
        <ele>354.905125</ele>
        <time>2021-11-21T23:04:41.977Z</time>
      </trkpt>
      <trkpt lat="47.505017" lon="8.022771">
        <ele>354.904806</ele>
        <time>2021-11-21T23:04:42.949Z</time>
      </trkpt>
      <trkpt lat="47.504993" lon="8.022933">
        <ele>354.904380</ele>
        <time>2021-11-21T23:04:44.522Z</time>
      </trkpt>
      <trkpt lat="47.504975" lon="8.023185">
        <ele>354.903728</ele>
        <time>2021-11-21T23:04:47.535Z</time>
      </trkpt>
      <trkpt lat="47.504983" lon="8.023284">
        <ele>354.903472</ele>
        <time>2021-11-21T23:04:48.330Z</time>
      </trkpt>
      <trkpt lat="47.505029" lon="8.023398">
        <ele>354.898025</ele>
        <time>2021-11-21T23:04:49.459Z</time>
      </trkpt>
      <trkpt lat="47.505657" lon="8.024171">
        <ele>354.682193</ele>
        <time>2021-11-21T23:05:01.699Z</time>
      </trkpt>
      <trkpt lat="47.505697" lon="8.024216">
        <ele>354.668916</ele>
        <time>2021-11-21T23:05:02.242Z</time>
      </trkpt>
      <trkpt lat="47.505612" lon="8.024383">
        <ele>354.631589</ele>
        <time>2021-11-21T23:05:03.992Z</time>
      </trkpt>
      <trkpt lat="47.505559" lon="8.024486">
        <ele>354.608475</ele>
        <time>2021-11-21T23:05:04.994Z</time>
      </trkpt>
      <trkpt lat="47.505192" lon="8.025207">
        <ele>354.447317</ele>
        <time>2021-11-21T23:05:13.245Z</time>
      </trkpt>
      <trkpt lat="47.504823" lon="8.026024">
        <ele>354.591361</ele>
        <time>2021-11-21T23:05:23.582Z</time>
      </trkpt>
      <trkpt lat="47.504760" lon="8.026163">
        <ele>354.622670</ele>
        <time>2021-11-21T23:05:25.568Z</time>
      </trkpt>
      <trkpt lat="47.504725" lon="8.026244">
        <ele>354.640655</ele>
        <time>2021-11-21T23:05:26.821Z</time>
      </trkpt>
      <trkpt lat="47.504704" lon="8.026294">
        <ele>354.651667</ele>
        <time>2021-11-21T23:05:27.471Z</time>
      </trkpt>
      <trkpt lat="47.504676" lon="8.026276">
        <ele>354.660120</ele>
        <time>2021-11-21T23:05:27.980Z</time>
      </trkpt>
      <trkpt lat="47.504602" lon="8.026299">
        <ele>354.681056</ele>
        <time>2021-11-21T23:05:29.224Z</time>
      </trkpt>
      <trkpt lat="47.504574" lon="8.026349">
        <ele>354.693204</ele>
        <time>2021-11-21T23:05:29.955Z</time>
      </trkpt>
      <trkpt lat="47.504566" lon="8.026393">
        <ele>354.701727</ele>
        <time>2021-11-21T23:05:30.510Z</time>
      </trkpt>
      <trkpt lat="47.504579" lon="8.026477">
        <ele>354.717846</ele>
        <time>2021-11-21T23:05:31.440Z</time>
      </trkpt>
      <trkpt lat="47.504614" lon="8.026525">
        <ele>354.731056</ele>
        <time>2021-11-21T23:05:32.219Z</time>
      </trkpt>
      <trkpt lat="47.504606" lon="8.026545">
        <ele>354.735404</ele>
        <time>2021-11-21T23:05:32.625Z</time>
      </trkpt>
      <trkpt lat="47.504221" lon="8.027444">
        <ele>354.946855</ele>
        <time>2021-11-21T23:05:44.158Z</time>
      </trkpt>
      <trkpt lat="47.504063" lon="8.027828">
        <ele>355.151899</ele>
        <time>2021-11-21T23:05:49.059Z</time>
      </trkpt>
      <trkpt lat="47.503672" lon="8.028775">
        <ele>355.658044</ele>
        <time>2021-11-21T23:06:01.979Z</time>
      </trkpt>
      <trkpt lat="47.503617" lon="8.028907">
        <ele>355.728771</ele>
        <time>2021-11-21T23:06:03.831Z</time>
      </trkpt>
      <trkpt lat="47.503408" lon="8.029412">
        <ele>355.998855</ele>
        <time>2021-11-21T23:06:11.128Z</time>
      </trkpt>
      <trkpt lat="47.503055" lon="8.030264">
        <ele>356.663376</ele>
        <time>2021-11-21T23:06:23.785Z</time>
      </trkpt>
      <trkpt lat="47.502589" lon="8.031477">
        <ele>357.722040</ele>
        <time>2021-11-21T23:06:41.943Z</time>
      </trkpt>
      <trkpt lat="47.502647" lon="8.031521">
        <ele>357.795232</ele>
        <time>2021-11-21T23:06:43.522Z</time>
      </trkpt>
      <trkpt lat="47.502609" lon="8.031626">
        <ele>357.885603</ele>
        <time>2021-11-21T23:06:45.186Z</time>
      </trkpt>
      <trkpt lat="47.502065" lon="8.033266">
        <ele>359.360275</ele>
        <time>2021-11-21T23:07:10.303Z</time>
      </trkpt>
      <trkpt lat="47.501954" lon="8.033629">
        <ele>359.686654</ele>
        <time>2021-11-21T23:07:15.694Z</time>
      </trkpt>
      <trkpt lat="47.501912" lon="8.033769">
        <ele>359.812129</ele>
        <time>2021-11-21T23:07:17.808Z</time>
      </trkpt>
      <trkpt lat="47.501899" lon="8.033875">
        <ele>359.900374</ele>
        <time>2021-11-21T23:07:18.988Z</time>
      </trkpt>
      <trkpt lat="47.501880" lon="8.033941">
        <ele>359.959139</ele>
        <time>2021-11-21T23:07:19.864Z</time>
      </trkpt>
      <trkpt lat="47.501838" lon="8.034051">
        <ele>360.062637</ele>
        <time>2021-11-21T23:07:21.697Z</time>
      </trkpt>
      <trkpt lat="47.501709" lon="8.034282">
        <ele>360.308130</ele>
        <time>2021-11-21T23:07:25.381Z</time>
      </trkpt>
      <trkpt lat="47.501613" lon="8.034680">
        <ele>360.351525</ele>
        <time>2021-11-21T23:07:30.838Z</time>
      </trkpt>
      <trkpt lat="47.501468" lon="8.035629">
        <ele>360.378557</ele>
        <time>2021-11-21T23:07:42.054Z</time>
      </trkpt>
      <trkpt lat="47.501454" lon="8.035709">
        <ele>360.380853</ele>
        <time>2021-11-21T23:07:43.235Z</time>
      </trkpt>
      <trkpt lat="47.501437" lon="8.035841">
        <ele>360.384587</ele>
        <time>2021-11-21T23:07:44.910Z</time>
      </trkpt>
      <trkpt lat="47.501234" lon="8.038241">
        <ele>359.505167</ele>
        <time>2021-11-21T23:08:13.524Z</time>
      </trkpt>
      <trkpt lat="47.501231" lon="8.038279">
        <ele>359.478978</ele>
        <time>2021-11-21T23:08:13.857Z</time>
      </trkpt>
      <trkpt lat="47.501267" lon="8.038284">
        <ele>359.442340</ele>
        <time>2021-11-21T23:08:14.229Z</time>
      </trkpt>
      <trkpt lat="47.501467" lon="8.038313">
        <ele>359.238717</ele>
        <time>2021-11-21T23:08:16.882Z</time>
      </trkpt>
      <trkpt lat="47.501901" lon="8.038376">
        <ele>358.796850</ele>
        <time>2021-11-21T23:08:22.091Z</time>
      </trkpt>
      <trkpt lat="47.502069" lon="8.038565">
        <ele>358.593834</ele>
        <time>2021-11-21T23:08:24.560Z</time>
      </trkpt>
      <trkpt lat="47.502088" lon="8.038680">
        <ele>358.606628</ele>
        <time>2021-11-21T23:08:25.703Z</time>
      </trkpt>
      <trkpt lat="47.502099" lon="8.038844">
        <ele>358.624437</ele>
        <time>2021-11-21T23:08:26.934Z</time>
      </trkpt>
      <trkpt lat="47.502104" lon="8.038924">
        <ele>358.633120</ele>
        <time>2021-11-21T23:08:27.560Z</time>
      </trkpt>
      <trkpt lat="47.502162" lon="8.040946">
        <ele>358.851823</ele>
        <time>2021-11-21T23:08:49.497Z</time>
      </trkpt>
      <trkpt lat="47.502240" lon="8.041844">
        <ele>359.467825</ele>
        <time>2021-11-21T23:09:01.588Z</time>
      </trkpt>
      <trkpt lat="47.502261" lon="8.042085">
        <ele>359.689618</ele>
        <time>2021-11-21T23:09:04.900Z</time>
      </trkpt>
      <trkpt lat="47.502592" lon="8.044305">
        <ele>361.854586</ele>
        <time>2021-11-21T23:09:36.842Z</time>
      </trkpt>
      <trkpt lat="47.502959" lon="8.047023">
        <ele>364.848527</ele>
        <time>2021-11-21T23:10:17.035Z</time>
      </trkpt>
      <trkpt lat="47.503126" lon="8.048338">
        <ele>366.230985</ele>
        <time>2021-11-21T23:10:36.398Z</time>
      </trkpt>
      <trkpt lat="47.503303" lon="8.050012">
        <ele>367.753480</ele>
        <time>2021-11-21T23:10:59.043Z</time>
      </trkpt>
      <trkpt lat="47.503323" lon="8.050248">
        <ele>367.943694</ele>
        <time>2021-11-21T23:11:02.288Z</time>
      </trkpt>
      <trkpt lat="47.503363" lon="8.050738">
        <ele>368.338409</ele>
        <time>2021-11-21T23:11:08.664Z</time>
      </trkpt>
      <trkpt lat="47.503386" lon="8.051161">
        <ele>368.677785</ele>
        <time>2021-11-21T23:11:14.113Z</time>
      </trkpt>
      <trkpt lat="47.503397" lon="8.051365">
        <ele>368.841448</ele>
        <time>2021-11-21T23:11:16.908Z</time>
      </trkpt>
      <trkpt lat="47.503421" lon="8.051996">
        <ele>369.376011</ele>
        <time>2021-11-21T23:11:25.251Z</time>
      </trkpt>
      <trkpt lat="47.503428" lon="8.052181">
        <ele>369.541774</ele>
        <time>2021-11-21T23:11:27.648Z</time>
      </trkpt>
      <trkpt lat="47.503428" lon="8.052697">
        <ele>370.003396</ele>
        <time>2021-11-21T23:11:34.425Z</time>
      </trkpt>
      <trkpt lat="47.503431" lon="8.052821">
        <ele>370.114399</ele>
        <time>2021-11-21T23:11:36.043Z</time>
      </trkpt>
      <trkpt lat="47.503433" lon="8.053143">
        <ele>370.402478</ele>
        <time>2021-11-21T23:11:41.516Z</time>
      </trkpt>
      <trkpt lat="47.503429" lon="8.053339">
        <ele>370.577903</ele>
        <time>2021-11-21T23:11:44.953Z</time>
      </trkpt>
      <trkpt lat="47.503413" lon="8.053999">
        <ele>371.168729</ele>
        <time>2021-11-21T23:11:56.725Z</time>
      </trkpt>
      <trkpt lat="47.503340" lon="8.055072">
        <ele>372.300165</ele>
        <time>2021-11-21T23:12:16.005Z</time>
      </trkpt>
      <trkpt lat="47.503298" lon="8.055555">
        <ele>372.847483</ele>
        <time>2021-11-21T23:12:24.536Z</time>
      </trkpt>
      <trkpt lat="47.503232" lon="8.056115">
        <ele>373.486368</ele>
        <time>2021-11-21T23:12:34.468Z</time>
      </trkpt>
      <trkpt lat="47.502927" lon="8.057944">
        <ele>375.709587</ele>
        <time>2021-11-21T23:13:10.153Z</time>
      </trkpt>
      <trkpt lat="47.502836" lon="8.058343">
        <ele>376.227326</ele>
        <time>2021-11-21T23:13:17.905Z</time>
      </trkpt>
      <trkpt lat="47.502806" lon="8.058487">
        <ele>376.412590</ele>
        <time>2021-11-21T23:13:20.926Z</time>
      </trkpt>
      <trkpt lat="47.502690" lon="8.058955">
        <ele>377.025464</ele>
        <time>2021-11-21T23:13:29.927Z</time>
      </trkpt>
      <trkpt lat="47.502580" lon="8.059374">
        <ele>377.578123</ele>
        <time>2021-11-21T23:13:37.913Z</time>
      </trkpt>
      <trkpt lat="47.502534" lon="8.059520">
        <ele>377.770213</ele>
        <time>2021-11-21T23:13:41.284Z</time>
      </trkpt>
      <trkpt lat="47.502407" lon="8.059925">
        <ele>378.199223</ele>
        <time>2021-11-21T23:13:49.300Z</time>
      </trkpt>
      <trkpt lat="47.502229" lon="8.060464">
        <ele>378.775673</ele>
        <time>2021-11-21T23:14:00.518Z</time>
      </trkpt>
      <trkpt lat="47.502130" lon="8.060761">
        <ele>379.093885</ele>
        <time>2021-11-21T23:14:06.069Z</time>
      </trkpt>
      <trkpt lat="47.501960" lon="8.061164">
        <ele>379.550386</ele>
        <time>2021-11-21T23:14:14.284Z</time>
      </trkpt>
      <trkpt lat="47.501169" lon="8.063017">
        <ele>382.160734</ele>
        <time>2021-11-21T23:14:50.942Z</time>
      </trkpt>
      <trkpt lat="47.500653" lon="8.064026">
        <ele>383.840022</ele>
        <time>2021-11-21T23:15:17.175Z</time>
      </trkpt>
      <trkpt lat="47.500531" lon="8.064169">
        <ele>384.417491</ele>
        <time>2021-11-21T23:15:22.179Z</time>
      </trkpt>
      <trkpt lat="47.500414" lon="8.064350">
        <ele>385.045498</ele>
        <time>2021-11-21T23:15:28.310Z</time>
      </trkpt>
      <trkpt lat="47.500341" lon="8.064457">
        <ele>385.426727</ele>
        <time>2021-11-21T23:15:31.492Z</time>
      </trkpt>
      <trkpt lat="47.500095" lon="8.064612">
        <ele>386.418844</ele>
        <time>2021-11-21T23:15:41.055Z</time>
      </trkpt>
      <trkpt lat="47.500120" lon="8.064657">
        <ele>386.564903</ele>
        <time>2021-11-21T23:15:42.745Z</time>
      </trkpt>
      <trkpt lat="47.500182" lon="8.064834">
        <ele>387.064734</ele>
        <time>2021-11-21T23:15:47.638Z</time>
      </trkpt>
      <trkpt lat="47.500209" lon="8.064917">
        <ele>387.295677</ele>
        <time>2021-11-21T23:15:51.099Z</time>
      </trkpt>
      <trkpt lat="47.500343" lon="8.065218">
        <ele>388.199374</ele>
        <time>2021-11-21T23:15:59.216Z</time>
      </trkpt>
      <trkpt lat="47.500746" lon="8.065595">
        <ele>389.968446</ele>
        <time>2021-11-21T23:16:17.087Z</time>
      </trkpt>
      <trkpt lat="47.500757" lon="8.065687">
        <ele>390.202669</ele>
        <time>2021-11-21T23:16:18.659Z</time>
      </trkpt>
      <trkpt lat="47.500523" lon="8.066198">
        <ele>391.126103</ele>
        <time>2021-11-21T23:16:32.355Z</time>
      </trkpt>
      <trkpt lat="47.500485" lon="8.066332">
        <ele>391.309207</ele>
        <time>2021-11-21T23:16:36.150Z</time>
      </trkpt>
      <trkpt lat="47.500368" lon="8.066586">
        <ele>391.696542</ele>
        <time>2021-11-21T23:16:43.273Z</time>
      </trkpt>
      <trkpt lat="47.499930" lon="8.068012">
        <ele>393.670209</ele>
        <time>2021-11-21T23:17:09.731Z</time>
      </trkpt>
      <trkpt lat="47.499748" lon="8.068841">
        <ele>393.808041</ele>
        <time>2021-11-21T23:17:21.550Z</time>
      </trkpt>
      <trkpt lat="47.499620" lon="8.069496">
        <ele>393.768914</ele>
        <time>2021-11-21T23:17:30.051Z</time>
      </trkpt>
      <trkpt lat="47.499538" lon="8.069838">
        <ele>393.748090</ele>
        <time>2021-11-21T23:17:34.643Z</time>
      </trkpt>
      <trkpt lat="47.499461" lon="8.070758">
        <ele>393.718545</ele>
        <time>2021-11-21T23:17:46.520Z</time>
      </trkpt>
      <trkpt lat="47.499601" lon="8.071817">
        <ele>394.318722</ele>
        <time>2021-11-21T23:18:02.666Z</time>
      </trkpt>
      <trkpt lat="47.499631" lon="8.072434">
        <ele>394.662778</ele>
        <time>2021-11-21T23:18:12.965Z</time>
      </trkpt>
      <trkpt lat="47.499618" lon="8.072678">
        <ele>394.798910</ele>
        <time>2021-11-21T23:18:17.168Z</time>
      </trkpt>
      <trkpt lat="47.499580" lon="8.073053">
        <ele>395.009814</ele>
        <time>2021-11-21T23:18:23.472Z</time>
      </trkpt>
      <trkpt lat="47.499526" lon="8.073285">
        <ele>395.146294</ele>
        <time>2021-11-21T23:18:27.966Z</time>
      </trkpt>
      <trkpt lat="47.499525" lon="8.073287">
        <ele>395.147678</ele>
        <time>2021-11-21T23:18:28.193Z</time>
      </trkpt>
      <trkpt lat="47.499275" lon="8.073955">
        <ele>395.866598</ele>
        <time>2021-11-21T23:18:40.969Z</time>
      </trkpt>
      <trkpt lat="47.499163" lon="8.074206">
        <ele>396.158649</ele>
        <time>2021-11-21T23:18:46.872Z</time>
      </trkpt>
      <trkpt lat="47.499059" lon="8.074470">
        <ele>396.455358</ele>
        <time>2021-11-21T23:18:51.841Z</time>
      </trkpt>
      <trkpt lat="47.498910" lon="8.074849">
        <ele>396.881097</ele>
        <time>2021-11-21T23:18:59.858Z</time>
      </trkpt>
      <trkpt lat="47.498145" lon="8.076850">
        <ele>399.058559</ele>
        <time>2021-11-21T23:19:39.860Z</time>
      </trkpt>
      <trkpt lat="47.497682" lon="8.077743">
        <ele>400.107121</ele>
        <time>2021-11-21T23:19:59.829Z</time>
      </trkpt>
      <trkpt lat="47.497198" lon="8.078441">
        <ele>400.652242</ele>
        <time>2021-11-21T23:20:16.141Z</time>
      </trkpt>
      <trkpt lat="47.497125" lon="8.078508">
        <ele>400.713173</ele>
        <time>2021-11-21T23:20:18.551Z</time>
      </trkpt>
      <trkpt lat="47.497038" lon="8.078610">
        <ele>400.791902</ele>
        <time>2021-11-21T23:20:21.206Z</time>
      </trkpt>
      <trkpt lat="47.496793" lon="8.078891">
        <ele>401.011768</ele>
        <time>2021-11-21T23:20:28.273Z</time>
      </trkpt>
      <trkpt lat="47.496446" lon="8.079280">
        <ele>401.320551</ele>
        <time>2021-11-21T23:20:37.685Z</time>
      </trkpt>
      <trkpt lat="47.496380" lon="8.079285">
        <ele>401.367430</ele>
        <time>2021-11-21T23:20:38.515Z</time>
      </trkpt>
      <trkpt lat="47.496040" lon="8.079701">
        <ele>401.632303</ele>
        <time>2021-11-21T23:20:45.281Z</time>
      </trkpt>
      <trkpt lat="47.495859" lon="8.079943">
        <ele>401.753974</ele>
        <time>2021-11-21T23:20:49.351Z</time>
      </trkpt>
      <trkpt lat="47.495681" lon="8.080229">
        <ele>401.885027</ele>
        <time>2021-11-21T23:20:53.315Z</time>
      </trkpt>
      <trkpt lat="47.495562" lon="8.080466">
        <ele>401.984545</ele>
        <time>2021-11-21T23:20:56.368Z</time>
      </trkpt>
      <trkpt lat="47.495515" lon="8.080558">
        <ele>402.023417</ele>
        <time>2021-11-21T23:20:57.605Z</time>
      </trkpt>
      <trkpt lat="47.495384" lon="8.080873">
        <ele>402.148081</ele>
        <time>2021-11-21T23:21:01.666Z</time>
      </trkpt>
      <trkpt lat="47.495292" lon="8.081144">
        <ele>402.250297</ele>
        <time>2021-11-21T23:21:05.435Z</time>
      </trkpt>
      <trkpt lat="47.495281" lon="8.081177">
        <ele>402.262699</ele>
        <time>2021-11-21T23:21:05.958Z</time>
      </trkpt>
      <trkpt lat="47.495207" lon="8.081445">
        <ele>402.360275</ele>
        <time>2021-11-21T23:21:09.348Z</time>
      </trkpt>
      <trkpt lat="47.495162" lon="8.081632">
        <ele>402.481508</ele>
        <time>2021-11-21T23:21:12.068Z</time>
      </trkpt>
      <trkpt lat="47.495132" lon="8.081754">
        <ele>402.731821</ele>
        <time>2021-11-21T23:21:13.761Z</time>
      </trkpt>
      <trkpt lat="47.495088" lon="8.082021">
        <ele>403.261695</ele>
        <time>2021-11-21T23:21:17.369Z</time>
      </trkpt>
      <trkpt lat="47.495034" lon="8.082354">
        <ele>403.921960</ele>
        <time>2021-11-21T23:21:22.216Z</time>
      </trkpt>
      <trkpt lat="47.495018" lon="8.082502">
        <ele>404.210938</ele>
        <time>2021-11-21T23:21:24.879Z</time>
      </trkpt>
      <trkpt lat="47.494982" lon="8.082826">
        <ele>404.844010</ele>
        <time>2021-11-21T23:21:29.565Z</time>
      </trkpt>
      <trkpt lat="47.494963" lon="8.083009">
        <ele>405.200981</ele>
        <time>2021-11-21T23:21:33.083Z</time>
      </trkpt>
      <trkpt lat="47.494933" lon="8.083243">
        <ele>405.660190</ele>
        <time>2021-11-21T23:21:38.109Z</time>
      </trkpt>
      <trkpt lat="47.494898" lon="8.083514">
        <ele>406.192147</ele>
        <time>2021-11-21T23:21:43.668Z</time>
      </trkpt>
      <trkpt lat="47.494822" lon="8.084015">
        <ele>407.182139</ele>
        <time>2021-11-21T23:21:54.597Z</time>
      </trkpt>
      <trkpt lat="47.494924" lon="8.084065">
        <ele>407.488752</ele>
        <time>2021-11-21T23:21:57.941Z</time>
      </trkpt>
      <trkpt lat="47.495055" lon="8.084135">
        <ele>408.082008</ele>
        <time>2021-11-21T23:22:02.695Z</time>
      </trkpt>
      <trkpt lat="47.495106" lon="8.084168">
        <ele>408.332871</ele>
        <time>2021-11-21T23:22:04.216Z</time>
      </trkpt>
      <trkpt lat="47.495171" lon="8.084232">
        <ele>408.684729</ele>
        <time>2021-11-21T23:22:06.708Z</time>
      </trkpt>
      <trkpt lat="47.495445" lon="8.084551">
        <ele>410.255920</ele>
        <time>2021-11-21T23:22:19.117Z</time>
      </trkpt>
      <trkpt lat="47.495549" lon="8.084639">
        <ele>410.795840</ele>
        <time>2021-11-21T23:22:23.366Z</time>
      </trkpt>
      <trkpt lat="47.495636" lon="8.084745">
        <ele>411.303717</ele>
        <time>2021-11-21T23:22:28.231Z</time>
      </trkpt>
      <trkpt lat="47.496002" lon="8.085400">
        <ele>413.892015</ele>
        <time>2021-11-21T23:22:46.324Z</time>
      </trkpt>
      <trkpt lat="47.496274" lon="8.085642">
        <ele>415.322357</ele>
        <time>2021-11-21T23:22:56.248Z</time>
      </trkpt>
      <trkpt lat="47.496373" lon="8.085787">
        <ele>415.883179</ele>
        <time>2021-11-21T23:23:01.390Z</time>
      </trkpt>
      <trkpt lat="47.496422" lon="8.086009">
        <ele>416.433267</ele>
        <time>2021-11-21T23:23:05.219Z</time>
      </trkpt>
      <trkpt lat="47.496519" lon="8.086234">
        <ele>417.061921</ele>
        <time>2021-11-21T23:23:10.794Z</time>
      </trkpt>
      <trkpt lat="47.496576" lon="8.086291">
        <ele>417.301735</ele>
        <time>2021-11-21T23:23:13.915Z</time>
      </trkpt>
      <trkpt lat="47.496752" lon="8.086468">
        <ele>418.043533</ele>
        <time>2021-11-21T23:23:18.943Z</time>
      </trkpt>
      <trkpt lat="47.496950" lon="8.086653">
        <ele>418.859821</ele>
        <time>2021-11-21T23:23:25.750Z</time>
      </trkpt>
      <trkpt lat="47.497376" lon="8.086991">
        <ele>420.544846</ele>
        <time>2021-11-21T23:23:38.481Z</time>
      </trkpt>
      <trkpt lat="47.497737" lon="8.087270">
        <ele>421.976005</ele>
        <time>2021-11-21T23:23:49.079Z</time>
      </trkpt>
      <trkpt lat="47.497928" lon="8.087452">
        <ele>422.996665</ele>
        <time>2021-11-21T23:23:56.536Z</time>
      </trkpt>
      <trkpt lat="47.498188" lon="8.087851">
        <ele>424.679467</ele>
        <time>2021-11-21T23:24:08.509Z</time>
      </trkpt>
      <trkpt lat="47.498481" lon="8.088558">
        <ele>427.197270</ele>
        <time>2021-11-21T23:24:27.501Z</time>
      </trkpt>
      <trkpt lat="47.498666" lon="8.088885">
        <ele>428.491994</ele>
        <time>2021-11-21T23:24:37.483Z</time>
      </trkpt>
      <trkpt lat="47.498851" lon="8.089152">
        <ele>429.652977</ele>
        <time>2021-11-21T23:24:47.701Z</time>
      </trkpt>
      <trkpt lat="47.498994" lon="8.089359">
        <ele>430.500625</ele>
        <time>2021-11-21T23:24:54.672Z</time>
      </trkpt>
      <trkpt lat="47.500332" lon="8.091539">
        <ele>437.922541</ele>
        <time>2021-11-21T23:25:55.490Z</time>
      </trkpt>
      <trkpt lat="47.500507" lon="8.091877">
        <ele>438.467091</ele>
        <time>2021-11-21T23:26:02.500Z</time>
      </trkpt>
      <trkpt lat="47.500685" lon="8.092227">
        <ele>439.027295</ele>
        <time>2021-11-21T23:26:09.372Z</time>
      </trkpt>
      <trkpt lat="47.501149" lon="8.093186">
        <ele>440.535671</ele>
        <time>2021-11-21T23:26:24.038Z</time>
      </trkpt>
      <trkpt lat="47.501513" lon="8.093894">
        <ele>441.021535</ele>
        <time>2021-11-21T23:26:34.304Z</time>
      </trkpt>
      <trkpt lat="47.501590" lon="8.094043">
        <ele>441.094683</ele>
        <time>2021-11-21T23:26:35.796Z</time>
      </trkpt>
      <trkpt lat="47.502026" lon="8.094768">
        <ele>441.473155</ele>
        <time>2021-11-21T23:26:46.716Z</time>
      </trkpt>
      <trkpt lat="47.502110" lon="8.094873">
        <ele>441.536612</ele>
        <time>2021-11-21T23:26:48.046Z</time>
      </trkpt>
      <trkpt lat="47.502217" lon="8.094977">
        <ele>441.610493</ele>
        <time>2021-11-21T23:26:50.932Z</time>
      </trkpt>
      <trkpt lat="47.502282" lon="8.095019">
        <ele>441.651428</ele>
        <time>2021-11-21T23:26:52.530Z</time>
      </trkpt>
      <trkpt lat="47.502574" lon="8.095231">
        <ele>442.083850</ele>
        <time>2021-11-21T23:26:58.649Z</time>
      </trkpt>
      <trkpt lat="47.502910" lon="8.095439">
        <ele>443.080144</ele>
        <time>2021-11-21T23:27:05.528Z</time>
      </trkpt>
      <trkpt lat="47.503482" lon="8.095792">
        <ele>444.775433</ele>
        <time>2021-11-21T23:27:20.064Z</time>
      </trkpt>
      <trkpt lat="47.503767" lon="8.095971">
        <ele>445.622347</ele>
        <time>2021-11-21T23:27:29.588Z</time>
      </trkpt>
      <trkpt lat="47.504630" lon="8.096527">
        <ele>448.873905</ele>
        <time>2021-11-21T23:28:01.227Z</time>
      </trkpt>
      <trkpt lat="47.504815" lon="8.096672">
        <ele>449.704425</ele>
        <time>2021-11-21T23:28:08.257Z</time>
      </trkpt>
      <trkpt lat="47.504977" lon="8.096829">
        <ele>450.472647</ele>
        <time>2021-11-21T23:28:15.155Z</time>
      </trkpt>
      <trkpt lat="47.505090" lon="8.096968">
        <ele>451.055556</ele>
        <time>2021-11-21T23:28:19.570Z</time>
      </trkpt>
      <trkpt lat="47.505224" lon="8.097111">
        <ele>451.710944</ele>
        <time>2021-11-21T23:28:24.816Z</time>
      </trkpt>
      <trkpt lat="47.505520" lon="8.097456">
        <ele>453.205644</ele>
        <time>2021-11-21T23:28:35.161Z</time>
      </trkpt>
      <trkpt lat="47.505811" lon="8.097796">
        <ele>454.227908</ele>
        <time>2021-11-21T23:28:44.036Z</time>
      </trkpt>
      <trkpt lat="47.505855" lon="8.097849">
        <ele>454.333684</ele>
        <time>2021-11-21T23:28:45.317Z</time>
      </trkpt>
      <trkpt lat="47.506023" lon="8.098051">
        <ele>454.737267</ele>
        <time>2021-11-21T23:28:50.852Z</time>
      </trkpt>
      <trkpt lat="47.506383" lon="8.098483">
        <ele>455.601406</ele>
        <time>2021-11-21T23:29:01.775Z</time>
      </trkpt>
      <trkpt lat="47.506485" lon="8.098597">
        <ele>455.839724</ele>
        <time>2021-11-21T23:29:03.816Z</time>
      </trkpt>
      <trkpt lat="47.506767" lon="8.098876">
        <ele>456.472192</ele>
        <time>2021-11-21T23:29:11.253Z</time>
      </trkpt>
      <trkpt lat="47.506874" lon="8.098948">
        <ele>456.691359</ele>
        <time>2021-11-21T23:29:14.155Z</time>
      </trkpt>
      <trkpt lat="47.506976" lon="8.099024">
        <ele>456.904290</ele>
        <time>2021-11-21T23:29:16.314Z</time>
      </trkpt>
      <trkpt lat="47.507131" lon="8.099082">
        <ele>457.205291</ele>
        <time>2021-11-21T23:29:18.471Z</time>
      </trkpt>
      <trkpt lat="47.507198" lon="8.099101">
        <ele>457.352487</ele>
        <time>2021-11-21T23:29:20.264Z</time>
      </trkpt>
      <trkpt lat="47.507495" lon="8.099134">
        <ele>457.995131</ele>
        <time>2021-11-21T23:29:25.141Z</time>
      </trkpt>
      <trkpt lat="47.507666" lon="8.099135">
        <ele>458.364104</ele>
        <time>2021-11-21T23:29:29.075Z</time>
      </trkpt>
      <trkpt lat="47.507728" lon="8.099150">
        <ele>458.499657</ele>
        <time>2021-11-21T23:29:30.398Z</time>
      </trkpt>
      <trkpt lat="47.508035" lon="8.099268">
        <ele>459.184040</ele>
        <time>2021-11-21T23:29:36.572Z</time>
      </trkpt>
      <trkpt lat="47.508341" lon="8.099423">
        <ele>459.881881</ele>
        <time>2021-11-21T23:29:44.319Z</time>
      </trkpt>
      <trkpt lat="47.508401" lon="8.099452">
        <ele>460.018069</ele>
        <time>2021-11-21T23:29:45.977Z</time>
      </trkpt>
      <trkpt lat="47.508511" lon="8.099532">
        <ele>460.282512</ele>
        <time>2021-11-21T23:29:48.949Z</time>
      </trkpt>
      <trkpt lat="47.508596" lon="8.099602">
        <ele>460.492385</ele>
        <time>2021-11-21T23:29:52.379Z</time>
      </trkpt>
      <trkpt lat="47.508688" lon="8.099702">
        <ele>460.738656</ele>
        <time>2021-11-21T23:29:56.359Z</time>
      </trkpt>
      <trkpt lat="47.509176" lon="8.100345">
        <ele>462.845741</ele>
        <time>2021-11-21T23:30:15.574Z</time>
      </trkpt>
      <trkpt lat="47.509343" lon="8.100494">
        <ele>463.537349</ele>
        <time>2021-11-21T23:30:21.075Z</time>
      </trkpt>
      <trkpt lat="47.509412" lon="8.100549">
        <ele>463.815313</ele>
        <time>2021-11-21T23:30:23.201Z</time>
      </trkpt>
      <trkpt lat="47.509622" lon="8.100692">
        <ele>464.635203</ele>
        <time>2021-11-21T23:30:29.781Z</time>
      </trkpt>
      <trkpt lat="47.509638" lon="8.100703">
        <ele>464.697776</ele>
        <time>2021-11-21T23:30:30.264Z</time>
      </trkpt>
      <trkpt lat="47.509944" lon="8.100887">
        <ele>465.869273</ele>
        <time>2021-11-21T23:30:39.777Z</time>
      </trkpt>
      <trkpt lat="47.510731" lon="8.101349">
        <ele>469.420500</ele>
        <time>2021-11-21T23:31:04.735Z</time>
      </trkpt>
      <trkpt lat="47.511350" lon="8.101444">
        <ele>472.475762</ele>
        <time>2021-11-21T23:31:23.238Z</time>
      </trkpt>
      <trkpt lat="47.511784" lon="8.101451">
        <ele>474.606609</ele>
        <time>2021-11-21T23:31:36.496Z</time>
      </trkpt>
      <trkpt lat="47.512294" lon="8.101446">
        <ele>478.106111</ele>
        <time>2021-11-21T23:32:01.047Z</time>
      </trkpt>
      <trkpt lat="47.513097" lon="8.101440">
        <ele>486.747790</ele>
        <time>2021-11-21T23:32:42.794Z</time>
      </trkpt>
      <trkpt lat="47.513213" lon="8.101454">
        <ele>488.000277</ele>
        <time>2021-11-21T23:32:49.121Z</time>
      </trkpt>
      <trkpt lat="47.513274" lon="8.101477">
        <ele>488.677688</ele>
        <time>2021-11-21T23:32:55.865Z</time>
      </trkpt>
      <trkpt lat="47.513402" lon="8.101592">
        <ele>490.288953</ele>
        <time>2021-11-21T23:33:02.973Z</time>
      </trkpt>
      <trkpt lat="47.514173" lon="8.102716">
        <ele>503.333181</ele>
        <time>2021-11-21T23:34:20.197Z</time>
      </trkpt>
      <trkpt lat="47.514667" lon="8.103702">
        <ele>514.238705</ele>
        <time>2021-11-21T23:35:17.110Z</time>
      </trkpt>
      <trkpt lat="47.514756" lon="8.103964">
        <ele>516.843864</ele>
        <time>2021-11-21T23:35:30.058Z</time>
      </trkpt>
      <trkpt lat="47.514931" lon="8.104527">
        <ele>521.577797</ele>
        <time>2021-11-21T23:35:56.106Z</time>
      </trkpt>
      <trkpt lat="47.515233" lon="8.105459">
        <ele>528.446326</ele>
        <time>2021-11-21T23:36:36.554Z</time>
      </trkpt>
      <trkpt lat="47.515271" lon="8.105582">
        <ele>529.345044</ele>
        <time>2021-11-21T23:36:41.841Z</time>
      </trkpt>
      <trkpt lat="47.515524" lon="8.106413">
        <ele>535.401678</ele>
        <time>2021-11-21T23:37:11.558Z</time>
      </trkpt>
      <trkpt lat="47.516180" lon="8.108478">
        <ele>547.014467</ele>
        <time>2021-11-21T23:38:19.406Z</time>
      </trkpt>
      <trkpt lat="47.516517" lon="8.109548">
        <ele>552.214641</ele>
        <time>2021-11-21T23:38:53.096Z</time>
      </trkpt>
      <trkpt lat="47.516730" lon="8.110266">
        <ele>555.233816</ele>
        <time>2021-11-21T23:39:15.326Z</time>
      </trkpt>
      <trkpt lat="47.516960" lon="8.110849">
        <ele>557.833204</ele>
        <time>2021-11-21T23:39:31.979Z</time>
      </trkpt>
      <trkpt lat="47.517126" lon="8.111099">
        <ele>559.182945</ele>
        <time>2021-11-21T23:39:40.127Z</time>
      </trkpt>
      <trkpt lat="47.517402" lon="8.111532">
        <ele>560.496565</ele>
        <time>2021-11-21T23:39:53.047Z</time>
      </trkpt>
      <trkpt lat="47.517585" lon="8.111839">
        <ele>560.753730</ele>
        <time>2021-11-21T23:39:59.940Z</time>
      </trkpt>
      <trkpt lat="47.517983" lon="8.112466">
        <ele>561.294136</ele>
        <time>2021-11-21T23:40:10.746Z</time>
      </trkpt>
      <trkpt lat="47.518295" lon="8.113056">
        <ele>561.764748</ele>
        <time>2021-11-21T23:40:17.444Z</time>
      </trkpt>
      <trkpt lat="47.518474" lon="8.113619">
        <ele>561.628413</ele>
        <time>2021-11-21T23:40:22.055Z</time>
      </trkpt>
      <trkpt lat="47.518892" lon="8.116720">
        <ele>557.970534</ele>
        <time>2021-11-21T23:40:45.605Z</time>
      </trkpt>
      <trkpt lat="47.518885" lon="8.117042">
        <ele>557.680370</ele>
        <time>2021-11-21T23:40:48.302Z</time>
      </trkpt>
      <trkpt lat="47.518740" lon="8.117714">
        <ele>557.044981</ele>
        <time>2021-11-21T23:40:53.765Z</time>
      </trkpt>
      <trkpt lat="47.518622" lon="8.118005">
        <ele>556.739272</ele>
        <time>2021-11-21T23:40:56.321Z</time>
      </trkpt>
      <trkpt lat="47.518325" lon="8.118433">
        <ele>556.451861</ele>
        <time>2021-11-21T23:41:00.957Z</time>
      </trkpt>
      <trkpt lat="47.518234" lon="8.118678">
        <ele>556.953843</ele>
        <time>2021-11-21T23:41:05.002Z</time>
      </trkpt>
      <trkpt lat="47.518226" lon="8.118790">
        <ele>557.156038</ele>
        <time>2021-11-21T23:41:06.269Z</time>
      </trkpt>
      <trkpt lat="47.518291" lon="8.118990">
        <ele>557.554512</ele>
        <time>2021-11-21T23:41:09.003Z</time>
      </trkpt>
      <trkpt lat="47.518372" lon="8.119045">
        <ele>557.791395</ele>
        <time>2021-11-21T23:41:11.652Z</time>
      </trkpt>
      <trkpt lat="47.518662" lon="8.118990">
        <ele>558.568603</ele>
        <time>2021-11-21T23:41:17.974Z</time>
      </trkpt>
      <trkpt lat="47.518865" lon="8.118958">
        <ele>559.111289</ele>
        <time>2021-11-21T23:41:22.971Z</time>
      </trkpt>
      <trkpt lat="47.519020" lon="8.118892">
        <ele>559.540025</ele>
        <time>2021-11-21T23:41:27.728Z</time>
      </trkpt>
      <trkpt lat="47.519187" lon="8.118830">
        <ele>559.997704</ele>
        <time>2021-11-21T23:41:32.770Z</time>
      </trkpt>
      <trkpt lat="47.519221" lon="8.118862">
        <ele>560.104799</ele>
        <time>2021-11-21T23:41:33.303Z</time>
      </trkpt>
      <trkpt lat="47.519180" lon="8.118910">
        <ele>560.243741</ele>
        <time>2021-11-21T23:41:34.765Z</time>
      </trkpt>
      <trkpt lat="47.519064" lon="8.119070">
        <ele>560.665163</ele>
        <time>2021-11-21T23:41:40.793Z</time>
      </trkpt>
      <trkpt lat="47.518824" lon="8.119333">
        <ele>562.116312</ele>
        <time>2021-11-21T23:41:52.331Z</time>
      </trkpt>
      <trkpt lat="47.517857" lon="8.119775">
        <ele>569.202770</ele>
        <time>2021-11-21T23:42:38.583Z</time>
      </trkpt>
      <trkpt lat="47.517621" lon="8.119982">
        <ele>571.123482</ele>
        <time>2021-11-21T23:42:51.895Z</time>
      </trkpt>
      <trkpt lat="47.517519" lon="8.120168">
        <ele>572.256546</ele>
        <time>2021-11-21T23:43:00.224Z</time>
      </trkpt>
      <trkpt lat="47.517437" lon="8.120369">
        <ele>573.367052</ele>
        <time>2021-11-21T23:43:05.802Z</time>
      </trkpt>
      <trkpt lat="47.517360" lon="8.120980">
        <ele>574.907607</ele>
        <time>2021-11-21T23:43:21.616Z</time>
      </trkpt>
      <trkpt lat="47.517380" lon="8.121126">
        <ele>575.240984</ele>
        <time>2021-11-21T23:43:26.335Z</time>
      </trkpt>
      <trkpt lat="47.517430" lon="8.121363">
        <ele>575.796627</ele>
        <time>2021-11-21T23:43:31.517Z</time>
      </trkpt>
      <trkpt lat="47.517595" lon="8.122024">
        <ele>577.373639</ele>
        <time>2021-11-21T23:43:45.536Z</time>
      </trkpt>
      <trkpt lat="47.517865" lon="8.123246">
        <ele>579.081436</ele>
        <time>2021-11-21T23:44:01.482Z</time>
      </trkpt>
      <trkpt lat="47.518043" lon="8.123755">
        <ele>578.020125</ele>
        <time>2021-11-21T23:44:05.936Z</time>
      </trkpt>
      <trkpt lat="47.518119" lon="8.123894">
        <ele>577.688983</ele>
        <time>2021-11-21T23:44:07.160Z</time>
      </trkpt>
      <trkpt lat="47.518224" lon="8.124020">
        <ele>577.318445</ele>
        <time>2021-11-21T23:44:08.668Z</time>
      </trkpt>
      <trkpt lat="47.518640" lon="8.124328">
        <ele>576.043295</ele>
        <time>2021-11-21T23:44:13.469Z</time>
      </trkpt>
      <trkpt lat="47.519000" lon="8.124585">
        <ele>574.947586</ele>
        <time>2021-11-21T23:44:17.311Z</time>
      </trkpt>
      <trkpt lat="47.519073" lon="8.124669">
        <ele>574.694119</ele>
        <time>2021-11-21T23:44:18.157Z</time>
      </trkpt>
      <trkpt lat="47.519641" lon="8.125947">
        <ele>564.700209</ele>
        <time>2021-11-21T23:44:27.427Z</time>
      </trkpt>
      <trkpt lat="47.519704" lon="8.126247">
        <ele>562.640456</ele>
        <time>2021-11-21T23:44:29.209Z</time>
      </trkpt>
      <trkpt lat="47.519714" lon="8.126761">
        <ele>559.269181</ele>
        <time>2021-11-21T23:44:32.121Z</time>
      </trkpt>
      <trkpt lat="47.519773" lon="8.127131">
        <ele>556.568378</ele>
        <time>2021-11-21T23:44:34.271Z</time>
      </trkpt>
      <trkpt lat="47.519948" lon="8.127803">
        <ele>549.619780</ele>
        <time>2021-11-21T23:44:38.292Z</time>
      </trkpt>
      <trkpt lat="47.520129" lon="8.128104">
        <ele>545.731461</ele>
        <time>2021-11-21T23:44:40.596Z</time>
      </trkpt>
      <trkpt lat="47.520230" lon="8.128176">
        <ele>544.130089</ele>
        <time>2021-11-21T23:44:41.507Z</time>
      </trkpt>
      <trkpt lat="47.520344" lon="8.128214">
        <ele>542.460747</ele>
        <time>2021-11-21T23:44:42.498Z</time>
      </trkpt>
      <trkpt lat="47.520467" lon="8.128201">
        <ele>540.699116</ele>
        <time>2021-11-21T23:44:43.570Z</time>
      </trkpt>
      <trkpt lat="47.520505" lon="8.128188">
        <ele>540.141954</ele>
        <time>2021-11-21T23:44:43.890Z</time>
      </trkpt>
      <trkpt lat="47.520650" lon="8.128120">
        <ele>537.969101</ele>
        <time>2021-11-21T23:44:45.140Z</time>
      </trkpt>
      <trkpt lat="47.520824" lon="8.128212">
        <ele>535.329652</ele>
        <time>2021-11-21T23:44:46.730Z</time>
      </trkpt>
      <trkpt lat="47.520851" lon="8.128363">
        <ele>533.822672</ele>
        <time>2021-11-21T23:44:47.589Z</time>
      </trkpt>
      <trkpt lat="47.520822" lon="8.128489">
        <ele>532.538421</ele>
        <time>2021-11-21T23:44:48.353Z</time>
      </trkpt>
      <trkpt lat="47.519957" lon="8.129855">
        <ele>519.412881</ele>
        <time>2021-11-21T23:44:59.115Z</time>
      </trkpt>
      <trkpt lat="47.519537" lon="8.130421">
        <ele>513.650668</ele>
        <time>2021-11-21T23:45:04.203Z</time>
      </trkpt>
      <trkpt lat="47.519115" lon="8.130853">
        <ele>510.191255</ele>
        <time>2021-11-21T23:45:08.801Z</time>
      </trkpt>
      <trkpt lat="47.519016" lon="8.130950">
        <ele>509.422360</ele>
        <time>2021-11-21T23:45:09.865Z</time>
      </trkpt>
      <trkpt lat="47.518939" lon="8.131029">
        <ele>508.815609</ele>
        <time>2021-11-21T23:45:10.738Z</time>
      </trkpt>
      <trkpt lat="47.518837" lon="8.131164">
        <ele>507.929504</ele>
        <time>2021-11-21T23:45:11.970Z</time>
      </trkpt>
      <trkpt lat="47.518696" lon="8.131473">
        <ele>506.298253</ele>
        <time>2021-11-21T23:45:14.287Z</time>
      </trkpt>
      <trkpt lat="47.518527" lon="8.131863">
        <ele>504.271312</ele>
        <time>2021-11-21T23:45:17.145Z</time>
      </trkpt>
      <trkpt lat="47.518221" lon="8.132565">
        <ele>500.861411</ele>
        <time>2021-11-21T23:45:22.276Z</time>
      </trkpt>
      <trkpt lat="47.517932" lon="8.133229">
        <ele>498.246457</ele>
        <time>2021-11-21T23:45:27.302Z</time>
      </trkpt>
      <trkpt lat="47.517646" lon="8.133904">
        <ele>495.608655</ele>
        <time>2021-11-21T23:45:32.467Z</time>
      </trkpt>
      <trkpt lat="47.517600" lon="8.134020">
        <ele>495.163355</ele>
        <time>2021-11-21T23:45:33.351Z</time>
      </trkpt>
      <trkpt lat="47.517506" lon="8.134288">
        <ele>494.163677</ele>
        <time>2021-11-21T23:45:35.302Z</time>
      </trkpt>
      <trkpt lat="47.517374" lon="8.134964">
        <ele>492.004748</ele>
        <time>2021-11-21T23:45:39.875Z</time>
      </trkpt>
      <trkpt lat="47.517380" lon="8.135284">
        <ele>491.130741</ele>
        <time>2021-11-21T23:45:41.954Z</time>
      </trkpt>
      <trkpt lat="47.517476" lon="8.135870">
        <ele>489.484439</ele>
        <time>2021-11-21T23:45:45.822Z</time>
      </trkpt>
      <trkpt lat="47.517541" lon="8.136103">
        <ele>488.796167</ele>
        <time>2021-11-21T23:45:47.468Z</time>
      </trkpt>
      <trkpt lat="47.517686" lon="8.136537">
        <ele>487.474195</ele>
        <time>2021-11-21T23:45:50.654Z</time>
      </trkpt>
      <trkpt lat="47.517845" lon="8.137000">
        <ele>486.056079</ele>
        <time>2021-11-21T23:45:54.172Z</time>
      </trkpt>
      <trkpt lat="47.517976" lon="8.137488">
        <ele>485.457137</ele>
        <time>2021-11-21T23:45:57.765Z</time>
      </trkpt>
      <trkpt lat="47.518030" lon="8.137790">
        <ele>485.383433</ele>
        <time>2021-11-21T23:45:59.907Z</time>
      </trkpt>
      <trkpt lat="47.518054" lon="8.137953">
        <ele>485.344074</ele>
        <time>2021-11-21T23:46:01.110Z</time>
      </trkpt>
      <trkpt lat="47.518104" lon="8.138332">
        <ele>485.252969</ele>
        <time>2021-11-21T23:46:04.075Z</time>
      </trkpt>
      <trkpt lat="47.518154" lon="8.138644">
        <ele>485.177317</ele>
        <time>2021-11-21T23:46:07.062Z</time>
      </trkpt>
      <trkpt lat="47.518444" lon="8.139763">
        <ele>485.102522</ele>
        <time>2021-11-21T23:46:23.000Z</time>
      </trkpt>
      <trkpt lat="47.518520" lon="8.140038">
        <ele>486.134871</ele>
        <time>2021-11-21T23:46:29.980Z</time>
      </trkpt>
      <trkpt lat="47.518621" lon="8.139978">
        <ele>486.694723</ele>
        <time>2021-11-21T23:46:32.671Z</time>
      </trkpt>
      <trkpt lat="47.518669" lon="8.139927">
        <ele>486.998654</ele>
        <time>2021-11-21T23:46:34.227Z</time>
      </trkpt>
      <trkpt lat="47.518769" lon="8.139831">
        <ele>487.611765</ele>
        <time>2021-11-21T23:46:38.999Z</time>
      </trkpt>
      <trkpt lat="47.519094" lon="8.139647">
        <ele>489.401775</ele>
        <time>2021-11-21T23:46:51.917Z</time>
      </trkpt>
      <trkpt lat="47.519420" lon="8.139752">
        <ele>491.118099</ele>
        <time>2021-11-21T23:47:04.651Z</time>
      </trkpt>
      <trkpt lat="47.519509" lon="8.139849">
        <ele>491.686614</ele>
        <time>2021-11-21T23:47:09.593Z</time>
      </trkpt>
      <trkpt lat="47.519606" lon="8.139968">
        <ele>492.334649</ele>
        <time>2021-11-21T23:47:13.877Z</time>
      </trkpt>
      <trkpt lat="47.519799" lon="8.140263">
        <ele>493.761628</ele>
        <time>2021-11-21T23:47:26.058Z</time>
      </trkpt>
      <trkpt lat="47.520010" lon="8.140561">
        <ele>495.411910</ele>
        <time>2021-11-21T23:47:38.408Z</time>
      </trkpt>
      <trkpt lat="47.520122" lon="8.140718">
        <ele>496.313599</ele>
        <time>2021-11-21T23:47:43.914Z</time>
      </trkpt>
      <trkpt lat="47.520231" lon="8.140864">
        <ele>497.172912</ele>
        <time>2021-11-21T23:47:49.408Z</time>
      </trkpt>
      <trkpt lat="47.520353" lon="8.141020">
        <ele>498.115327</ele>
        <time>2021-11-21T23:47:55.637Z</time>
      </trkpt>
      <trkpt lat="47.520494" lon="8.141123">
        <ele>499.034543</ele>
        <time>2021-11-21T23:48:01.407Z</time>
      </trkpt>
      <trkpt lat="47.520656" lon="8.141153">
        <ele>499.989060</ele>
        <time>2021-11-21T23:48:08.273Z</time>
      </trkpt>
      <trkpt lat="47.520728" lon="8.141141">
        <ele>500.412668</ele>
        <time>2021-11-21T23:48:10.810Z</time>
      </trkpt>
      <trkpt lat="47.520809" lon="8.141121">
        <ele>500.892776</ele>
        <time>2021-11-21T23:48:14.016Z</time>
      </trkpt>
      <trkpt lat="47.520979" lon="8.141091">
        <ele>501.893720</ele>
        <time>2021-11-21T23:48:20.134Z</time>
      </trkpt>
      <trkpt lat="47.521217" lon="8.141214">
        <ele>503.367506</ele>
        <time>2021-11-21T23:48:29.463Z</time>
      </trkpt>
      <trkpt lat="47.521323" lon="8.141385">
        <ele>504.283966</ele>
        <time>2021-11-21T23:48:34.881Z</time>
      </trkpt>
      <trkpt lat="47.521505" lon="8.142343">
        <ele>508.413736</ele>
        <time>2021-11-21T23:48:59.940Z</time>
      </trkpt>
      <trkpt lat="47.521571" lon="8.142474">
        <ele>509.095626</ele>
        <time>2021-11-21T23:49:03.852Z</time>
      </trkpt>
      <trkpt lat="47.522534" lon="8.143857">
        <ele>517.607945</ele>
        <time>2021-11-21T23:49:58.819Z</time>
      </trkpt>
      <trkpt lat="47.522611" lon="8.144805">
        <ele>522.152252</ele>
        <time>2021-11-21T23:50:28.658Z</time>
      </trkpt>
      <trkpt lat="47.522731" lon="8.145171">
        <ele>524.088593</ele>
        <time>2021-11-21T23:50:40.024Z</time>
      </trkpt>
      <trkpt lat="47.522791" lon="8.145287">
        <ele>524.784003</ele>
        <time>2021-11-21T23:50:45.297Z</time>
      </trkpt>
      <trkpt lat="47.522931" lon="8.145526">
        <ele>526.289768</ele>
        <time>2021-11-21T23:50:53.829Z</time>
      </trkpt>
      <trkpt lat="47.523143" lon="8.145922">
        <ele>528.620022</ele>
        <time>2021-11-21T23:51:08.382Z</time>
      </trkpt>
      <trkpt lat="47.523253" lon="8.146107">
        <ele>529.411328</ele>
        <time>2021-11-21T23:51:16.239Z</time>
      </trkpt>
      <trkpt lat="47.523819" lon="8.147090">
        <ele>533.558374</ele>
        <time>2021-11-21T23:51:46.470Z</time>
      </trkpt>
      <trkpt lat="47.523983" lon="8.147357">
        <ele>534.717036</ele>
        <time>2021-11-21T23:51:53.680Z</time>
      </trkpt>
      <trkpt lat="47.524101" lon="8.147621">
        <ele>535.733361</ele>
        <time>2021-11-21T23:51:59.702Z</time>
      </trkpt>
      <trkpt lat="47.524184" lon="8.147870">
        <ele>536.624780</ele>
        <time>2021-11-21T23:52:04.729Z</time>
      </trkpt>
      <trkpt lat="47.524236" lon="8.148019">
        <ele>537.127055</ele>
        <time>2021-11-21T23:52:08.117Z</time>
      </trkpt>
      <trkpt lat="47.524342" lon="8.148337">
        <ele>537.986833</ele>
        <time>2021-11-21T23:52:14.208Z</time>
      </trkpt>
      <trkpt lat="47.524426" lon="8.148623">
        <ele>538.742962</ele>
        <time>2021-11-21T23:52:20.692Z</time>
      </trkpt>
      <trkpt lat="47.524468" lon="8.148740">
        <ele>539.064207</ele>
        <time>2021-11-21T23:52:22.786Z</time>
      </trkpt>
      <trkpt lat="47.524547" lon="8.149022">
        <ele>539.804389</ele>
        <time>2021-11-21T23:52:29.490Z</time>
      </trkpt>
      <trkpt lat="47.524838" lon="8.149751">
        <ele>541.857482</ele>
        <time>2021-11-21T23:52:45.718Z</time>
      </trkpt>
      <trkpt lat="47.525250" lon="8.150500">
        <ele>544.306379</ele>
        <time>2021-11-21T23:53:04.987Z</time>
      </trkpt>
      <trkpt lat="47.525477" lon="8.150925">
        <ele>545.813256</ele>
        <time>2021-11-21T23:53:17.273Z</time>
      </trkpt>
      <trkpt lat="47.525631" lon="8.151281">
        <ele>546.988951</ele>
        <time>2021-11-21T23:53:25.970Z</time>
      </trkpt>
      <trkpt lat="47.525712" lon="8.151526">
        <ele>547.747530</ele>
        <time>2021-11-21T23:53:32.558Z</time>
      </trkpt>
      <trkpt lat="47.525781" lon="8.151732">
        <ele>548.386983</ele>
        <time>2021-11-21T23:53:37.227Z</time>
      </trkpt>
      <trkpt lat="47.525986" lon="8.152431">
        <ele>550.506188</ele>
        <time>2021-11-21T23:53:53.738Z</time>
      </trkpt>
      <trkpt lat="47.526015" lon="8.152528">
        <ele>550.801182</ele>
        <time>2021-11-21T23:53:56.413Z</time>
      </trkpt>
      <trkpt lat="47.526233" lon="8.152973">
        <ele>551.861382</ele>
        <time>2021-11-21T23:54:07.018Z</time>
      </trkpt>
      <trkpt lat="47.526376" lon="8.153143">
        <ele>552.372456</ele>
        <time>2021-11-21T23:54:11.239Z</time>
      </trkpt>
      <trkpt lat="47.526455" lon="8.153308">
        <ele>552.753116</ele>
        <time>2021-11-21T23:54:15.622Z</time>
      </trkpt>
      <trkpt lat="47.526505" lon="8.153493">
        <ele>553.128129</ele>
        <time>2021-11-21T23:54:21.960Z</time>
      </trkpt>
      <trkpt lat="47.526521" lon="8.153700">
        <ele>553.520237</ele>
        <time>2021-11-21T23:54:28.206Z</time>
      </trkpt>
      <trkpt lat="47.526555" lon="8.153923">
        <ele>553.950476</ele>
        <time>2021-11-21T23:54:36.010Z</time>
      </trkpt>
      <trkpt lat="47.526626" lon="8.154250">
        <ele>554.596904</ele>
        <time>2021-11-21T23:54:41.498Z</time>
      </trkpt>
      <trkpt lat="47.526984" lon="8.155261">
        <ele>556.020040</ele>
        <time>2021-11-21T23:55:00.879Z</time>
      </trkpt>
      <trkpt lat="47.527439" lon="8.157168">
        <ele>556.586962</ele>
        <time>2021-11-21T23:55:22.658Z</time>
      </trkpt>
      <trkpt lat="47.527713" lon="8.157956">
        <ele>556.243222</ele>
        <time>2021-11-21T23:55:29.196Z</time>
      </trkpt>
      <trkpt lat="47.527755" lon="8.158037">
        <ele>556.185204</ele>
        <time>2021-11-21T23:55:29.924Z</time>
      </trkpt>
      <trkpt lat="47.527831" lon="8.158278">
        <ele>556.034099</ele>
        <time>2021-11-21T23:55:31.725Z</time>
      </trkpt>
      <trkpt lat="47.527937" lon="8.159204">
        <ele>555.500541</ele>
        <time>2021-11-21T23:55:43.254Z</time>
      </trkpt>
      <trkpt lat="47.527947" lon="8.159230">
        <ele>555.483542</ele>
        <time>2021-11-21T23:55:43.424Z</time>
      </trkpt>
      <trkpt lat="47.527958" lon="8.159243">
        <ele>555.471702</ele>
        <time>2021-11-21T23:55:43.579Z</time>
      </trkpt>
      <trkpt lat="47.527983" lon="8.159252">
        <ele>555.450057</ele>
        <time>2021-11-21T23:55:44.253Z</time>
      </trkpt>
      <trkpt lat="47.528287" lon="8.159214">
        <ele>555.193384</ele>
        <time>2021-11-21T23:55:48.427Z</time>
      </trkpt>
      <trkpt lat="47.528358" lon="8.159233">
        <ele>555.132682</ele>
        <time>2021-11-21T23:55:49.310Z</time>
      </trkpt>
      <trkpt lat="47.528551" lon="8.159101">
        <ele>554.312770</ele>
        <time>2021-11-21T23:55:52.738Z</time>
      </trkpt>
      <trkpt lat="47.528696" lon="8.159009">
        <ele>553.687352</ele>
        <time>2021-11-21T23:55:54.400Z</time>
      </trkpt>
      <trkpt lat="47.528773" lon="8.158954">
        <ele>553.348418</ele>
        <time>2021-11-21T23:55:55.215Z</time>
      </trkpt>
      <trkpt lat="47.528873" lon="8.158872">
        <ele>552.895233</ele>
        <time>2021-11-21T23:55:57.515Z</time>
      </trkpt>
      <trkpt lat="47.528962" lon="8.158795">
        <ele>552.486577</ele>
        <time>2021-11-21T23:55:58.429Z</time>
      </trkpt>
      <trkpt lat="47.529013" lon="8.158747">
        <ele>552.247001</ele>
        <time>2021-11-21T23:56:00.049Z</time>
      </trkpt>
      <trkpt lat="47.529039" lon="8.158720">
        <ele>552.121103</ele>
        <time>2021-11-21T23:56:00.337Z</time>
      </trkpt>
      <trkpt lat="47.529091" lon="8.158660">
        <ele>551.859754</ele>
        <time>2021-11-21T23:56:00.936Z</time>
      </trkpt>
      <trkpt lat="47.529235" lon="8.158441">
        <ele>551.041428</ele>
        <time>2021-11-21T23:56:02.872Z</time>
      </trkpt>
      <trkpt lat="47.529315" lon="8.158315">
        <ele>550.578421</ele>
        <time>2021-11-21T23:56:04.108Z</time>
      </trkpt>
      <trkpt lat="47.529437" lon="8.158073">
        <ele>549.769932</ele>
        <time>2021-11-21T23:56:06.085Z</time>
      </trkpt>
      <trkpt lat="47.529679" lon="8.157567">
        <ele>548.109990</ele>
        <time>2021-11-21T23:56:09.958Z</time>
      </trkpt>
      <trkpt lat="47.529810" lon="8.157300">
        <ele>546.156338</ele>
        <time>2021-11-21T23:56:12.048Z</time>
      </trkpt>
      <trkpt lat="47.529856" lon="8.157192">
        <ele>545.338798</ele>
        <time>2021-11-21T23:56:12.766Z</time>
      </trkpt>
      <trkpt lat="47.530071" lon="8.156701">
        <ele>541.592034</ele>
        <time>2021-11-21T23:56:16.182Z</time>
      </trkpt>
      <trkpt lat="47.530199" lon="8.156282">
        <ele>538.647643</ele>
        <time>2021-11-21T23:56:18.836Z</time>
      </trkpt>
      <trkpt lat="47.530239" lon="8.155804">
        <ele>535.563897</ele>
        <time>2021-11-21T23:56:21.639Z</time>
      </trkpt>
      <trkpt lat="47.530234" lon="8.155720">
        <ele>535.024012</ele>
        <time>2021-11-21T23:56:22.110Z</time>
      </trkpt>
      <trkpt lat="47.530211" lon="8.155580">
        <ele>534.101530</ele>
        <time>2021-11-21T23:56:22.929Z</time>
      </trkpt>
      <trkpt lat="47.530058" lon="8.154979">
        <ele>530.166527</ele>
        <time>2021-11-21T23:56:26.658Z</time>
      </trkpt>
      <trkpt lat="47.529728" lon="8.154087">
        <ele>524.868039</ele>
        <time>2021-11-21T23:56:32.658Z</time>
      </trkpt>
      <trkpt lat="47.529587" lon="8.153510">
        <ele>521.671458</ele>
        <time>2021-11-21T23:56:36.366Z</time>
      </trkpt>
      <trkpt lat="47.529529" lon="8.153239">
        <ele>520.190504</ele>
        <time>2021-11-21T23:56:38.130Z</time>
      </trkpt>
      <trkpt lat="47.529405" lon="8.152475">
        <ele>516.446713</ele>
        <time>2021-11-21T23:56:43.019Z</time>
      </trkpt>
      <trkpt lat="47.529292" lon="8.151912">
        <ele>514.493621</ele>
        <time>2021-11-21T23:56:46.674Z</time>
      </trkpt>
      <trkpt lat="47.529120" lon="8.151400">
        <ele>512.591995</ele>
        <time>2021-11-21T23:56:50.228Z</time>
      </trkpt>
      <trkpt lat="47.529014" lon="8.151078">
        <ele>511.400774</ele>
        <time>2021-11-21T23:56:52.505Z</time>
      </trkpt>
      <trkpt lat="47.528964" lon="8.150888">
        <ele>510.722678</ele>
        <time>2021-11-21T23:56:53.813Z</time>
      </trkpt>
      <trkpt lat="47.528852" lon="8.149954">
        <ele>507.930617</ele>
        <time>2021-11-21T23:57:00.203Z</time>
      </trkpt>
      <trkpt lat="47.528834" lon="8.149583">
        <ele>507.396917</ele>
        <time>2021-11-21T23:57:02.784Z</time>
      </trkpt>
      <trkpt lat="47.528815" lon="8.149196">
        <ele>506.840165</ele>
        <time>2021-11-21T23:57:05.535Z</time>
      </trkpt>
      <trkpt lat="47.528722" lon="8.148418">
        <ele>505.706494</ele>
        <time>2021-11-21T23:57:11.392Z</time>
      </trkpt>
      <trkpt lat="47.528534" lon="8.147807">
        <ele>504.743064</ele>
        <time>2021-11-21T23:57:16.814Z</time>
      </trkpt>
      <trkpt lat="47.528477" lon="8.147642">
        <ele>504.477127</ele>
        <time>2021-11-21T23:57:18.413Z</time>
      </trkpt>
      <trkpt lat="47.528291" lon="8.147059">
        <ele>502.467041</ele>
        <time>2021-11-21T23:57:23.654Z</time>
      </trkpt>
      <trkpt lat="47.528185" lon="8.146699">
        <ele>501.168344</ele>
        <time>2021-11-21T23:57:26.890Z</time>
      </trkpt>
      <trkpt lat="47.528149" lon="8.146523">
        <ele>500.560234</ele>
        <time>2021-11-21T23:57:28.169Z</time>
      </trkpt>
      <trkpt lat="47.528029" lon="8.145634">
        <ele>497.562344</ele>
        <time>2021-11-21T23:57:33.935Z</time>
      </trkpt>
      <trkpt lat="47.528031" lon="8.145045">
        <ele>495.614625</ele>
        <time>2021-11-21T23:57:37.362Z</time>
      </trkpt>
      <trkpt lat="47.528102" lon="8.144463">
        <ele>490.242123</ele>
        <time>2021-11-21T23:57:40.771Z</time>
      </trkpt>
      <trkpt lat="47.528165" lon="8.144175">
        <ele>487.455962</ele>
        <time>2021-11-21T23:57:42.505Z</time>
      </trkpt>
      <trkpt lat="47.528319" lon="8.143633">
        <ele>482.044167</ele>
        <time>2021-11-21T23:57:45.839Z</time>
      </trkpt>
      <trkpt lat="47.528529" lon="8.143139">
        <ele>476.671810</ele>
        <time>2021-11-21T23:57:49.106Z</time>
      </trkpt>
      <trkpt lat="47.529056" lon="8.142203">
        <ele>465.417950</ele>
        <time>2021-11-21T23:57:55.881Z</time>
      </trkpt>
      <trkpt lat="47.529206" lon="8.141942">
        <ele>462.242339</ele>
        <time>2021-11-21T23:57:57.790Z</time>
      </trkpt>
      <trkpt lat="47.529330" lon="8.141745">
        <ele>459.746988</ele>
        <time>2021-11-21T23:57:59.293Z</time>
      </trkpt>
      <trkpt lat="47.529595" lon="8.141302">
        <ele>454.263389</ele>
        <time>2021-11-21T23:58:02.645Z</time>
      </trkpt>
      <trkpt lat="47.529775" lon="8.140977">
        <ele>450.368780</ele>
        <time>2021-11-21T23:58:05.047Z</time>
      </trkpt>
      <trkpt lat="47.530071" lon="8.140473">
        <ele>445.203544</ele>
        <time>2021-11-21T23:58:09.038Z</time>
      </trkpt>
      <trkpt lat="47.530742" lon="8.139379">
        <ele>437.884760</ele>
        <time>2021-11-21T23:58:17.701Z</time>
      </trkpt>
      <trkpt lat="47.531156" lon="8.138865">
        <ele>433.922811</ele>
        <time>2021-11-21T23:58:23.397Z</time>
      </trkpt>
      <trkpt lat="47.531239" lon="8.138781">
        <ele>433.186244</ele>
        <time>2021-11-21T23:58:24.223Z</time>
      </trkpt>
      <trkpt lat="47.531449" lon="8.138596">
        <ele>431.973665</ele>
        <time>2021-11-21T23:58:30.579Z</time>
      </trkpt>
      <trkpt lat="47.531671" lon="8.138457">
        <ele>430.777552</ele>
        <time>2021-11-21T23:58:32.727Z</time>
      </trkpt>
      <trkpt lat="47.531896" lon="8.138317">
        <ele>429.566419</ele>
        <time>2021-11-21T23:58:34.924Z</time>
      </trkpt>
      <trkpt lat="47.532062" lon="8.138249">
        <ele>428.711690</ele>
        <time>2021-11-21T23:58:39.094Z</time>
      </trkpt>
      <trkpt lat="47.532251" lon="8.138188">
        <ele>427.751737</ele>
        <time>2021-11-21T23:58:40.760Z</time>
      </trkpt>
      <trkpt lat="47.532921" lon="8.138051">
        <ele>424.395220</ele>
        <time>2021-11-21T23:58:47.063Z</time>
      </trkpt>
      <trkpt lat="47.533257" lon="8.137990">
        <ele>422.663030</ele>
        <time>2021-11-21T23:58:50.348Z</time>
      </trkpt>
      <trkpt lat="47.533600" lon="8.137926">
        <ele>420.889406</ele>
        <time>2021-11-21T23:58:53.628Z</time>
      </trkpt>
      <trkpt lat="47.533889" lon="8.137879">
        <ele>419.397820</ele>
        <time>2021-11-21T23:58:56.361Z</time>
      </trkpt>
      <trkpt lat="47.534074" lon="8.137846">
        <ele>418.441845</ele>
        <time>2021-11-21T23:58:58.118Z</time>
      </trkpt>
      <trkpt lat="47.534107" lon="8.137840">
        <ele>418.271272</ele>
        <time>2021-11-21T23:58:58.449Z</time>
      </trkpt>
      <trkpt lat="47.534213" lon="8.137821">
        <ele>417.723486</ele>
        <time>2021-11-21T23:58:59.423Z</time>
      </trkpt>
      <trkpt lat="47.534814" lon="8.137722">
        <ele>414.663774</ele>
        <time>2021-11-21T23:59:05.053Z</time>
      </trkpt>
      <trkpt lat="47.535048" lon="8.137685">
        <ele>413.581171</ele>
        <time>2021-11-21T23:59:07.232Z</time>
      </trkpt>
      <trkpt lat="47.535119" lon="8.137674">
        <ele>413.252763</ele>
        <time>2021-11-21T23:59:07.905Z</time>
      </trkpt>
      <trkpt lat="47.535263" lon="8.137663">
        <ele>412.589429</ele>
        <time>2021-11-21T23:59:09.285Z</time>
      </trkpt>
      <trkpt lat="47.535322" lon="8.137658">
        <ele>412.317564</ele>
        <time>2021-11-21T23:59:09.837Z</time>
      </trkpt>
      <trkpt lat="47.535430" lon="8.137649">
        <ele>411.819938</ele>
        <time>2021-11-21T23:59:10.856Z</time>
      </trkpt>
      <trkpt lat="47.535502" lon="8.137652">
        <ele>411.488580</ele>
        <time>2021-11-21T23:59:11.546Z</time>
      </trkpt>
      <trkpt lat="47.535749" lon="8.137651">
        <ele>410.352285</ele>
        <time>2021-11-21T23:59:13.901Z</time>
      </trkpt>
      <trkpt lat="47.536065" lon="8.137655">
        <ele>408.898515</ele>
        <time>2021-11-21T23:59:17.009Z</time>
      </trkpt>
      <trkpt lat="47.536180" lon="8.137660">
        <ele>408.369245</ele>
        <time>2021-11-21T23:59:18.087Z</time>
      </trkpt>
      <trkpt lat="47.536373" lon="8.137663">
        <ele>407.481325</ele>
        <time>2021-11-21T23:59:19.973Z</time>
      </trkpt>
      <trkpt lat="47.537303" lon="8.137605">
        <ele>404.351245</ele>
        <time>2021-11-21T23:59:29.095Z</time>
      </trkpt>
      <trkpt lat="47.537459" lon="8.137568">
        <ele>403.859623</ele>
        <time>2021-11-21T23:59:30.769Z</time>
      </trkpt>
      <trkpt lat="47.537561" lon="8.137544">
        <ele>403.538242</ele>
        <time>2021-11-21T23:59:31.831Z</time>
      </trkpt>
      <trkpt lat="47.537646" lon="8.137515">
        <ele>403.266815</ele>
        <time>2021-11-21T23:59:32.695Z</time>
      </trkpt>
      <trkpt lat="47.537954" lon="8.137399">
        <ele>402.277891</ele>
        <time>2021-11-21T23:59:36.122Z</time>
      </trkpt>
      <trkpt lat="47.538245" lon="8.137269">
        <ele>401.332077</ele>
        <time>2021-11-21T23:59:39.446Z</time>
      </trkpt>
      <trkpt lat="47.538326" lon="8.137234">
        <ele>401.091528</ele>
        <time>2021-11-21T23:59:40.322Z</time>
      </trkpt>
      <trkpt lat="47.539177" lon="8.136833">
        <ele>398.970143</ele>
        <time>2021-11-21T23:59:49.993Z</time>
      </trkpt>
      <trkpt lat="47.539418" lon="8.136710">
        <ele>398.364615</ele>
        <time>2021-11-21T23:59:52.762Z</time>
      </trkpt>
      <trkpt lat="47.539754" lon="8.136528">
        <ele>397.514752</ele>
        <time>2021-11-21T23:59:56.539Z</time>
      </trkpt>
      <trkpt lat="47.540238" lon="8.136236">
        <ele>396.069247</ele>
        <time>2021-11-22T00:00:01.940Z</time>
      </trkpt>
      <trkpt lat="47.540569" lon="8.135993">
        <ele>394.901238</ele>
        <time>2021-11-22T00:00:05.750Z</time>
      </trkpt>
      <trkpt lat="47.540731" lon="8.135878">
        <ele>394.333260</ele>
        <time>2021-11-22T00:00:07.657Z</time>
      </trkpt>
      <trkpt lat="47.540869" lon="8.135758">
        <ele>393.827319</ele>
        <time>2021-11-22T00:00:09.181Z</time>
      </trkpt>
      <trkpt lat="47.541466" lon="8.135315">
        <ele>391.716183</ele>
        <time>2021-11-22T00:00:15.975Z</time>
      </trkpt>
      <trkpt lat="47.541516" lon="8.135303">
        <ele>391.556035</ele>
        <time>2021-11-22T00:00:16.433Z</time>
      </trkpt>
      <trkpt lat="47.541574" lon="8.135288">
        <ele>391.369880</ele>
        <time>2021-11-22T00:00:17.011Z</time>
      </trkpt>
      <trkpt lat="47.541750" lon="8.135267">
        <ele>390.851560</ele>
        <time>2021-11-22T00:00:18.830Z</time>
      </trkpt>
      <trkpt lat="47.541919" lon="8.135253">
        <ele>390.371016</ele>
        <time>2021-11-22T00:00:20.462Z</time>
      </trkpt>
      <trkpt lat="47.542003" lon="8.135244">
        <ele>390.131916</ele>
        <time>2021-11-22T00:00:21.346Z</time>
      </trkpt>
      <trkpt lat="47.542148" lon="8.135197">
        <ele>389.710519</ele>
        <time>2021-11-22T00:00:22.875Z</time>
      </trkpt>
      <trkpt lat="47.542698" lon="8.134836">
        <ele>388.002654</ele>
        <time>2021-11-22T00:00:29.097Z</time>
      </trkpt>
      <trkpt lat="47.542844" lon="8.134643">
        <ele>387.447122</ele>
        <time>2021-11-22T00:00:31.144Z</time>
      </trkpt>
      <trkpt lat="47.542894" lon="8.134525">
        <ele>387.180121</ele>
        <time>2021-11-22T00:00:32.085Z</time>
      </trkpt>
      <trkpt lat="47.542926" lon="8.134419">
        <ele>386.957589</ele>
        <time>2021-11-22T00:00:33.035Z</time>
      </trkpt>
      <trkpt lat="47.543005" lon="8.134187">
        <ele>386.459608</ele>
        <time>2021-11-22T00:00:34.924Z</time>
      </trkpt>
      <trkpt lat="47.543075" lon="8.134036">
        <ele>386.108558</ele>
        <time>2021-11-22T00:00:36.202Z</time>
      </trkpt>
      <trkpt lat="47.543149" lon="8.133918">
        <ele>385.857596</ele>
        <time>2021-11-22T00:00:37.447Z</time>
      </trkpt>
      <trkpt lat="47.543220" lon="8.133852">
        <ele>385.665907</ele>
        <time>2021-11-22T00:00:38.305Z</time>
      </trkpt>
      <trkpt lat="47.543321" lon="8.133795">
        <ele>385.418738</ele>
        <time>2021-11-22T00:00:39.405Z</time>
      </trkpt>
      <trkpt lat="47.543505" lon="8.133721">
        <ele>384.982719</ele>
        <time>2021-11-22T00:00:41.617Z</time>
      </trkpt>
      <trkpt lat="47.543619" lon="8.133664">
        <ele>384.707565</ele>
        <time>2021-11-22T00:00:42.903Z</time>
      </trkpt>
      <trkpt lat="47.543708" lon="8.133619">
        <ele>384.492503</ele>
        <time>2021-11-22T00:00:43.844Z</time>
      </trkpt>
      <trkpt lat="47.543845" lon="8.133524">
        <ele>384.146574</ele>
        <time>2021-11-22T00:00:45.713Z</time>
      </trkpt>
      <trkpt lat="47.544105" lon="8.133316">
        <ele>383.470824</ele>
        <time>2021-11-22T00:00:48.823Z</time>
      </trkpt>
      <trkpt lat="47.544222" lon="8.133222">
        <ele>383.166442</ele>
        <time>2021-11-22T00:00:50.283Z</time>
      </trkpt>
      <trkpt lat="47.544453" lon="8.133038">
        <ele>382.566651</ele>
        <time>2021-11-22T00:00:53.212Z</time>
      </trkpt>
      <trkpt lat="47.544650" lon="8.132899">
        <ele>382.067644</ele>
        <time>2021-11-22T00:00:55.442Z</time>
      </trkpt>
      <trkpt lat="47.544810" lon="8.132765">
        <ele>381.554294</ele>
        <time>2021-11-22T00:00:57.483Z</time>
      </trkpt>
      <trkpt lat="47.545059" lon="8.132589">
        <ele>380.748681</ele>
        <time>2021-11-22T00:01:00.374Z</time>
      </trkpt>
      <trkpt lat="47.545184" lon="8.132503">
        <ele>380.346233</ele>
        <time>2021-11-22T00:01:01.789Z</time>
      </trkpt>
      <trkpt lat="47.545331" lon="8.132442">
        <ele>379.900464</ele>
        <time>2021-11-22T00:01:03.349Z</time>
      </trkpt>
      <trkpt lat="47.545734" lon="8.132329">
        <ele>378.702788</ele>
        <time>2021-11-22T00:01:07.579Z</time>
      </trkpt>
      <trkpt lat="47.545962" lon="8.132304">
        <ele>378.035194</ele>
        <time>2021-11-22T00:01:09.889Z</time>
      </trkpt>
      <trkpt lat="47.546023" lon="8.132300">
        <ele>377.856896</ele>
        <time>2021-11-22T00:01:10.492Z</time>
      </trkpt>
      <trkpt lat="47.546602" lon="8.132235">
        <ele>376.182824</ele>
        <time>2021-11-22T00:01:16.379Z</time>
      </trkpt>
      <trkpt lat="47.546938" lon="8.132181">
        <ele>375.233143</ele>
        <time>2021-11-22T00:01:19.752Z</time>
      </trkpt>
      <trkpt lat="47.547951" lon="8.132055">
        <ele>372.376655</ele>
        <time>2021-11-22T00:01:30.240Z</time>
      </trkpt>
      <trkpt lat="47.548544" lon="8.131974">
        <ele>371.237815</ele>
        <time>2021-11-22T00:01:36.804Z</time>
      </trkpt>
      <trkpt lat="47.549752" lon="8.131786">
        <ele>369.698212</ele>
        <time>2021-11-22T00:01:51.453Z</time>
      </trkpt>
      <trkpt lat="47.550488" lon="8.131671">
        <ele>368.867818</ele>
        <time>2021-11-22T00:02:01.041Z</time>
      </trkpt>
      <trkpt lat="47.550614" lon="8.131652">
        <ele>368.734418</ele>
        <time>2021-11-22T00:02:02.897Z</time>
      </trkpt>
      <trkpt lat="47.550712" lon="8.131637">
        <ele>368.630645</ele>
        <time>2021-11-22T00:02:04.033Z</time>
      </trkpt>
      <trkpt lat="47.551029" lon="8.131586">
        <ele>368.294788</ele>
        <time>2021-11-22T00:02:08.056Z</time>
      </trkpt>
      <trkpt lat="47.551383" lon="8.131531">
        <ele>367.919877</ele>
        <time>2021-11-22T00:02:12.198Z</time>
      </trkpt>
      <trkpt lat="47.551749" lon="8.131479">
        <ele>367.532603</ele>
        <time>2021-11-22T00:02:16.475Z</time>
      </trkpt>
      <trkpt lat="47.551784" lon="8.131474">
        <ele>367.491014</ele>
        <time>2021-11-22T00:02:16.821Z</time>
      </trkpt>
      <trkpt lat="47.551873" lon="8.131469">
        <ele>367.337659</ele>
        <time>2021-11-22T00:02:17.840Z</time>
      </trkpt>
      <trkpt lat="47.552293" lon="8.131579">
        <ele>366.603268</ele>
        <time>2021-11-22T00:02:22.865Z</time>
      </trkpt>
      <trkpt lat="47.552326" lon="8.131597">
        <ele>366.542718</ele>
        <time>2021-11-22T00:02:23.178Z</time>
      </trkpt>
      <trkpt lat="47.552402" lon="8.131645">
        <ele>366.400465</ele>
        <time>2021-11-22T00:02:24.180Z</time>
      </trkpt>
      <trkpt lat="47.552493" lon="8.131722">
        <ele>366.220025</ele>
        <time>2021-11-22T00:02:25.337Z</time>
      </trkpt>
      <trkpt lat="47.552602" lon="8.131831">
        <ele>365.993597</ele>
        <time>2021-11-22T00:02:26.848Z</time>
      </trkpt>
      <trkpt lat="47.553483" lon="8.132756">
        <ele>364.126051</ele>
        <time>2021-11-22T00:02:38.904Z</time>
      </trkpt>
      <trkpt lat="47.553541" lon="8.132821">
        <ele>363.996985</ele>
        <time>2021-11-22T00:02:39.600Z</time>
      </trkpt>
      <trkpt lat="47.553641" lon="8.132928">
        <ele>363.778068</ele>
        <time>2021-11-22T00:02:41.131Z</time>
      </trkpt>
      <trkpt lat="47.553708" lon="8.133003">
        <ele>363.629037</ele>
        <time>2021-11-22T00:02:42.210Z</time>
      </trkpt>
      <trkpt lat="47.553759" lon="8.133056">
        <ele>363.518480</ele>
        <time>2021-11-22T00:02:42.941Z</time>
      </trkpt>
      <trkpt lat="47.553847" lon="8.133128">
        <ele>363.340069</ele>
        <time>2021-11-22T00:02:44.027Z</time>
      </trkpt>
      <trkpt lat="47.554071" lon="8.133239">
        <ele>362.920874</ele>
        <time>2021-11-22T00:02:46.786Z</time>
      </trkpt>
      <trkpt lat="47.554467" lon="8.133300">
        <ele>362.214271</ele>
        <time>2021-11-22T00:02:51.335Z</time>
      </trkpt>
      <trkpt lat="47.554619" lon="8.133314">
        <ele>361.943982</ele>
        <time>2021-11-22T00:02:52.940Z</time>
      </trkpt>
      <trkpt lat="47.554855" lon="8.133333">
        <ele>361.524515</ele>
        <time>2021-11-22T00:02:55.577Z</time>
      </trkpt>
      <trkpt lat="47.555303" lon="8.133375">
        <ele>360.606747</ele>
        <time>2021-11-22T00:03:00.510Z</time>
      </trkpt>
      <trkpt lat="47.555444" lon="8.133390">
        <ele>360.293318</ele>
        <time>2021-11-22T00:03:02.016Z</time>
      </trkpt>
      <trkpt lat="47.555690" lon="8.133401">
        <ele>359.747639</ele>
        <time>2021-11-22T00:03:04.771Z</time>
      </trkpt>
      <trkpt lat="47.555896" lon="8.133399">
        <ele>359.290888</ele>
        <time>2021-11-22T00:03:07.013Z</time>
      </trkpt>
      <trkpt lat="47.556093" lon="8.133383">
        <ele>358.853445</ele>
        <time>2021-11-22T00:03:09.142Z</time>
      </trkpt>
      <trkpt lat="47.556204" lon="8.133369">
        <ele>358.606446</ele>
        <time>2021-11-22T00:03:10.311Z</time>
      </trkpt>
      <trkpt lat="47.556513" lon="8.133340">
        <ele>357.919960</ele>
        <time>2021-11-22T00:03:13.622Z</time>
      </trkpt>
      <trkpt lat="47.557021" lon="8.133293">
        <ele>356.803909</ele>
        <time>2021-11-22T00:03:18.987Z</time>
      </trkpt>
      <trkpt lat="47.557237" lon="8.133273">
        <ele>356.337852</ele>
        <time>2021-11-22T00:03:21.278Z</time>
      </trkpt>
      <trkpt lat="47.557846" lon="8.133209">
        <ele>355.023091</ele>
        <time>2021-11-22T00:03:27.895Z</time>
      </trkpt>
      <trkpt lat="47.558277" lon="8.133165">
        <ele>354.092744</ele>
        <time>2021-11-22T00:03:32.510Z</time>
      </trkpt>
      <trkpt lat="47.558609" lon="8.133121">
        <ele>353.374936</ele>
        <time>2021-11-22T00:03:36.166Z</time>
      </trkpt>
      <trkpt lat="47.559286" lon="8.133042">
        <ele>352.616241</ele>
        <time>2021-11-22T00:03:44.133Z</time>
      </trkpt>
      <trkpt lat="47.559423" lon="8.133034">
        <ele>352.465302</ele>
        <time>2021-11-22T00:03:45.762Z</time>
      </trkpt>
      <trkpt lat="47.559553" lon="8.133012">
        <ele>352.321257</ele>
        <time>2021-11-22T00:03:50.213Z</time>
      </trkpt>
      <trkpt lat="47.559972" lon="8.132981">
        <ele>351.859410</ele>
        <time>2021-11-22T00:04:04.675Z</time>
      </trkpt>
      <trkpt lat="47.560046" lon="8.132973">
        <ele>351.777728</ele>
        <time>2021-11-22T00:04:07.102Z</time>
      </trkpt>
      <trkpt lat="47.560143" lon="8.132963">
        <ele>351.670684</ele>
        <time>2021-11-22T00:04:08.362Z</time>
      </trkpt>
      <trkpt lat="47.560243" lon="8.132948">
        <ele>351.560033</ele>
        <time>2021-11-22T00:04:09.598Z</time>
      </trkpt>
      <trkpt lat="47.560335" lon="8.132935">
        <ele>351.458292</ele>
        <time>2021-11-22T00:04:11.114Z</time>
      </trkpt>
      <trkpt lat="47.560777" lon="8.132722">
        <ele>351.085864</ele>
        <time>2021-11-22T00:04:16.986Z</time>
      </trkpt>
      <trkpt lat="47.560827" lon="8.132679">
        <ele>351.043047</ele>
        <time>2021-11-22T00:04:17.809Z</time>
      </trkpt>
      <trkpt lat="47.560889" lon="8.132614">
        <ele>350.986798</ele>
        <time>2021-11-22T00:04:18.736Z</time>
      </trkpt>
      <trkpt lat="47.561056" lon="8.132422">
        <ele>350.830251</ele>
        <time>2021-11-22T00:04:21.533Z</time>
      </trkpt>
      <trkpt lat="47.561185" lon="8.132211">
        <ele>350.687951</ele>
        <time>2021-11-22T00:04:24.019Z</time>
      </trkpt>
      <trkpt lat="47.561796" lon="8.130897">
        <ele>349.780587</ele>
        <time>2021-11-22T00:04:37.707Z</time>
      </trkpt>
      <trkpt lat="47.562119" lon="8.130197">
        <ele>349.045587</ele>
        <time>2021-11-22T00:04:44.282Z</time>
      </trkpt>
      <trkpt lat="47.562169" lon="8.130101">
        <ele>348.940479</ele>
        <time>2021-11-22T00:04:45.283Z</time>
      </trkpt>
      <trkpt lat="47.562200" lon="8.130042">
        <ele>348.875668</ele>
        <time>2021-11-22T00:04:45.912Z</time>
      </trkpt>
      <trkpt lat="47.562419" lon="8.129559">
        <ele>348.371310</ele>
        <time>2021-11-22T00:04:50.523Z</time>
      </trkpt>
      <trkpt lat="47.562839" lon="8.128684">
        <ele>347.410898</ele>
        <time>2021-11-22T00:04:58.805Z</time>
      </trkpt>
      <trkpt lat="47.562984" lon="8.128403">
        <ele>347.072771</ele>
        <time>2021-11-22T00:05:01.607Z</time>
      </trkpt>
      <trkpt lat="47.563096" lon="8.128178">
        <ele>346.805520</ele>
        <time>2021-11-22T00:05:04.060Z</time>
      </trkpt>
      <trkpt lat="47.563232" lon="8.127932">
        <ele>346.501543</ele>
        <time>2021-11-22T00:05:06.523Z</time>
      </trkpt>
      <trkpt lat="47.563398" lon="8.127697">
        <ele>346.176354</ele>
        <time>2021-11-22T00:05:09.136Z</time>
      </trkpt>
      <trkpt lat="47.563589" lon="8.127466">
        <ele>345.827137</ele>
        <time>2021-11-22T00:05:13.114Z</time>
      </trkpt>
      <trkpt lat="47.563627" lon="8.127420">
        <ele>345.757634</ele>
        <time>2021-11-22T00:05:13.552Z</time>
      </trkpt>
      <trkpt lat="47.563751" lon="8.127247">
        <ele>345.516394</ele>
        <time>2021-11-22T00:05:15.374Z</time>
      </trkpt>
      <trkpt lat="47.563829" lon="8.127101">
        <ele>345.338399</ele>
        <time>2021-11-22T00:05:18.016Z</time>
      </trkpt>
      <trkpt lat="47.563898" lon="8.126936">
        <ele>345.136014</ele>
        <time>2021-11-22T00:05:21.659Z</time>
      </trkpt>
      <trkpt lat="47.563932" lon="8.126822">
        <ele>344.947808</ele>
        <time>2021-11-22T00:05:24.217Z</time>
      </trkpt>
      <trkpt lat="47.563935" lon="8.126813">
        <ele>344.932651</ele>
        <time>2021-11-22T00:05:24.404Z</time>
      </trkpt>
      <trkpt lat="47.563988" lon="8.126616">
        <ele>344.612408</ele>
        <time>2021-11-22T00:05:30.618Z</time>
      </trkpt>
      <trkpt lat="47.564016" lon="8.126515">
        <ele>344.447528</ele>
        <time>2021-11-22T00:05:32.524Z</time>
      </trkpt>
      <trkpt lat="47.564050" lon="8.126343">
        <ele>344.176892</ele>
        <time>2021-11-22T00:05:36.278Z</time>
      </trkpt>
      <trkpt lat="47.564078" lon="8.126253">
        <ele>344.027243</ele>
        <time>2021-11-22T00:05:38.766Z</time>
      </trkpt>
      <trkpt lat="47.564142" lon="8.126069">
        <ele>343.714662</ele>
        <time>2021-11-22T00:05:43.281Z</time>
      </trkpt>
      <trkpt lat="47.564204" lon="8.125933">
        <ele>343.466827</ele>
        <time>2021-11-22T00:05:44.385Z</time>
      </trkpt>
      <trkpt lat="47.564281" lon="8.125780">
        <ele>343.178615</ele>
        <time>2021-11-22T00:05:45.967Z</time>
      </trkpt>
      <trkpt lat="47.564404" lon="8.125557">
        <ele>342.743703</ele>
        <time>2021-11-22T00:05:48.014Z</time>
      </trkpt>
      <trkpt lat="47.564445" lon="8.125480">
        <ele>342.595593</ele>
        <time>2021-11-22T00:05:48.657Z</time>
      </trkpt>
      <trkpt lat="47.564862" lon="8.124663">
        <ele>341.048725</ele>
        <time>2021-11-22T00:05:56.024Z</time>
      </trkpt>
      <trkpt lat="47.565033" lon="8.124341">
        <ele>340.429815</ele>
        <time>2021-11-22T00:05:58.962Z</time>
      </trkpt>
      <trkpt lat="47.565098" lon="8.124202">
        <ele>340.174381</ele>
        <time>2021-11-22T00:06:00.083Z</time>
      </trkpt>
      <trkpt lat="47.565268" lon="8.123888">
        <ele>339.566325</ele>
        <time>2021-11-22T00:06:02.862Z</time>
      </trkpt>
      <trkpt lat="47.565326" lon="8.123776">
        <ele>339.353083</ele>
        <time>2021-11-22T00:06:03.781Z</time>
      </trkpt>
      <trkpt lat="47.565434" lon="8.123568">
        <ele>338.956674</ele>
        <time>2021-11-22T00:06:05.684Z</time>
      </trkpt>
      <trkpt lat="47.565629" lon="8.123189">
        <ele>338.236807</ele>
        <time>2021-11-22T00:06:09.188Z</time>
      </trkpt>
      <trkpt lat="47.565954" lon="8.122541">
        <ele>337.082231</ele>
        <time>2021-11-22T00:06:15.528Z</time>
      </trkpt>
      <trkpt lat="47.566102" lon="8.122133">
        <ele>336.783060</ele>
        <time>2021-11-22T00:06:19.396Z</time>
      </trkpt>
      <trkpt lat="47.566119" lon="8.122027">
        <ele>336.712693</ele>
        <time>2021-11-22T00:06:20.241Z</time>
      </trkpt>
      <trkpt lat="47.566151" lon="8.121930">
        <ele>336.642959</ele>
        <time>2021-11-22T00:06:21.335Z</time>
      </trkpt>
      <trkpt lat="47.566318" lon="8.120964">
        <ele>335.998920</ele>
        <time>2021-11-22T00:06:29.539Z</time>
      </trkpt>
      <trkpt lat="47.566366" lon="8.120637">
        <ele>335.782789</ele>
        <time>2021-11-22T00:06:32.362Z</time>
      </trkpt>
      <trkpt lat="47.566398" lon="8.120421">
        <ele>335.639964</ele>
        <time>2021-11-22T00:06:34.472Z</time>
      </trkpt>
      <trkpt lat="47.566431" lon="8.120180">
        <ele>335.481143</ele>
        <time>2021-11-22T00:06:36.471Z</time>
      </trkpt>
      <trkpt lat="47.566474" lon="8.119870">
        <ele>335.230559</ele>
        <time>2021-11-22T00:06:39.332Z</time>
      </trkpt>
      <trkpt lat="47.566566" lon="8.119245">
        <ele>334.673244</ele>
        <time>2021-11-22T00:06:44.654Z</time>
      </trkpt>
      <trkpt lat="47.566580" lon="8.119152">
        <ele>334.590229</ele>
        <time>2021-11-22T00:06:45.325Z</time>
      </trkpt>
      <trkpt lat="47.566644" lon="8.118715">
        <ele>334.200645</ele>
        <time>2021-11-22T00:06:48.937Z</time>
      </trkpt>
      <trkpt lat="47.566733" lon="8.118099">
        <ele>333.651813</ele>
        <time>2021-11-22T00:06:53.601Z</time>
      </trkpt>
      <trkpt lat="47.566811" lon="8.117556">
        <ele>333.168145</ele>
        <time>2021-11-22T00:06:57.773Z</time>
      </trkpt>
      <trkpt lat="47.566944" lon="8.116530">
        <ele>332.657732</ele>
        <time>2021-11-22T00:07:06.816Z</time>
      </trkpt>
      <trkpt lat="47.566983" lon="8.116203">
        <ele>332.507990</ele>
        <time>2021-11-22T00:07:09.758Z</time>
      </trkpt>
      <trkpt lat="47.567009" lon="8.116010">
        <ele>332.419242</ele>
        <time>2021-11-22T00:07:12.433Z</time>
      </trkpt>
      <trkpt lat="47.567157" lon="8.115310">
        <ele>332.088453</ele>
        <time>2021-11-22T00:07:18.692Z</time>
      </trkpt>
      <trkpt lat="47.567411" lon="8.114753">
        <ele>331.714302</ele>
        <time>2021-11-22T00:07:24.354Z</time>
      </trkpt>
      <trkpt lat="47.567654" lon="8.114290">
        <ele>331.260726</ele>
        <time>2021-11-22T00:07:29.673Z</time>
      </trkpt>
      <trkpt lat="47.567881" lon="8.113862">
        <ele>330.839766</ele>
        <time>2021-11-22T00:07:34.673Z</time>
      </trkpt>
      <trkpt lat="47.568167" lon="8.113323">
        <ele>330.309542</ele>
        <time>2021-11-22T00:07:40.621Z</time>
      </trkpt>
      <trkpt lat="47.568835" lon="8.112063">
        <ele>327.670287</ele>
        <time>2021-11-22T00:07:51.957Z</time>
      </trkpt>
      <trkpt lat="47.569083" lon="8.111567">
        <ele>326.305109</ele>
        <time>2021-11-22T00:07:56.146Z</time>
      </trkpt>
      <trkpt lat="47.569107" lon="8.111522">
        <ele>326.178263</ele>
        <time>2021-11-22T00:07:56.473Z</time>
      </trkpt>
      <trkpt lat="47.569423" lon="8.110628">
        <ele>323.946466</ele>
        <time>2021-11-22T00:08:03.289Z</time>
      </trkpt>
      <trkpt lat="47.569495" lon="8.110499">
        <ele>323.779879</ele>
        <time>2021-11-22T00:08:04.286Z</time>
      </trkpt>
      <trkpt lat="47.569574" lon="8.110385">
        <ele>323.627566</ele>
        <time>2021-11-22T00:08:05.350Z</time>
      </trkpt>
      <trkpt lat="47.569664" lon="8.110262">
        <ele>323.458453</ele>
        <time>2021-11-22T00:08:07.699Z</time>
      </trkpt>
      <trkpt lat="47.569787" lon="8.110094">
        <ele>323.227394</ele>
        <time>2021-11-22T00:08:09.255Z</time>
      </trkpt>
      <trkpt lat="47.569974" lon="8.109825">
        <ele>322.867410</ele>
        <time>2021-11-22T00:08:12.146Z</time>
      </trkpt>
      <trkpt lat="47.570263" lon="8.109376">
        <ele>322.289045</ele>
        <time>2021-11-22T00:08:16.727Z</time>
      </trkpt>
      <trkpt lat="47.570283" lon="8.109343">
        <ele>322.247702</ele>
        <time>2021-11-22T00:08:17.026Z</time>
      </trkpt>
      <trkpt lat="47.570582" lon="8.108889">
        <ele>321.656393</ele>
        <time>2021-11-22T00:08:22.611Z</time>
      </trkpt>
      <trkpt lat="47.570830" lon="8.108502">
        <ele>321.931424</ele>
        <time>2021-11-22T00:08:32.937Z</time>
      </trkpt>
      <trkpt lat="47.571253" lon="8.107823">
        <ele>323.407751</ele>
        <time>2021-11-22T00:08:52.298Z</time>
      </trkpt>
      <trkpt lat="47.571440" lon="8.107260">
        <ele>324.410176</ele>
        <time>2021-11-22T00:09:05.137Z</time>
      </trkpt>
      <trkpt lat="47.571458" lon="8.107087">
        <ele>324.689795</ele>
        <time>2021-11-22T00:09:09.261Z</time>
      </trkpt>
      <trkpt lat="47.571460" lon="8.106995">
        <ele>324.836834</ele>
        <time>2021-11-22T00:09:10.893Z</time>
      </trkpt>
      <trkpt lat="47.571461" lon="8.106820">
        <ele>325.116391</ele>
        <time>2021-11-22T00:09:12.479Z</time>
      </trkpt>
      <trkpt lat="47.571440" lon="8.106588">
        <ele>325.490311</ele>
        <time>2021-11-22T00:09:15.307Z</time>
      </trkpt>
      <trkpt lat="47.571298" lon="8.105561">
        <ele>324.945025</ele>
        <time>2021-11-22T00:09:23.620Z</time>
      </trkpt>
      <trkpt lat="47.571251" lon="8.105188">
        <ele>324.631262</ele>
        <time>2021-11-22T00:09:26.526Z</time>
      </trkpt>
      <trkpt lat="47.571234" lon="8.105037">
        <ele>324.504674</ele>
        <time>2021-11-22T00:09:28.164Z</time>
      </trkpt>
      <trkpt lat="47.571214" lon="8.104836">
        <ele>324.336671</ele>
        <time>2021-11-22T00:09:29.810Z</time>
      </trkpt>
      <trkpt lat="47.571252" lon="8.104668">
        <ele>324.190154</ele>
        <time>2021-11-22T00:09:31.313Z</time>
      </trkpt>
      <trkpt lat="47.571285" lon="8.104547">
        <ele>324.082234</ele>
        <time>2021-11-22T00:09:32.235Z</time>
      </trkpt>
      <trkpt lat="47.571319" lon="8.104520">
        <ele>324.034959</ele>
        <time>2021-11-22T00:09:32.652Z</time>
      </trkpt>
      <trkpt lat="47.571345" lon="8.104476">
        <ele>323.986594</ele>
        <time>2021-11-22T00:09:33.040Z</time>
      </trkpt>
      <trkpt lat="47.571359" lon="8.104422">
        <ele>323.938759</ele>
        <time>2021-11-22T00:09:33.413Z</time>
      </trkpt>
      <trkpt lat="47.571359" lon="8.104365">
        <ele>323.891626</ele>
        <time>2021-11-22T00:09:33.849Z</time>
      </trkpt>
      <trkpt lat="47.571346" lon="8.104311">
        <ele>323.844216</ele>
        <time>2021-11-22T00:09:34.233Z</time>
      </trkpt>
      <trkpt lat="47.571354" lon="8.104222">
        <ele>323.769973</ele>
        <time>2021-11-22T00:09:35.263Z</time>
      </trkpt>
      <trkpt lat="47.571310" lon="8.104135">
        <ele>323.680065</ele>
        <time>2021-11-22T00:09:36.004Z</time>
      </trkpt>
      <trkpt lat="47.571041" lon="8.104109">
        <ele>323.550724</ele>
        <time>2021-11-22T00:09:38.876Z</time>
      </trkpt>
      <trkpt lat="47.570788" lon="8.103933">
        <ele>323.673254</ele>
        <time>2021-11-22T00:09:41.854Z</time>
      </trkpt>
      <trkpt lat="47.570667" lon="8.103884">
        <ele>323.728247</ele>
        <time>2021-11-22T00:09:43.557Z</time>
      </trkpt>
      <trkpt lat="47.570391" lon="8.103841">
        <ele>323.849918</ele>
        <time>2021-11-22T00:09:52.410Z</time>
      </trkpt>
      <trkpt lat="47.570159" lon="8.103813">
        <ele>323.951969</ele>
        <time>2021-11-22T00:09:56.499Z</time>
      </trkpt>
      <trkpt lat="47.569557" lon="8.103677">
        <ele>324.218947</ele>
        <time>2021-11-22T00:10:12.838Z</time>
      </trkpt>
      <trkpt lat="47.567683" lon="8.103272">
        <ele>328.988408</ele>
        <time>2021-11-22T00:11:01.104Z</time>
      </trkpt>
      <trkpt lat="47.566684" lon="8.102974">
        <ele>331.584525</ele>
        <time>2021-11-22T00:11:27.252Z</time>
      </trkpt>
      <trkpt lat="47.565727" lon="8.102512">
        <ele>334.025540</ele>
        <time>2021-11-22T00:11:52.524Z</time>
      </trkpt>
      <trkpt lat="47.564165" lon="8.101615">
        <ele>337.196646</ele>
        <time>2021-11-22T00:12:27.715Z</time>
      </trkpt>
      <trkpt lat="47.563202" lon="8.101042">
        <ele>340.287044</ele>
        <time>2021-11-22T00:12:54.078Z</time>
      </trkpt>
      <trkpt lat="47.563031" lon="8.100935">
        <ele>340.839826</ele>
        <time>2021-11-22T00:13:01.499Z</time>
      </trkpt>
      <trkpt lat="47.562207" lon="8.100413">
        <ele>343.298041</ele>
        <time>2021-11-22T00:13:31.571Z</time>
      </trkpt>
      <trkpt lat="47.562194" lon="8.100401">
        <ele>343.334836</ele>
        <time>2021-11-22T00:13:33.070Z</time>
      </trkpt>
      <trkpt lat="47.561466" lon="8.099697">
        <ele>345.423271</ele>
        <time>2021-11-22T00:14:02.880Z</time>
      </trkpt>
      <trkpt lat="47.560787" lon="8.098864">
        <ele>345.758518</ele>
        <time>2021-11-22T00:14:22.212Z</time>
      </trkpt>
      <trkpt lat="47.560171" lon="8.097877">
        <ele>343.084457</ele>
        <time>2021-11-22T00:14:35.619Z</time>
      </trkpt>
      <trkpt lat="47.559606" lon="8.096837">
        <ele>339.571937</ele>
        <time>2021-11-22T00:14:47.631Z</time>
      </trkpt>
      <trkpt lat="47.558983" lon="8.095482">
        <ele>333.544456</ele>
        <time>2021-11-22T00:15:02.159Z</time>
      </trkpt>
      <trkpt lat="47.558857" lon="8.095293">
        <ele>332.567786</ele>
        <time>2021-11-22T00:15:04.651Z</time>
      </trkpt>
      <trkpt lat="47.558776" lon="8.095210">
        <ele>332.031311</ele>
        <time>2021-11-22T00:15:05.900Z</time>
      </trkpt>
      <trkpt lat="47.558531" lon="8.094661">
        <ele>330.212383</ele>
        <time>2021-11-22T00:15:10.181Z</time>
      </trkpt>
      <trkpt lat="47.557677" lon="8.092776">
        <ele>324.254288</ele>
        <time>2021-11-22T00:15:25.606Z</time>
      </trkpt>
      <trkpt lat="47.556850" lon="8.091457">
        <ele>318.649607</ele>
        <time>2021-11-22T00:15:37.230Z</time>
      </trkpt>
      <trkpt lat="47.556692" lon="8.091113">
        <ele>317.354239</ele>
        <time>2021-11-22T00:15:39.834Z</time>
      </trkpt>
      <trkpt lat="47.556527" lon="8.090721">
        <ele>316.029353</ele>
        <time>2021-11-22T00:15:42.715Z</time>
      </trkpt>
      <trkpt lat="47.556259" lon="8.090058">
        <ele>314.137603</ele>
        <time>2021-11-22T00:15:47.627Z</time>
      </trkpt>
      <trkpt lat="47.556193" lon="8.089926">
        <ele>313.735473</ele>
        <time>2021-11-22T00:15:48.758Z</time>
      </trkpt>
      <trkpt lat="47.556110" lon="8.089809">
        <ele>313.319956</ele>
        <time>2021-11-22T00:15:49.836Z</time>
      </trkpt>
      <trkpt lat="47.556137" lon="8.089730">
        <ele>313.103194</ele>
        <time>2021-11-22T00:15:50.389Z</time>
      </trkpt>
      <trkpt lat="47.556151" lon="8.089459">
        <ele>312.437893</ele>
        <time>2021-11-22T00:15:52.232Z</time>
      </trkpt>
      <trkpt lat="47.556111" lon="8.089266">
        <ele>311.943687</ele>
        <time>2021-11-22T00:15:53.521Z</time>
      </trkpt>
      <trkpt lat="47.556065" lon="8.089084">
        <ele>311.467964</ele>
        <time>2021-11-22T00:15:54.831Z</time>
      </trkpt>
      <trkpt lat="47.555997" lon="8.088801">
        <ele>310.732630</ele>
        <time>2021-11-22T00:15:57.140Z</time>
      </trkpt>
      <trkpt lat="47.555991" lon="8.088778">
        <ele>310.672270</ele>
        <time>2021-11-22T00:15:57.378Z</time>
      </trkpt>
      <trkpt lat="47.555939" lon="8.088552">
        <ele>310.087791</ele>
        <time>2021-11-22T00:15:59.208Z</time>
      </trkpt>
      <trkpt lat="47.555887" lon="8.088299">
        <ele>310.181047</ele>
        <time>2021-11-22T00:16:01.719Z</time>
      </trkpt>
      <trkpt lat="47.555829" lon="8.087941">
        <ele>310.664473</ele>
        <time>2021-11-22T00:16:05.535Z</time>
      </trkpt>
      <trkpt lat="47.555809" lon="8.087783">
        <ele>310.875553</ele>
        <time>2021-11-22T00:16:07.147Z</time>
      </trkpt>
      <trkpt lat="47.555780" lon="8.087557">
        <ele>311.177618</ele>
        <time>2021-11-22T00:16:09.323Z</time>
      </trkpt>
      <trkpt lat="47.555737" lon="8.087083">
        <ele>311.805601</ele>
        <time>2021-11-22T00:16:16.951Z</time>
      </trkpt>
      <trkpt lat="47.555733" lon="8.086819">
        <ele>312.152334</ele>
        <time>2021-11-22T00:16:21.972Z</time>
      </trkpt>
      <trkpt lat="47.555764" lon="8.085769">
        <ele>313.691095</ele>
        <time>2021-11-22T00:16:43.808Z</time>
      </trkpt>
      <trkpt lat="47.555899" lon="8.084472">
        <ele>317.891869</ele>
        <time>2021-11-22T00:17:13.219Z</time>
      </trkpt>
      <trkpt lat="47.555956" lon="8.084115">
        <ele>319.066167</ele>
        <time>2021-11-22T00:17:21.974Z</time>
      </trkpt>
      <trkpt lat="47.556083" lon="8.083354">
        <ele>321.575487</ele>
        <time>2021-11-22T00:17:40.172Z</time>
      </trkpt>
      <trkpt lat="47.556470" lon="8.081563">
        <ele>327.770300</ele>
        <time>2021-11-22T00:18:26.901Z</time>
      </trkpt>
      <trkpt lat="47.556853" lon="8.080477">
        <ele>331.171059</ele>
        <time>2021-11-22T00:18:52.973Z</time>
      </trkpt>
      <trkpt lat="47.557099" lon="8.079786">
        <ele>332.192237</ele>
        <time>2021-11-22T00:19:07.298Z</time>
      </trkpt>
      <trkpt lat="47.557256" lon="8.079416">
        <ele>332.763519</ele>
        <time>2021-11-22T00:19:14.018Z</time>
      </trkpt>
      <trkpt lat="47.557793" lon="8.078299">
        <ele>334.016514</ele>
        <time>2021-11-22T00:19:30.319Z</time>
      </trkpt>
      <trkpt lat="47.558613" lon="8.076826">
        <ele>332.345479</ele>
        <time>2021-11-22T00:19:44.884Z</time>
      </trkpt>
      <trkpt lat="47.559046" lon="8.076086">
        <ele>331.412668</ele>
        <time>2021-11-22T00:19:52.263Z</time>
      </trkpt>
      <trkpt lat="47.559426" lon="8.075372">
        <ele>330.470748</ele>
        <time>2021-11-22T00:19:59.261Z</time>
      </trkpt>
      <trkpt lat="47.559811" lon="8.074398">
        <ele>329.301514</ele>
        <time>2021-11-22T00:20:08.155Z</time>
      </trkpt>
      <trkpt lat="47.560318" lon="8.072316">
        <ele>326.811030</ele>
        <time>2021-11-22T00:20:25.427Z</time>
      </trkpt>
      <trkpt lat="47.560524" lon="8.071179">
        <ele>325.244802</ele>
        <time>2021-11-22T00:20:33.992Z</time>
      </trkpt>
      <trkpt lat="47.560553" lon="8.071099">
        <ele>325.104723</ele>
        <time>2021-11-22T00:20:34.604Z</time>
      </trkpt>
      <trkpt lat="47.560584" lon="8.070919">
        <ele>324.818172</ele>
        <time>2021-11-22T00:20:35.914Z</time>
      </trkpt>
      <trkpt lat="47.560739" lon="8.070551">
        <ele>324.149030</ele>
        <time>2021-11-22T00:20:39.001Z</time>
      </trkpt>
      <trkpt lat="47.560864" lon="8.070015">
        <ele>323.274267</ele>
        <time>2021-11-22T00:20:43.023Z</time>
      </trkpt>
      <trkpt lat="47.560904" lon="8.069780">
        <ele>322.900426</ele>
        <time>2021-11-22T00:20:44.767Z</time>
      </trkpt>
      <trkpt lat="47.560998" lon="8.069237">
        <ele>322.035727</ele>
        <time>2021-11-22T00:20:48.847Z</time>
      </trkpt>
      <trkpt lat="47.561130" lon="8.068650">
        <ele>321.639980</ele>
        <time>2021-11-22T00:20:53.518Z</time>
      </trkpt>
      <trkpt lat="47.561187" lon="8.068256">
        <ele>321.391890</ele>
        <time>2021-11-22T00:20:56.792Z</time>
      </trkpt>
      <trkpt lat="47.561229" lon="8.067903">
        <ele>321.171202</ele>
        <time>2021-11-22T00:20:59.830Z</time>
      </trkpt>
      <trkpt lat="47.561265" lon="8.067435">
        <ele>320.881197</ele>
        <time>2021-11-22T00:21:03.812Z</time>
      </trkpt>
      <trkpt lat="47.561276" lon="8.067022">
        <ele>320.626723</ele>
        <time>2021-11-22T00:21:07.729Z</time>
      </trkpt>
      <trkpt lat="47.561253" lon="8.066385">
        <ele>320.353199</ele>
        <time>2021-11-22T00:21:14.244Z</time>
      </trkpt>
      <trkpt lat="47.561108" lon="8.065242">
        <ele>320.264607</ele>
        <time>2021-11-22T00:21:26.611Z</time>
      </trkpt>
      <trkpt lat="47.561017" lon="8.064820">
        <ele>320.230860</ele>
        <time>2021-11-22T00:21:31.251Z</time>
      </trkpt>
      <trkpt lat="47.560887" lon="8.064271">
        <ele>320.186540</ele>
        <time>2021-11-22T00:21:36.448Z</time>
      </trkpt>
      <trkpt lat="47.560806" lon="8.064037">
        <ele>320.163443</ele>
        <time>2021-11-22T00:21:38.717Z</time>
      </trkpt>
      <trkpt lat="47.560719" lon="8.063873">
        <ele>320.047901</ele>
        <time>2021-11-22T00:21:40.500Z</time>
      </trkpt>
      <trkpt lat="47.560392" lon="8.063300">
        <ele>319.632259</ele>
        <time>2021-11-22T00:21:46.798Z</time>
      </trkpt>
      <trkpt lat="47.560335" lon="8.063169">
        <ele>319.545926</ele>
        <time>2021-11-22T00:21:48.144Z</time>
      </trkpt>
      <trkpt lat="47.560443" lon="8.063042">
        <ele>319.432763</ele>
        <time>2021-11-22T00:21:49.813Z</time>
      </trkpt>
      <trkpt lat="47.560545" lon="8.062928">
        <ele>319.327903</ele>
        <time>2021-11-22T00:21:51.380Z</time>
      </trkpt>
      <trkpt lat="47.560580" lon="8.062890">
        <ele>319.292290</ele>
        <time>2021-11-22T00:21:51.915Z</time>
      </trkpt>
      <trkpt lat="47.560673" lon="8.062786">
        <ele>319.196662</ele>
        <time>2021-11-22T00:21:53.987Z</time>
      </trkpt>
      <trkpt lat="47.560765" lon="8.062729">
        <ele>319.114817</ele>
        <time>2021-11-22T00:21:55.738Z</time>
      </trkpt>
      <trkpt lat="47.560570" lon="8.061926">
        <ele>318.655966</ele>
        <time>2021-11-22T00:22:03.094Z</time>
      </trkpt>
      <trkpt lat="47.560335" lon="8.060984">
        <ele>318.258094</ele>
        <time>2021-11-22T00:22:11.424Z</time>
      </trkpt>
      <trkpt lat="47.560293" lon="8.060828">
        <ele>318.191555</ele>
        <time>2021-11-22T00:22:12.854Z</time>
      </trkpt>
      <trkpt lat="47.560262" lon="8.060729">
        <ele>318.148318</ele>
        <time>2021-11-22T00:22:13.809Z</time>
      </trkpt>
      <trkpt lat="47.560130" lon="8.060196">
        <ele>317.923390</ele>
        <time>2021-11-22T00:22:19.008Z</time>
      </trkpt>
      <trkpt lat="47.560069" lon="8.059943">
        <ele>317.816954</ele>
        <time>2021-11-22T00:22:21.420Z</time>
      </trkpt>
      <trkpt lat="47.560040" lon="8.059827">
        <ele>317.767947</ele>
        <time>2021-11-22T00:22:22.637Z</time>
      </trkpt>
      <trkpt lat="47.560019" lon="8.059741">
        <ele>317.731714</ele>
        <time>2021-11-22T00:22:23.528Z</time>
      </trkpt>
      <trkpt lat="47.559979" lon="8.059591">
        <ele>317.667817</ele>
        <time>2021-11-22T00:22:24.989Z</time>
      </trkpt>
      <trkpt lat="47.559859" lon="8.059093">
        <ele>317.556804</ele>
        <time>2021-11-22T00:22:30.011Z</time>
      </trkpt>
      <trkpt lat="47.559725" lon="8.058554">
        <ele>317.456250</ele>
        <time>2021-11-22T00:22:35.421Z</time>
      </trkpt>
      <trkpt lat="47.559654" lon="8.058257">
        <ele>317.401093</ele>
        <time>2021-11-22T00:22:38.373Z</time>
      </trkpt>
      <trkpt lat="47.559579" lon="8.057955">
        <ele>317.344760</ele>
        <time>2021-11-22T00:22:41.277Z</time>
      </trkpt>
      <trkpt lat="47.559548" lon="8.057827">
        <ele>317.320954</ele>
        <time>2021-11-22T00:22:42.572Z</time>
      </trkpt>
      <trkpt lat="47.559447" lon="8.057490">
        <ele>317.256404</ele>
        <time>2021-11-22T00:22:46.001Z</time>
      </trkpt>
      <trkpt lat="47.559294" lon="8.057130">
        <ele>317.181927</ele>
        <time>2021-11-22T00:22:50.139Z</time>
      </trkpt>
      <trkpt lat="47.559116" lon="8.056760">
        <ele>317.145533</ele>
        <time>2021-11-22T00:22:54.577Z</time>
      </trkpt>
      <trkpt lat="47.558662" lon="8.056061">
        <ele>317.087069</ele>
        <time>2021-11-22T00:23:03.915Z</time>
      </trkpt>
      <trkpt lat="47.558447" lon="8.055831">
        <ele>317.063389</ele>
        <time>2021-11-22T00:23:07.446Z</time>
      </trkpt>
      <trkpt lat="47.558239" lon="8.055639">
        <ele>317.041505</ele>
        <time>2021-11-22T00:23:11.128Z</time>
      </trkpt>
      <trkpt lat="47.558012" lon="8.055477">
        <ele>317.019006</ele>
        <time>2021-11-22T00:23:14.772Z</time>
      </trkpt>
      <trkpt lat="47.557918" lon="8.055409">
        <ele>317.009665</ele>
        <time>2021-11-22T00:23:16.570Z</time>
      </trkpt>
      <trkpt lat="47.557710" lon="8.055283">
        <ele>317.000803</ele>
        <time>2021-11-22T00:23:19.936Z</time>
      </trkpt>
      <trkpt lat="47.557500" lon="8.055133">
        <ele>316.992967</ele>
        <time>2021-11-22T00:23:23.760Z</time>
      </trkpt>
      <trkpt lat="47.557273" lon="8.054941">
        <ele>316.984181</ele>
        <time>2021-11-22T00:23:28.000Z</time>
      </trkpt>
      <trkpt lat="47.557097" lon="8.054768">
        <ele>316.977081</ele>
        <time>2021-11-22T00:23:30.965Z</time>
      </trkpt>
      <trkpt lat="47.557019" lon="8.054678">
        <ele>316.973758</ele>
        <time>2021-11-22T00:23:32.770Z</time>
      </trkpt>
      <trkpt lat="47.556494" lon="8.054073">
        <ele>316.951402</ele>
        <time>2021-11-22T00:23:41.621Z</time>
      </trkpt>
      <trkpt lat="47.556239" lon="8.053780">
        <ele>316.993893</ele>
        <time>2021-11-22T00:23:46.028Z</time>
      </trkpt>
      <trkpt lat="47.556032" lon="8.053510">
        <ele>317.060099</ele>
        <time>2021-11-22T00:23:50.251Z</time>
      </trkpt>
      <trkpt lat="47.555890" lon="8.053286">
        <ele>317.109891</ele>
        <time>2021-11-22T00:23:53.888Z</time>
      </trkpt>
      <trkpt lat="47.555773" lon="8.053070">
        <ele>317.154765</ele>
        <time>2021-11-22T00:23:56.830Z</time>
      </trkpt>
      <trkpt lat="47.555603" lon="8.052757">
        <ele>317.219860</ele>
        <time>2021-11-22T00:24:01.051Z</time>
      </trkpt>
      <trkpt lat="47.555259" lon="8.052135">
        <ele>317.350152</ele>
        <time>2021-11-22T00:24:09.749Z</time>
      </trkpt>
      <trkpt lat="47.554988" lon="8.051475">
        <ele>317.973701</ele>
        <time>2021-11-22T00:24:18.739Z</time>
      </trkpt>
      <trkpt lat="47.554715" lon="8.050527">
        <ele>319.003948</ele>
        <time>2021-11-22T00:24:33.529Z</time>
      </trkpt>
      <trkpt lat="47.554412" lon="8.049127">
        <ele>320.542655</ele>
        <time>2021-11-22T00:24:56.090Z</time>
      </trkpt>
      <trkpt lat="47.554309" lon="8.048719">
        <ele>321.047953</ele>
        <time>2021-11-22T00:25:03.107Z</time>
      </trkpt>
      <trkpt lat="47.553996" lon="8.047557">
        <ele>322.499245</ele>
        <time>2021-11-22T00:25:22.337Z</time>
      </trkpt>
      <trkpt lat="47.553619" lon="8.046372">
        <ele>322.997393</ele>
        <time>2021-11-22T00:25:38.774Z</time>
      </trkpt>
      <trkpt lat="47.552844" lon="8.044355">
        <ele>322.103204</ele>
        <time>2021-11-22T00:25:58.704Z</time>
      </trkpt>
      <trkpt lat="47.551627" lon="8.041127">
        <ele>317.202729</ele>
        <time>2021-11-22T00:26:25.457Z</time>
      </trkpt>
      <trkpt lat="47.551167" lon="8.039905">
        <ele>315.545834</ele>
        <time>2021-11-22T00:26:36.087Z</time>
      </trkpt>
      <trkpt lat="47.551001" lon="8.039426">
        <ele>315.433262</ele>
        <time>2021-11-22T00:26:40.443Z</time>
      </trkpt>
      <trkpt lat="47.550515" lon="8.038174">
        <ele>315.131306</ele>
        <time>2021-11-22T00:26:54.146Z</time>
      </trkpt>
      <trkpt lat="47.550424" lon="8.037956">
        <ele>315.077717</ele>
        <time>2021-11-22T00:26:57.116Z</time>
      </trkpt>
      <trkpt lat="47.550111" lon="8.037123">
        <ele>315.431651</ele>
        <time>2021-11-22T00:27:09.483Z</time>
      </trkpt>
      <trkpt lat="47.549832" lon="8.036349">
        <ele>315.929241</ele>
        <time>2021-11-22T00:27:20.766Z</time>
      </trkpt>
      <trkpt lat="47.549753" lon="8.036077">
        <ele>316.097161</ele>
        <time>2021-11-22T00:27:24.538Z</time>
      </trkpt>
      <trkpt lat="47.549699" lon="8.035900">
        <ele>316.207312</ele>
        <time>2021-11-22T00:27:26.871Z</time>
      </trkpt>
      <trkpt lat="47.549632" lon="8.035633">
        <ele>316.368848</ele>
        <time>2021-11-22T00:27:30.189Z</time>
      </trkpt>
      <trkpt lat="47.549554" lon="8.035288">
        <ele>316.547257</ele>
        <time>2021-11-22T00:27:34.480Z</time>
      </trkpt>
      <trkpt lat="47.549494" lon="8.034935">
        <ele>316.596094</ele>
        <time>2021-11-22T00:27:38.939Z</time>
      </trkpt>
      <trkpt lat="47.549442" lon="8.034584">
        <ele>316.644304</ele>
        <time>2021-11-22T00:27:42.342Z</time>
      </trkpt>
      <trkpt lat="47.549395" lon="8.034029">
        <ele>316.719346</ele>
        <time>2021-11-22T00:27:48.404Z</time>
      </trkpt>
      <trkpt lat="47.549394" lon="8.034003">
        <ele>316.722840</ele>
        <time>2021-11-22T00:27:49.880Z</time>
      </trkpt>
      <trkpt lat="47.549386" lon="8.033799">
        <ele>316.750254</ele>
        <time>2021-11-22T00:27:51.412Z</time>
      </trkpt>
      <trkpt lat="47.549374" lon="8.033423">
        <ele>316.800754</ele>
        <time>2021-11-22T00:27:55.927Z</time>
      </trkpt>
      <trkpt lat="47.549363" lon="8.032869">
        <ele>316.875111</ele>
        <time>2021-11-22T00:28:01.088Z</time>
      </trkpt>
      <trkpt lat="47.549368" lon="8.032544">
        <ele>316.905675</ele>
        <time>2021-11-22T00:28:03.685Z</time>
      </trkpt>
      <trkpt lat="47.549372" lon="8.031883">
        <ele>316.943171</ele>
        <time>2021-11-22T00:28:10.704Z</time>
      </trkpt>
      <trkpt lat="47.549378" lon="8.030790">
        <ele>317.005171</ele>
        <time>2021-11-22T00:28:21.364Z</time>
      </trkpt>
      <trkpt lat="47.549380" lon="8.030702">
        <ele>317.010166</ele>
        <time>2021-11-22T00:28:22.204Z</time>
      </trkpt>
      <trkpt lat="47.549418" lon="8.028906">
        <ele>317.465978</ele>
        <time>2021-11-22T00:28:42.911Z</time>
      </trkpt>
      <trkpt lat="47.549431" lon="8.028306">
        <ele>317.685947</ele>
        <time>2021-11-22T00:28:49.656Z</time>
      </trkpt>
      <trkpt lat="47.549445" lon="8.027599">
        <ele>317.945122</ele>
        <time>2021-11-22T00:28:57.833Z</time>
      </trkpt>
      <trkpt lat="47.549454" lon="8.027138">
        <ele>318.105010</ele>
        <time>2021-11-22T00:29:03.359Z</time>
      </trkpt>
      <trkpt lat="47.549436" lon="8.026046">
        <ele>318.464937</ele>
        <time>2021-11-22T00:29:16.643Z</time>
      </trkpt>
      <trkpt lat="47.549322" lon="8.024323">
        <ele>318.844851</ele>
        <time>2021-11-22T00:29:35.247Z</time>
      </trkpt>
      <trkpt lat="47.549268" lon="8.023385">
        <ele>318.712548</ele>
        <time>2021-11-22T00:29:44.694Z</time>
      </trkpt>
      <trkpt lat="47.549201" lon="8.022146">
        <ele>318.537864</ele>
        <time>2021-11-22T00:29:55.911Z</time>
      </trkpt>
      <trkpt lat="47.549191" lon="8.021436">
        <ele>318.043443</ele>
        <time>2021-11-22T00:30:01.878Z</time>
      </trkpt>
      <trkpt lat="47.549186" lon="8.021006">
        <ele>317.715775</ele>
        <time>2021-11-22T00:30:05.463Z</time>
      </trkpt>
      <trkpt lat="47.549208" lon="8.019997">
        <ele>316.946613</ele>
        <time>2021-11-22T00:30:13.696Z</time>
      </trkpt>
      <trkpt lat="47.549261" lon="8.017878">
        <ele>314.961422</ele>
        <time>2021-11-22T00:30:29.818Z</time>
      </trkpt>
      <trkpt lat="47.549256" lon="8.017769">
        <ele>314.851796</ele>
        <time>2021-11-22T00:30:30.682Z</time>
      </trkpt>
      <trkpt lat="47.549291" lon="8.017761">
        <ele>314.799147</ele>
        <time>2021-11-22T00:30:31.079Z</time>
      </trkpt>
      <trkpt lat="47.549324" lon="8.017738">
        <ele>314.744930</ele>
        <time>2021-11-22T00:30:31.469Z</time>
      </trkpt>
      <trkpt lat="47.549351" lon="8.017702">
        <ele>314.690929</ele>
        <time>2021-11-22T00:30:31.871Z</time>
      </trkpt>
      <trkpt lat="47.549370" lon="8.017656">
        <ele>314.636814</ele>
        <time>2021-11-22T00:30:32.330Z</time>
      </trkpt>
      <trkpt lat="47.549379" lon="8.017603">
        <ele>314.581975</ele>
        <time>2021-11-22T00:30:32.736Z</time>
      </trkpt>
      <trkpt lat="47.549377" lon="8.017547">
        <ele>314.525704</ele>
        <time>2021-11-22T00:30:33.294Z</time>
      </trkpt>
      <trkpt lat="47.549310" lon="8.017418">
        <ele>314.362374</ele>
        <time>2021-11-22T00:30:34.640Z</time>
      </trkpt>
      <trkpt lat="47.549274" lon="8.017401">
        <ele>314.306202</ele>
        <time>2021-11-22T00:30:35.122Z</time>
      </trkpt>
      <trkpt lat="47.549281" lon="8.017304">
        <ele>314.208314</ele>
        <time>2021-11-22T00:30:35.837Z</time>
      </trkpt>
      <trkpt lat="47.549431" lon="8.015998">
        <ele>313.042978</ele>
        <time>2021-11-22T00:30:46.582Z</time>
      </trkpt>
      <trkpt lat="47.549589" lon="8.015316">
        <ele>312.445133</ele>
        <time>2021-11-22T00:30:52.426Z</time>
      </trkpt>
      <trkpt lat="47.549795" lon="8.014667">
        <ele>311.850501</ele>
        <time>2021-11-22T00:30:58.241Z</time>
      </trkpt>
      <trkpt lat="47.549871" lon="8.014427">
        <ele>311.630700</ele>
        <time>2021-11-22T00:31:00.377Z</time>
      </trkpt>
      <trkpt lat="47.550001" lon="8.014034">
        <ele>311.223281</ele>
        <time>2021-11-22T00:31:03.765Z</time>
      </trkpt>
      <trkpt lat="47.550565" lon="8.012461">
        <ele>309.556175</ele>
        <time>2021-11-22T00:31:17.372Z</time>
      </trkpt>
      <trkpt lat="47.550764" lon="8.011985">
        <ele>309.125342</ele>
        <time>2021-11-22T00:31:21.872Z</time>
      </trkpt>
      <trkpt lat="47.551187" lon="8.011080">
        <ele>309.196756</ele>
        <time>2021-11-22T00:31:31.990Z</time>
      </trkpt>
      <trkpt lat="47.551275" lon="8.010934">
        <ele>309.209454</ele>
        <time>2021-11-22T00:31:33.800Z</time>
      </trkpt>
      <trkpt lat="47.551902" lon="8.009884">
        <ele>309.372890</ele>
        <time>2021-11-22T00:31:50.754Z</time>
      </trkpt>
      <trkpt lat="47.552604" lon="8.008677">
        <ele>310.387439</ele>
        <time>2021-11-22T00:32:13.234Z</time>
      </trkpt>
      <trkpt lat="47.552640" lon="8.008615">
        <ele>310.439517</ele>
        <time>2021-11-22T00:32:14.820Z</time>
      </trkpt>
      <trkpt lat="47.552935" lon="8.007851">
        <ele>310.980629</ele>
        <time>2021-11-22T00:32:24.418Z</time>
      </trkpt>
      <trkpt lat="47.553173" lon="8.006642">
        <ele>310.356299</ele>
        <time>2021-11-22T00:32:35.221Z</time>
      </trkpt>
      <trkpt lat="47.553211" lon="8.006270">
        <ele>310.169782</ele>
        <time>2021-11-22T00:32:38.435Z</time>
      </trkpt>
      <trkpt lat="47.553220" lon="8.006182">
        <ele>310.125659</ele>
        <time>2021-11-22T00:32:39.026Z</time>
      </trkpt>
      <trkpt lat="47.553251" lon="8.005657">
        <ele>309.864400</ele>
        <time>2021-11-22T00:32:43.274Z</time>
      </trkpt>
      <trkpt lat="47.553256" lon="8.004837">
        <ele>309.676423</ele>
        <time>2021-11-22T00:32:50.198Z</time>
      </trkpt>
      <trkpt lat="47.553266" lon="8.003502">
        <ele>309.703189</ele>
        <time>2021-11-22T00:33:02.785Z</time>
      </trkpt>
      <trkpt lat="47.553270" lon="8.002465">
        <ele>309.790433</ele>
        <time>2021-11-22T00:33:15.457Z</time>
      </trkpt>
      <trkpt lat="47.553271" lon="8.002109">
        <ele>309.978466</ele>
        <time>2021-11-22T00:33:20.435Z</time>
      </trkpt>
      <trkpt lat="47.553273" lon="8.001687">
        <ele>310.201364</ele>
        <time>2021-11-22T00:33:26.115Z</time>
      </trkpt>
      <trkpt lat="47.553275" lon="7.999860">
        <ele>311.090694</ele>
        <time>2021-11-22T00:33:48.301Z</time>
      </trkpt>
      <trkpt lat="47.553278" lon="7.999508">
        <ele>310.900253</ele>
        <time>2021-11-22T00:33:51.848Z</time>
      </trkpt>
      <trkpt lat="47.553287" lon="7.998380">
        <ele>310.289983</ele>
        <time>2021-11-22T00:34:01.615Z</time>
      </trkpt>
      <trkpt lat="47.553287" lon="7.997190">
        <ele>309.577713</ele>
        <time>2021-11-22T00:34:10.914Z</time>
      </trkpt>
      <trkpt lat="47.553279" lon="7.996528">
        <ele>308.621447</ele>
        <time>2021-11-22T00:34:15.930Z</time>
      </trkpt>
      <trkpt lat="47.553268" lon="7.996252">
        <ele>308.222131</ele>
        <time>2021-11-22T00:34:18.002Z</time>
      </trkpt>
      <trkpt lat="47.553246" lon="7.995617">
        <ele>307.303806</ele>
        <time>2021-11-22T00:34:22.184Z</time>
      </trkpt>
      <trkpt lat="47.553164" lon="7.993925">
        <ele>305.540444</ele>
        <time>2021-11-22T00:34:35.703Z</time>
      </trkpt>
      <trkpt lat="47.553156" lon="7.993696">
        <ele>305.440274</ele>
        <time>2021-11-22T00:34:37.105Z</time>
      </trkpt>
      <trkpt lat="47.553137" lon="7.993190">
        <ele>305.218892</ele>
        <time>2021-11-22T00:34:41.717Z</time>
      </trkpt>
      <trkpt lat="47.553130" lon="7.993014">
        <ele>305.141875</ele>
        <time>2021-11-22T00:34:45.902Z</time>
      </trkpt>
      <trkpt lat="47.553107" lon="7.992226">
        <ele>304.797325</ele>
        <time>2021-11-22T00:34:52.617Z</time>
      </trkpt>
      <trkpt lat="47.553091" lon="7.991915">
        <ele>304.646638</ele>
        <time>2021-11-22T00:34:56.849Z</time>
      </trkpt>
      <trkpt lat="47.553050" lon="7.990744">
        <ele>303.562272</ele>
        <time>2021-11-22T00:35:09.672Z</time>
      </trkpt>
      <trkpt lat="47.553126" lon="7.990240">
        <ele>303.084694</ele>
        <time>2021-11-22T00:35:13.584Z</time>
      </trkpt>
      <trkpt lat="47.553146" lon="7.990113">
        <ele>302.964093</ele>
        <time>2021-11-22T00:35:14.513Z</time>
      </trkpt>
      <trkpt lat="47.553163" lon="7.990004">
        <ele>302.860636</ele>
        <time>2021-11-22T00:35:15.298Z</time>
      </trkpt>
      <trkpt lat="47.553214" lon="7.989758">
        <ele>302.622651</ele>
        <time>2021-11-22T00:35:17.077Z</time>
      </trkpt>
      <trkpt lat="47.553253" lon="7.989578">
        <ele>302.447825</ele>
        <time>2021-11-22T00:35:18.366Z</time>
      </trkpt>
      <trkpt lat="47.553352" lon="7.989142">
        <ele>301.694491</ele>
        <time>2021-11-22T00:35:21.462Z</time>
      </trkpt>
      <trkpt lat="47.553424" lon="7.988762">
        <ele>300.689554</ele>
        <time>2021-11-22T00:35:24.108Z</time>
      </trkpt>
      <trkpt lat="47.553410" lon="7.988607">
        <ele>300.291385</ele>
        <time>2021-11-22T00:35:25.139Z</time>
      </trkpt>
      <trkpt lat="47.553343" lon="7.988401">
        <ele>299.709153</ele>
        <time>2021-11-22T00:35:26.661Z</time>
      </trkpt>
      <trkpt lat="47.553232" lon="7.988247">
        <ele>299.135477</ele>
        <time>2021-11-22T00:35:28.133Z</time>
      </trkpt>
      <trkpt lat="47.552867" lon="7.987810">
        <ele>297.365123</ele>
        <time>2021-11-22T00:35:32.701Z</time>
      </trkpt>
      <trkpt lat="47.552713" lon="7.987638">
        <ele>296.637574</ele>
        <time>2021-11-22T00:35:34.539Z</time>
      </trkpt>
      <trkpt lat="47.552504" lon="7.987369">
        <ele>295.593158</ele>
        <time>2021-11-22T00:35:37.249Z</time>
      </trkpt>
      <trkpt lat="47.552436" lon="7.987273">
        <ele>295.367408</ele>
        <time>2021-11-22T00:35:38.193Z</time>
      </trkpt>
      <trkpt lat="47.552224" lon="7.986975">
        <ele>295.030897</ele>
        <time>2021-11-22T00:35:41.177Z</time>
      </trkpt>
      <trkpt lat="47.552152" lon="7.986883">
        <ele>294.921412</ele>
        <time>2021-11-22T00:35:42.158Z</time>
      </trkpt>
      <trkpt lat="47.551971" lon="7.986555">
        <ele>294.592127</ele>
        <time>2021-11-22T00:35:45.156Z</time>
      </trkpt>
      <trkpt lat="47.551917" lon="7.986288">
        <ele>294.375496</ele>
        <time>2021-11-22T00:35:47.237Z</time>
      </trkpt>
      <trkpt lat="47.551915" lon="7.986209">
        <ele>294.314054</ele>
        <time>2021-11-22T00:35:47.797Z</time>
      </trkpt>
      <trkpt lat="47.551898" lon="7.985654">
        <ele>293.882261</ele>
        <time>2021-11-22T00:35:53.304Z</time>
      </trkpt>
      <trkpt lat="47.551939" lon="7.985151">
        <ele>293.488486</ele>
        <time>2021-11-22T00:35:59.460Z</time>
      </trkpt>
      <trkpt lat="47.551934" lon="7.984260">
        <ele>294.550153</ele>
        <time>2021-11-22T00:36:13.042Z</time>
      </trkpt>
      <trkpt lat="47.551993" lon="7.984014">
        <ele>294.986601</ele>
        <time>2021-11-22T00:36:16.647Z</time>
      </trkpt>
      <trkpt lat="47.552007" lon="7.983931">
        <ele>295.129625</ele>
        <time>2021-11-22T00:36:18.221Z</time>
      </trkpt>
      <trkpt lat="47.552005" lon="7.983849">
        <ele>295.266799</ele>
        <time>2021-11-22T00:36:20.303Z</time>
      </trkpt>
      <trkpt lat="47.551911" lon="7.983632">
        <ele>295.697863</ele>
        <time>2021-11-22T00:36:24.496Z</time>
      </trkpt>
      <trkpt lat="47.551892" lon="7.983447">
        <ele>296.010700</ele>
        <time>2021-11-22T00:36:27.840Z</time>
      </trkpt>
      <trkpt lat="47.551861" lon="7.981113">
        <ele>299.228942</ele>
        <time>2021-11-22T00:37:11.130Z</time>
      </trkpt>
      <trkpt lat="47.551865" lon="7.980584">
        <ele>299.825870</ele>
        <time>2021-11-22T00:37:17.770Z</time>
      </trkpt>
      <trkpt lat="47.551873" lon="7.980135">
        <ele>300.332671</ele>
        <time>2021-11-22T00:37:22.527Z</time>
      </trkpt>
      <trkpt lat="47.551933" lon="7.979363">
        <ele>300.692944</ele>
        <time>2021-11-22T00:37:30.885Z</time>
      </trkpt>
      <trkpt lat="47.551923" lon="7.979308">
        <ele>300.673091</ele>
        <time>2021-11-22T00:37:31.253Z</time>
      </trkpt>
      <trkpt lat="47.551901" lon="7.979190">
        <ele>300.630424</ele>
        <time>2021-11-22T00:37:32.224Z</time>
      </trkpt>
      <trkpt lat="47.551829" lon="7.976305">
        <ele>299.914961</ele>
        <time>2021-11-22T00:37:57.273Z</time>
      </trkpt>
      <trkpt lat="47.551793" lon="7.974325">
        <ele>299.980012</ele>
        <time>2021-11-22T00:38:19.386Z</time>
      </trkpt>
      <trkpt lat="47.551755" lon="7.972603">
        <ele>299.755936</ele>
        <time>2021-11-22T00:38:36.684Z</time>
      </trkpt>
      <trkpt lat="47.551725" lon="7.970823">
        <ele>299.352299</ele>
        <time>2021-11-22T00:38:51.913Z</time>
      </trkpt>
      <trkpt lat="47.551734" lon="7.970034">
        <ele>299.099708</ele>
        <time>2021-11-22T00:38:58.873Z</time>
      </trkpt>
      <trkpt lat="47.551750" lon="7.968659">
        <ele>298.843493</ele>
        <time>2021-11-22T00:39:12.063Z</time>
      </trkpt>
      <trkpt lat="47.551825" lon="7.968445">
        <ele>298.875903</ele>
        <time>2021-11-22T00:39:14.315Z</time>
      </trkpt>
      <trkpt lat="47.551847" lon="7.968315">
        <ele>298.893917</ele>
        <time>2021-11-22T00:39:15.786Z</time>
      </trkpt>
      <trkpt lat="47.551839" lon="7.968208">
        <ele>298.908387</ele>
        <time>2021-11-22T00:39:16.988Z</time>
      </trkpt>
      <trkpt lat="47.551767" lon="7.967910">
        <ele>298.950930</ele>
        <time>2021-11-22T00:39:20.221Z</time>
      </trkpt>
      <trkpt lat="47.551902" lon="7.964650">
        <ele>299.480943</ele>
        <time>2021-11-22T00:39:56.622Z</time>
      </trkpt>
      <trkpt lat="47.551918" lon="7.963725">
        <ele>299.622543</ele>
        <time>2021-11-22T00:40:06.020Z</time>
      </trkpt>
      <trkpt lat="47.551906" lon="7.962453">
        <ele>299.287476</ele>
        <time>2021-11-22T00:40:17.950Z</time>
      </trkpt>
      <trkpt lat="47.551859" lon="7.961133">
        <ele>298.939315</ele>
        <time>2021-11-22T00:40:29.534Z</time>
      </trkpt>
      <trkpt lat="47.551894" lon="7.960729">
        <ele>298.847235</ele>
        <time>2021-11-22T00:40:33.285Z</time>
      </trkpt>
      <trkpt lat="47.551882" lon="7.960631">
        <ele>298.824768</ele>
        <time>2021-11-22T00:40:34.054Z</time>
      </trkpt>
      <trkpt lat="47.551865" lon="7.960528">
        <ele>298.800850</ele>
        <time>2021-11-22T00:40:35.001Z</time>
      </trkpt>
      <trkpt lat="47.551677" lon="7.960100">
        <ele>298.685660</ele>
        <time>2021-11-22T00:40:39.524Z</time>
      </trkpt>
      <trkpt lat="47.551300" lon="7.958844">
        <ele>298.375589</ele>
        <time>2021-11-22T00:40:52.503Z</time>
      </trkpt>
      <trkpt lat="47.550869" lon="7.957700">
        <ele>298.366787</ele>
        <time>2021-11-22T00:41:05.780Z</time>
      </trkpt>
      <trkpt lat="47.550745" lon="7.957569">
        <ele>298.372739</ele>
        <time>2021-11-22T00:41:08.134Z</time>
      </trkpt>
      <trkpt lat="47.550735" lon="7.957541">
        <ele>298.373575</ele>
        <time>2021-11-22T00:41:08.562Z</time>
      </trkpt>
      <trkpt lat="47.550613" lon="7.957254">
        <ele>298.382522</ele>
        <time>2021-11-22T00:41:11.811Z</time>
      </trkpt>
      <trkpt lat="47.550549" lon="7.957126">
        <ele>298.386724</ele>
        <time>2021-11-22T00:41:13.358Z</time>
      </trkpt>
      <trkpt lat="47.550549" lon="7.957126">
        <ele>298.386724</ele>
        <time>2021-11-22T00:41:13.417Z</time>
      </trkpt>
      <trkpt lat="47.550445" lon="7.956918">
        <ele>298.393552</ele>
        <time>2021-11-22T00:41:15.967Z</time>
      </trkpt>
      <trkpt lat="47.550380" lon="7.956806">
        <ele>298.397448</ele>
        <time>2021-11-22T00:41:17.451Z</time>
      </trkpt>
      <trkpt lat="47.550205" lon="7.956552">
        <ele>298.407022</ele>
        <time>2021-11-22T00:41:21.171Z</time>
      </trkpt>
      <trkpt lat="47.549444" lon="7.955496">
        <ele>298.541760</ele>
        <time>2021-11-22T00:41:37.562Z</time>
      </trkpt>
      <trkpt lat="47.549157" lon="7.955099">
        <ele>298.592534</ele>
        <time>2021-11-22T00:41:43.329Z</time>
      </trkpt>
      <trkpt lat="47.549042" lon="7.954942">
        <ele>298.612756</ele>
        <time>2021-11-22T00:41:45.681Z</time>
      </trkpt>
      <trkpt lat="47.548833" lon="7.954652">
        <ele>298.661857</ele>
        <time>2021-11-22T00:41:50.037Z</time>
      </trkpt>
      <trkpt lat="47.548542" lon="7.954269">
        <ele>298.772162</ele>
        <time>2021-11-22T00:41:56.055Z</time>
      </trkpt>
      <trkpt lat="47.548342" lon="7.954009">
        <ele>298.847564</ele>
        <time>2021-11-22T00:42:00.237Z</time>
      </trkpt>
      <trkpt lat="47.548251" lon="7.953895">
        <ele>298.881335</ele>
        <time>2021-11-22T00:42:02.165Z</time>
      </trkpt>
      <trkpt lat="47.548115" lon="7.953729">
        <ele>298.931270</ele>
        <time>2021-11-22T00:42:05.034Z</time>
      </trkpt>
      <trkpt lat="47.547994" lon="7.953584">
        <ele>298.975373</ele>
        <time>2021-11-22T00:42:07.596Z</time>
      </trkpt>
      <trkpt lat="47.547871" lon="7.953437">
        <ele>299.020156</ele>
        <time>2021-11-22T00:42:10.187Z</time>
      </trkpt>
      <trkpt lat="47.547797" lon="7.953355">
        <ele>299.046343</ele>
        <time>2021-11-22T00:42:11.690Z</time>
      </trkpt>
      <trkpt lat="47.547624" lon="7.953160">
        <ele>299.107945</ele>
        <time>2021-11-22T00:42:15.183Z</time>
      </trkpt>
      <trkpt lat="47.547550" lon="7.953078">
        <ele>299.134132</ele>
        <time>2021-11-22T00:42:16.708Z</time>
      </trkpt>
      <trkpt lat="47.547458" lon="7.952975">
        <ele>299.172334</ele>
        <time>2021-11-22T00:42:18.721Z</time>
      </trkpt>
      <trkpt lat="47.547400" lon="7.952910">
        <ele>299.199466</ele>
        <time>2021-11-22T00:42:20.003Z</time>
      </trkpt>
      <trkpt lat="47.547090" lon="7.952543">
        <ele>299.347512</ele>
        <time>2021-11-22T00:42:26.451Z</time>
      </trkpt>
      <trkpt lat="47.546935" lon="7.952372">
        <ele>299.419611</ele>
        <time>2021-11-22T00:42:29.343Z</time>
      </trkpt>
      <trkpt lat="47.546776" lon="7.952185">
        <ele>299.495351</ele>
        <time>2021-11-22T00:42:32.667Z</time>
      </trkpt>
      <trkpt lat="47.546695" lon="7.952091">
        <ele>299.533738</ele>
        <time>2021-11-22T00:42:34.475Z</time>
      </trkpt>
      <trkpt lat="47.546634" lon="7.952024">
        <ele>299.562068</ele>
        <time>2021-11-22T00:42:35.917Z</time>
      </trkpt>
      <trkpt lat="47.546421" lon="7.951793">
        <ele>299.660551</ele>
        <time>2021-11-22T00:42:40.329Z</time>
      </trkpt>
      <trkpt lat="47.546231" lon="7.951558">
        <ele>299.752893</ele>
        <time>2021-11-22T00:42:44.882Z</time>
      </trkpt>
      <trkpt lat="47.546212" lon="7.951535">
        <ele>299.762047</ele>
        <time>2021-11-22T00:42:45.127Z</time>
      </trkpt>
      <trkpt lat="47.546135" lon="7.951406">
        <ele>299.805413</ele>
        <time>2021-11-22T00:42:46.936Z</time>
      </trkpt>
      <trkpt lat="47.545886" lon="7.951110">
        <ele>299.712442</ele>
        <time>2021-11-22T00:42:51.756Z</time>
      </trkpt>
      <trkpt lat="47.545824" lon="7.951061">
        <ele>299.685258</ele>
        <time>2021-11-22T00:42:52.898Z</time>
      </trkpt>
      <trkpt lat="47.545759" lon="7.950982">
        <ele>299.652735</ele>
        <time>2021-11-22T00:42:54.304Z</time>
      </trkpt>
      <trkpt lat="47.545727" lon="7.950947">
        <ele>299.637348</ele>
        <time>2021-11-22T00:42:55.105Z</time>
      </trkpt>
      <trkpt lat="47.545625" lon="7.950829">
        <ele>299.587285</ele>
        <time>2021-11-22T00:42:56.660Z</time>
      </trkpt>
      <trkpt lat="47.545567" lon="7.950765">
        <ele>299.559308</ele>
        <time>2021-11-22T00:42:57.693Z</time>
      </trkpt>
      <trkpt lat="47.545494" lon="7.950684">
        <ele>299.524026</ele>
        <time>2021-11-22T00:42:59.061Z</time>
      </trkpt>
      <trkpt lat="47.545434" lon="7.950668">
        <ele>299.500443</ele>
        <time>2021-11-22T00:43:00.147Z</time>
      </trkpt>
      <trkpt lat="47.545166" lon="7.950366">
        <ele>299.370186</ele>
        <time>2021-11-22T00:43:04.487Z</time>
      </trkpt>
      <trkpt lat="47.544901" lon="7.950044">
        <ele>299.237603</ele>
        <time>2021-11-22T00:43:08.620Z</time>
      </trkpt>
      <trkpt lat="47.544521" lon="7.949558">
        <ele>299.208398</ele>
        <time>2021-11-22T00:43:14.811Z</time>
      </trkpt>
      <trkpt lat="47.544239" lon="7.949202">
        <ele>299.356267</ele>
        <time>2021-11-22T00:43:19.718Z</time>
      </trkpt>
      <trkpt lat="47.543864" lon="7.948694">
        <ele>299.559072</ele>
        <time>2021-11-22T00:43:27.681Z</time>
      </trkpt>
      <trkpt lat="47.543760" lon="7.948548">
        <ele>299.616256</ele>
        <time>2021-11-22T00:43:29.922Z</time>
      </trkpt>
      <trkpt lat="47.543679" lon="7.948431">
        <ele>299.661407</ele>
        <time>2021-11-22T00:43:31.897Z</time>
      </trkpt>
      <trkpt lat="47.543579" lon="7.948287">
        <ele>299.717066</ele>
        <time>2021-11-22T00:43:35.640Z</time>
      </trkpt>
      <trkpt lat="47.543532" lon="7.948214">
        <ele>299.744244</ele>
        <time>2021-11-22T00:43:36.766Z</time>
      </trkpt>
      <trkpt lat="47.543435" lon="7.948000">
        <ele>299.813689</ele>
        <time>2021-11-22T00:43:39.831Z</time>
      </trkpt>
      <trkpt lat="47.543407" lon="7.947938">
        <ele>299.833786</ele>
        <time>2021-11-22T00:43:41.687Z</time>
      </trkpt>
      <trkpt lat="47.543280" lon="7.947656">
        <ele>300.383797</ele>
        <time>2021-11-22T00:43:46.173Z</time>
      </trkpt>
      <trkpt lat="47.543142" lon="7.947250">
        <ele>301.185877</ele>
        <time>2021-11-22T00:43:53.636Z</time>
      </trkpt>
      <trkpt lat="47.543086" lon="7.947052">
        <ele>301.564674</ele>
        <time>2021-11-22T00:43:57.068Z</time>
      </trkpt>
      <trkpt lat="47.543056" lon="7.946935">
        <ele>301.785513</ele>
        <time>2021-11-22T00:43:59.907Z</time>
      </trkpt>
      <trkpt lat="47.543045" lon="7.946881">
        <ele>301.885040</ele>
        <time>2021-11-22T00:44:01.063Z</time>
      </trkpt>
      <trkpt lat="47.542982" lon="7.946547">
        <ele>302.496960</ele>
        <time>2021-11-22T00:44:06.466Z</time>
      </trkpt>
      <trkpt lat="47.542974" lon="7.946495">
        <ele>302.591067</ele>
        <time>2021-11-22T00:44:08.106Z</time>
      </trkpt>
      <trkpt lat="47.542960" lon="7.946400">
        <ele>302.762644</ele>
        <time>2021-11-22T00:44:10.170Z</time>
      </trkpt>
      <trkpt lat="47.542916" lon="7.945730">
        <ele>303.950445</ele>
        <time>2021-11-22T00:44:22.835Z</time>
      </trkpt>
      <trkpt lat="47.542913" lon="7.945267">
        <ele>304.657831</ele>
        <time>2021-11-22T00:44:31.330Z</time>
      </trkpt>
      <trkpt lat="47.543007" lon="7.943867">
        <ele>305.922426</ele>
        <time>2021-11-22T00:44:52.497Z</time>
      </trkpt>
      <trkpt lat="47.543161" lon="7.942213">
        <ele>306.591437</ele>
        <time>2021-11-22T00:45:10.572Z</time>
      </trkpt>
      <trkpt lat="47.543435" lon="7.940670">
        <ele>305.562036</ele>
        <time>2021-11-22T00:45:23.492Z</time>
      </trkpt>
      <trkpt lat="47.543444" lon="7.940639">
        <ele>305.540263</ele>
        <time>2021-11-22T00:45:23.699Z</time>
      </trkpt>
      <trkpt lat="47.543826" lon="7.939433">
        <ele>304.259307</ele>
        <time>2021-11-22T00:45:33.920Z</time>
      </trkpt>
      <trkpt lat="47.544472" lon="7.937932">
        <ele>302.212926</ele>
        <time>2021-11-22T00:45:47.355Z</time>
      </trkpt>
      <trkpt lat="47.544705" lon="7.937395">
        <ele>301.500049</ele>
        <time>2021-11-22T00:45:52.229Z</time>
      </trkpt>
      <trkpt lat="47.544903" lon="7.936917">
        <ele>300.875297</ele>
        <time>2021-11-22T00:45:56.489Z</time>
      </trkpt>
      <trkpt lat="47.545074" lon="7.936484">
        <ele>300.316454</ele>
        <time>2021-11-22T00:46:00.320Z</time>
      </trkpt>
      <trkpt lat="47.545457" lon="7.935110">
        <ele>299.015322</ele>
        <time>2021-11-22T00:46:11.664Z</time>
      </trkpt>
      <trkpt lat="47.545674" lon="7.933625">
        <ele>298.460372</ele>
        <time>2021-11-22T00:46:24.790Z</time>
      </trkpt>
      <trkpt lat="47.545680" lon="7.933553">
        <ele>298.433875</ele>
        <time>2021-11-22T00:46:25.457Z</time>
      </trkpt>
      <trkpt lat="47.545702" lon="7.933290">
        <ele>298.337082</ele>
        <time>2021-11-22T00:46:28.383Z</time>
      </trkpt>
      <trkpt lat="47.545724" lon="7.932758">
        <ele>298.437756</ele>
        <time>2021-11-22T00:46:34.650Z</time>
      </trkpt>
      <trkpt lat="47.545721" lon="7.931992">
        <ele>299.293463</ele>
        <time>2021-11-22T00:46:44.642Z</time>
      </trkpt>
      <trkpt lat="47.545696" lon="7.931497">
        <ele>299.847969</ele>
        <time>2021-11-22T00:46:51.892Z</time>
      </trkpt>
      <trkpt lat="47.545661" lon="7.930955">
        <ele>300.456198</ele>
        <time>2021-11-22T00:47:00.590Z</time>
      </trkpt>
      <trkpt lat="47.545563" lon="7.929641">
        <ele>301.528266</ele>
        <time>2021-11-22T00:47:22.930Z</time>
      </trkpt>
      <trkpt lat="47.545475" lon="7.928419">
        <ele>302.151428</ele>
        <time>2021-11-22T00:47:39.232Z</time>
      </trkpt>
      <trkpt lat="47.545421" lon="7.927686">
        <ele>302.525321</ele>
        <time>2021-11-22T00:47:45.336Z</time>
      </trkpt>
      <trkpt lat="47.545406" lon="7.927306">
        <ele>301.841169</ele>
        <time>2021-11-22T00:47:48.240Z</time>
      </trkpt>
      <trkpt lat="47.545407" lon="7.927001">
        <ele>301.222057</ele>
        <time>2021-11-22T00:47:50.526Z</time>
      </trkpt>
      <trkpt lat="47.545409" lon="7.926773">
        <ele>300.759212</ele>
        <time>2021-11-22T00:47:52.155Z</time>
      </trkpt>
      <trkpt lat="47.545417" lon="7.925848">
        <ele>298.881445</ele>
        <time>2021-11-22T00:47:58.490Z</time>
      </trkpt>
      <trkpt lat="47.545446" lon="7.925350">
        <ele>297.866825</ele>
        <time>2021-11-22T00:48:01.782Z</time>
      </trkpt>
      <trkpt lat="47.545466" lon="7.924880">
        <ele>296.902019</ele>
        <time>2021-11-22T00:48:04.836Z</time>
      </trkpt>
      <trkpt lat="47.545481" lon="7.924396">
        <ele>295.879414</ele>
        <time>2021-11-22T00:48:07.919Z</time>
      </trkpt>
      <trkpt lat="47.545521" lon="7.923709">
        <ele>294.424050</ele>
        <time>2021-11-22T00:48:12.444Z</time>
      </trkpt>
      <trkpt lat="47.545536" lon="7.923407">
        <ele>293.784928</ele>
        <time>2021-11-22T00:48:14.834Z</time>
      </trkpt>
      <trkpt lat="47.545553" lon="7.923142">
        <ele>293.223100</ele>
        <time>2021-11-22T00:48:16.555Z</time>
      </trkpt>
      <trkpt lat="47.545587" lon="7.922895">
        <ele>292.691054</ele>
        <time>2021-11-22T00:48:18.956Z</time>
      </trkpt>
      <trkpt lat="47.545641" lon="7.922610">
        <ele>292.066287</ele>
        <time>2021-11-22T00:48:20.955Z</time>
      </trkpt>
      <trkpt lat="47.545690" lon="7.922369">
        <ele>291.535061</ele>
        <time>2021-11-22T00:48:23.646Z</time>
      </trkpt>
      <trkpt lat="47.545699" lon="7.922325">
        <ele>291.489571</ele>
        <time>2021-11-22T00:48:23.907Z</time>
      </trkpt>
      <trkpt lat="47.545714" lon="7.922249">
        <ele>291.441764</ele>
        <time>2021-11-22T00:48:24.497Z</time>
      </trkpt>
      <trkpt lat="47.545778" lon="7.921947">
        <ele>291.250655</ele>
        <time>2021-11-22T00:48:27.653Z</time>
      </trkpt>
      <trkpt lat="47.545810" lon="7.921755">
        <ele>291.131252</ele>
        <time>2021-11-22T00:48:29.010Z</time>
      </trkpt>
      <trkpt lat="47.545881" lon="7.921096">
        <ele>290.728340</ele>
        <time>2021-11-22T00:48:34.359Z</time>
      </trkpt>
      <trkpt lat="47.545913" lon="7.920765">
        <ele>290.526458</ele>
        <time>2021-11-22T00:48:37.226Z</time>
      </trkpt>
      <trkpt lat="47.545973" lon="7.920313">
        <ele>290.248334</ele>
        <time>2021-11-22T00:48:42.373Z</time>
      </trkpt>
      <trkpt lat="47.546128" lon="7.919617">
        <ele>289.853949</ele>
        <time>2021-11-22T00:48:48.836Z</time>
      </trkpt>
      <trkpt lat="47.546262" lon="7.919081">
        <ele>289.682548</ele>
        <time>2021-11-22T00:48:54.835Z</time>
      </trkpt>
      <trkpt lat="47.546821" lon="7.916867">
        <ele>289.008525</ele>
        <time>2021-11-22T00:49:15.588Z</time>
      </trkpt>
      <trkpt lat="47.547032" lon="7.916218">
        <ele>288.850968</ele>
        <time>2021-11-22T00:49:22.078Z</time>
      </trkpt>
      <trkpt lat="47.547091" lon="7.916039">
        <ele>288.807398</ele>
        <time>2021-11-22T00:49:23.896Z</time>
      </trkpt>
      <trkpt lat="47.547113" lon="7.915971">
        <ele>288.790905</ele>
        <time>2021-11-22T00:49:24.494Z</time>
      </trkpt>
      <trkpt lat="47.547423" lon="7.915080">
        <ele>288.571661</ele>
        <time>2021-11-22T00:49:34.139Z</time>
      </trkpt>
      <trkpt lat="47.547994" lon="7.913433">
        <ele>289.097481</ele>
        <time>2021-11-22T00:49:53.858Z</time>
      </trkpt>
      <trkpt lat="47.548027" lon="7.913334">
        <ele>289.137036</ele>
        <time>2021-11-22T00:49:55.217Z</time>
      </trkpt>
      <trkpt lat="47.548412" lon="7.912168">
        <ele>289.742592</ele>
        <time>2021-11-22T00:50:11.620Z</time>
      </trkpt>
      <trkpt lat="47.549012" lon="7.910340">
        <ele>291.271122</ele>
        <time>2021-11-22T00:50:38.538Z</time>
      </trkpt>
      <trkpt lat="47.549102" lon="7.910058">
        <ele>291.514478</ele>
        <time>2021-11-22T00:50:42.617Z</time>
      </trkpt>
      <trkpt lat="47.549195" lon="7.909756">
        <ele>291.843489</ele>
        <time>2021-11-22T00:50:46.869Z</time>
      </trkpt>
      <trkpt lat="47.549326" lon="7.909321">
        <ele>292.315610</ele>
        <time>2021-11-22T00:50:52.881Z</time>
      </trkpt>
      <trkpt lat="47.549520" lon="7.908678">
        <ele>293.013695</ele>
        <time>2021-11-22T00:51:01.742Z</time>
      </trkpt>
      <trkpt lat="47.549539" lon="7.908625">
        <ele>293.073175</ele>
        <time>2021-11-22T00:51:02.450Z</time>
      </trkpt>
      <trkpt lat="47.550429" lon="7.905776">
        <ele>297.765699</ele>
        <time>2021-11-22T00:51:52.010Z</time>
      </trkpt>
      <trkpt lat="47.550497" lon="7.905558">
        <ele>298.185923</ele>
        <time>2021-11-22T00:51:57.052Z</time>
      </trkpt>
      <trkpt lat="47.550283" lon="7.905413">
        <ele>298.803162</ele>
        <time>2021-11-22T00:52:05.153Z</time>
      </trkpt>
      <trkpt lat="47.550067" lon="7.905245">
        <ele>299.768203</ele>
        <time>2021-11-22T00:52:13.980Z</time>
      </trkpt>
      <trkpt lat="47.549867" lon="7.905155">
        <ele>300.595057</ele>
        <time>2021-11-22T00:52:21.800Z</time>
      </trkpt>
      <trkpt lat="47.549868" lon="7.905010">
        <ele>300.982225</ele>
        <time>2021-11-22T00:52:25.238Z</time>
      </trkpt>
      <trkpt lat="47.550025" lon="7.904774">
        <ele>301.866967</ele>
        <time>2021-11-22T00:52:33.524Z</time>
      </trkpt>
      <trkpt lat="47.550302" lon="7.904164">
        <ele>303.829950</ele>
        <time>2021-11-22T00:52:52.255Z</time>
      </trkpt>
      <trkpt lat="47.550498" lon="7.903445">
        <ele>305.900155</ele>
        <time>2021-11-22T00:53:11.827Z</time>
      </trkpt>
      <trkpt lat="47.550688" lon="7.902451">
        <ele>308.504605</ele>
        <time>2021-11-22T00:53:34.375Z</time>
      </trkpt>
      <trkpt lat="47.550757" lon="7.901591">
        <ele>310.687942</ele>
        <time>2021-11-22T00:53:54.172Z</time>
      </trkpt>
      <trkpt lat="47.550769" lon="7.901362">
        <ele>311.266992</ele>
        <time>2021-11-22T00:54:00.080Z</time>
      </trkpt>
      <trkpt lat="47.550801" lon="7.900244">
        <ele>314.264535</ele>
        <time>2021-11-22T00:54:24.477Z</time>
      </trkpt>
      <trkpt lat="47.550819" lon="7.898109">
        <ele>320.220365</ele>
        <time>2021-11-22T00:55:11.517Z</time>
      </trkpt>
      <trkpt lat="47.550648" lon="7.896481">
        <ele>322.676022</ele>
        <time>2021-11-22T00:55:39.172Z</time>
      </trkpt>
      <trkpt lat="47.550639" lon="7.896345">
        <ele>322.879696</ele>
        <time>2021-11-22T00:55:41.548Z</time>
      </trkpt>
      <trkpt lat="47.550660" lon="7.896255">
        <ele>323.021626</ele>
        <time>2021-11-22T00:55:42.348Z</time>
      </trkpt>
      <trkpt lat="47.550838" lon="7.895509">
        <ele>324.172205</ele>
        <time>2021-11-22T00:55:52.516Z</time>
      </trkpt>
      <trkpt lat="47.550878" lon="7.895158">
        <ele>324.532518</ele>
        <time>2021-11-22T00:55:56.579Z</time>
      </trkpt>
      <trkpt lat="47.550908" lon="7.894308">
        <ele>325.394068</ele>
        <time>2021-11-22T00:56:07.051Z</time>
      </trkpt>
      <trkpt lat="47.550892" lon="7.893176">
        <ele>326.540135</ele>
        <time>2021-11-22T00:56:21.768Z</time>
      </trkpt>
      <trkpt lat="47.550904" lon="7.891725">
        <ele>330.702592</ele>
        <time>2021-11-22T00:56:51.530Z</time>
      </trkpt>
      <trkpt lat="47.550915" lon="7.890600">
        <ele>334.397560</ele>
        <time>2021-11-22T00:57:20.370Z</time>
      </trkpt>
      <trkpt lat="47.550833" lon="7.889069">
        <ele>340.544691</ele>
        <time>2021-11-22T00:58:03.004Z</time>
      </trkpt>
      <trkpt lat="47.550831" lon="7.888611">
        <ele>342.476506</ele>
        <time>2021-11-22T00:58:15.574Z</time>
      </trkpt>
      <trkpt lat="47.550789" lon="7.887816">
        <ele>345.839954</ele>
        <time>2021-11-22T00:58:36.186Z</time>
      </trkpt>
      <trkpt lat="47.550758" lon="7.887295">
        <ele>347.886742</ele>
        <time>2021-11-22T00:58:50.007Z</time>
      </trkpt>
      <trkpt lat="47.550677" lon="7.886476">
        <ele>350.931585</ele>
        <time>2021-11-22T00:59:11.496Z</time>
      </trkpt>
      <trkpt lat="47.550548" lon="7.885799">
        <ele>353.519258</ele>
        <time>2021-11-22T00:59:28.699Z</time>
      </trkpt>
      <trkpt lat="47.550391" lon="7.885109">
        <ele>356.197768</ele>
        <time>2021-11-22T00:59:46.337Z</time>
      </trkpt>
      <trkpt lat="47.550332" lon="7.884727">
        <ele>357.362482</ele>
        <time>2021-11-22T00:59:55.027Z</time>
      </trkpt>
      <trkpt lat="47.550234" lon="7.883221">
        <ele>361.440605</ele>
        <time>2021-11-22T01:00:27.859Z</time>
      </trkpt>
      <trkpt lat="47.549927" lon="7.881490">
        <ele>366.146803</ele>
        <time>2021-11-22T01:01:00.122Z</time>
      </trkpt>
      <trkpt lat="47.549726" lon="7.880786">
        <ele>368.109100</ele>
        <time>2021-11-22T01:01:16.099Z</time>
      </trkpt>
      <trkpt lat="47.549327" lon="7.879547">
        <ele>371.641569</ele>
        <time>2021-11-22T01:01:45.883Z</time>
      </trkpt>
      <trkpt lat="47.549318" lon="7.879398">
        <ele>372.028773</ele>
        <time>2021-11-22T01:01:49.071Z</time>
      </trkpt>
      <trkpt lat="47.549140" lon="7.879391">
        <ele>372.711614</ele>
        <time>2021-11-22T01:01:55.942Z</time>
      </trkpt>
      <trkpt lat="47.548718" lon="7.879258">
        <ele>374.366123</ele>
        <time>2021-11-22T01:02:09.612Z</time>
      </trkpt>
      <trkpt lat="47.548422" lon="7.878959">
        <ele>375.739962</ele>
        <time>2021-11-22T01:02:20.259Z</time>
      </trkpt>
      <trkpt lat="47.548234" lon="7.878638">
        <ele>376.840015</ele>
        <time>2021-11-22T01:02:28.691Z</time>
      </trkpt>
      <trkpt lat="47.547992" lon="7.877974">
        <ele>377.487993</ele>
        <time>2021-11-22T01:02:41.789Z</time>
      </trkpt>
      <trkpt lat="47.547574" lon="7.876801">
        <ele>377.387662</ele>
        <time>2021-11-22T01:02:55.552Z</time>
      </trkpt>
      <trkpt lat="47.547126" lon="7.875801">
        <ele>376.260754</ele>
        <time>2021-11-22T01:03:04.334Z</time>
      </trkpt>
      <trkpt lat="47.546309" lon="7.874154">
        <ele>370.087389</ele>
        <time>2021-11-22T01:03:17.523Z</time>
      </trkpt>
      <trkpt lat="47.546135" lon="7.873859">
        <ele>369.275194</ele>
        <time>2021-11-22T01:03:19.905Z</time>
      </trkpt>
      <trkpt lat="47.546077" lon="7.873763">
        <ele>369.275194</ele>
        <time>2021-11-22T01:03:20.716Z</time>
      </trkpt>
      <trkpt lat="47.545934" lon="7.873549">
        <ele>369.275194</ele>
        <time>2021-11-22T01:03:22.520Z</time>
      </trkpt>
      <trkpt lat="47.545746" lon="7.873302">
        <ele>369.275194</ele>
        <time>2021-11-22T01:03:24.809Z</time>
      </trkpt>
      <trkpt lat="47.545515" lon="7.873015">
        <ele>369.275194</ele>
        <time>2021-11-22T01:03:27.506Z</time>
      </trkpt>
      <trkpt lat="47.545478" lon="7.872968">
        <ele>369.275194</ele>
        <time>2021-11-22T01:03:27.947Z</time>
      </trkpt>
      <trkpt lat="47.545375" lon="7.872836">
        <ele>369.275194</ele>
        <time>2021-11-22T01:03:29.140Z</time>
      </trkpt>
      <trkpt lat="47.545131" lon="7.872664">
        <ele>369.275194</ele>
        <time>2021-11-22T01:03:31.613Z</time>
      </trkpt>
      <trkpt lat="47.544883" lon="7.872555">
        <ele>369.275194</ele>
        <time>2021-11-22T01:03:33.962Z</time>
      </trkpt>
      <trkpt lat="47.544390" lon="7.872423">
        <ele>369.275194</ele>
        <time>2021-11-22T01:03:38.586Z</time>
      </trkpt>
      <trkpt lat="47.543907" lon="7.872338">
        <ele>369.275194</ele>
        <time>2021-11-22T01:03:43.227Z</time>
      </trkpt>
    </trkseg>
  </trk>
</gpx>